     2              OBSERVATION DATA    GPS                 RINEX VERSION / TYPE
srx/v1.8.1.4 seismo 02/07/17 22:37:14                       PGM / RUN BY / DATE
                                                            COMMENT
sig: 9 8 7 6 5 4 1 0                                        COMMENT
sig: 9 8 7 6 5 4 1 0                                        COMMENT
sig: 9 8 7 6 5 4 1 0                                        COMMENT
sig: 9 8 7 6 5 4 1 0                                        COMMENT
sig: 9 8 7 6 5 4 1 0                                        COMMENT
Original Marker Name: AWHD                                  COMMENT
Campaign Name: CSUSB 2002-2003                              COMMENT
4-Character Station Name: AWHD                              COMMENT
6-Character Antenna Code: DMRCHT                            COMMENT
Vertical Measurement Point: BCR                             COMMENT
Vertical Offset to Rinex Ref. Point: 0.0348                 COMMENT
Radial Measurement Point: ECF                               COMMENT
Radial Offset to Rinex Ref. Point: 0.1897                   COMMENT
Antenna Height from Field Measurement: 1.4160 m             COMMENT
Additional Antenna Identification Info.:                    COMMENT
Turborogue and Ashtech Choke Ring                           COMMENT
Original XYZ: -2434643.0662 -4697678.1762 3550111.7202      COMMENT
New XYZ position is based on association with SCEC monument COMMENT
E1D0S6L5+0011. Position of that monument is believed to be  COMMENT
valid to within 1 m horizontally; vertical accuracy         COMMENT
should be no worse than 3-times this value.                 COMMENT
                                                            COMMENT
Revised Rinex header created by UCSD GPS archive for        COMMENT
GSAC on 20-Apr-2005 (2005:110) 16:26:16 GMT                 COMMENT
For assistance contact dagnew@ucsd.edu                      COMMENT
or anderson@python.ucsd.edu                                 COMMENT
                                                            COMMENT
AWHD                                                        MARKER NAME
AWHD                                                        MARKER NUMBER
MR CAL STATE SAN BERNARDINO                                 OBSERVER / AGENCY
T262 TURBOROGUE SNR-8000 98.12.27                           REC # / TYPE / VERS
260 DORNE-MARGOL. TYPE T                                    ANT # / TYPE
 -2420516.0000 -4695053.0000  3563593.0000                  APPROX POSITION XYZ
        1.3684        0.0000        0.0000                  ANTENNA: DELTA H/E/N
     1     1     0                                          WAVELENGTH FACT L1/2
     5    L1    L2    P1    P2    C1                        # / TYPES OF OBSERV
    30                                                      INTERVAL
  2002     7    11    15     6   30.000000                  TIME OF FIRST OBS
  2002     7    11    23    59   30.000000                  TIME OF LAST OBS
    19                                                      # OF SATELLITES
          01   195   195     0   195   195                  PRN / # OF OBS
          02   166   166     0   166   166                  PRN / # OF OBS
          03   526   526     0   526   526                  PRN / # OF OBS
          06   257   257     0   257   257                  PRN / # OF OBS
          09   189   189     0   189   189                  PRN / # OF OBS
          11   440   440     0   440   440                  PRN / # OF OBS
          14   792   792     0   792   792                  PRN / # OF OBS
          15   635   635     0   635   635                  PRN / # OF OBS
          17   530   530     0   530   530                  PRN / # OF OBS
          18   658   658     0   658   658                  PRN / # OF OBS
          20   267   267     0   267   267                  PRN / # OF OBS
          21   885   885     0   885   885                  PRN / # OF OBS
          22   203   203     0   203   203                  PRN / # OF OBS
          23   367   367     0   367   367                  PRN / # OF OBS
          25   550   550     0   550   550                  PRN / # OF OBS
          26   236   236     0   236   236                  PRN / # OF OBS
          29   154   154     0   154   154                  PRN / # OF OBS
          30   108   108     0   108   108                  PRN / # OF OBS
                                                            END OF HEADER
 02 07 11 15 06 30.0000000  0  7 06 15 17 18 23 26 29
        -1.06659        -0.23757         0.00051  20314694.39557  20314693.29959
        -1.22458        -0.86056         0.00051  22180932.77256  22180930.92858
        -0.54459        -0.05856         0.00051  21569926.08956  21569924.01459
        -0.24358         0.01056         0.00051  22825009.15356  22825005.85258
         0.20859         0.49857         0.00051  20652455.77857  20652454.11459
        -1.21358        -0.29654         0.00051  22720380.53054  22720377.48558
        -1.18758         0.08155         0.00051  22964337.29155  22964333.62258
 02 07 11 15 07 00.0000000  0  7 06 15 17 18 23 26 29
      6249.05449      4869.96147         0.00041  20315883.46147  20315882.49249
    -34935.26648    -27222.19746         0.00041  22174285.08946  22174283.15348
    -16501.25449    -12857.77646         0.00041  21566786.42446  21566784.47749
    -73569.94648    -57327.00246         0.00041  22811008.82746  22811005.24948
     38328.02049     29866.31447         0.00041  20659749.38147  20659747.95249
    -45592.45348    -35525.88144         0.00041  22711704.13644  22711701.83448
    -21665.72648    -16881.34145         0.00041  22960214.46045  22960211.15348
 02 07 11 15 07 30.0000000  0  7 06 15 17 18 23 26 29
      1470.32949      1146.25447         0.00041  20314974.24447  20314973.10049
    -81126.46948    -63215.32846         0.00041  22165495.46246  22165492.67148
    -44269.40449    -34495.28346         0.00041  21561502.96546  21561500.16549
   -158314.33548   -123361.55746         0.00041  22794882.44046  22794879.71048
     65718.72249     51209.70047         0.00041  20664961.98247  20664960.44049
   -102243.44048    -79669.43645         0.00041  22700926.66145  22700922.54048
    -54361.08848    -42358.18945         0.00041  22953992.71645  22953989.51348
 02 07 11 15 08 00.0000000  0  7 06 15 17 18 23 26 29
    -11073.83549     -8628.44747         0.00041  20312587.22647  20312586.09249
   -135313.01448   -105438.60246         0.00041  22155183.70946  22155181.30848
    -80043.56149    -62371.25146         0.00041  21554694.47946  21554692.70549
   -250969.42048   -195560.30046         0.00041  22777250.52146  22777248.10248
     85432.68349     66571.21347         0.00041  20668713.23547  20668711.79549
   -166689.28048   -129886.90345         0.00041  22688661.11445  22688659.23548
    -94823.26548    -73887.13945         0.00041  22946293.65445  22946289.63548
 02 07 11 15 08 30.0000000  0  7 06 15 17 18 23 26 29
    -27866.32749    -21713.52947         0.00041  20309392.02447  20309390.62949
   -193979.53648   -151152.77246         0.00041  22144020.24346  22144017.24848
   -120308.30449    -93746.38646         0.00041  21547033.30246  21547030.20449
   -348017.69348   -271182.29446         0.00041  22758783.03546  22758780.90848
    100984.53949     78689.52547         0.00041  20671672.61147  20671670.83049
   -235410.63648   -183435.95445         0.00041  22675584.32645  22675581.05148
   -139534.24648   -108726.83745         0.00041  22937783.63145  22937781.45248
 02 07 11 15 09 00.0000000  0  7 06 15 17 18 23 26 29
    -57777.49549    -45020.95647         0.00041  20303699.85347  20303698.54149
   -265997.72148   -207270.82746         0.00041  22130315.81646  22130313.04948
   -173935.78049   -135534.01946         0.00041  21536827.43946  21536826.82549
   -458328.90248   -357139.04446         0.00041  22737791.39546  22737788.83748
    103501.26249     80650.58647         0.00041  20672151.56347  20672149.95349
   -317276.23848   -247227.28445         0.00041  22660006.27945  22660002.06348
   -197363.36148   -153788.45445         0.00041  22926778.19245  22926776.41948
 02 07 11 15 09 30.0000000  0  7 06 15 17 18 23 26 29
    -89875.28049    -70032.23947         0.00041  20297591.72747  20297590.75749
   -340437.21048   -265275.61146         0.00041  22116150.21746  22116147.49248
   -229995.73348   -179217.12946         0.00041  21526159.82246  21526156.62448
   -570970.48548   -444911.68046         0.00041  22716355.50146  22716353.47448
    103912.02149     80970.63847         0.00041  20672229.73147  20672228.05349
   -401352.17948   -312740.96745         0.00041  22644007.59545  22644003.32748
   -257377.94448   -200553.04245         0.00041  22915357.27245  22915355.36948
 02 07 11 15 10 00.0000000  0  7 06 15 17 18 23 26 29
   -114225.84249    -89006.73047         0.00041  20292958.41447  20292957.06349
   -407365.76848   -317427.72746         0.00041  22103414.17846  22103411.56148
   -278555.95449   -217056.27146         0.00041  21516920.03946  21516918.16349
   -676008.01048   -526759.06546         0.00041  22696368.06146  22696365.88648
    112147.93549     87388.21547         0.00041  20673797.07147  20673795.38149
   -477702.83248   -372234.92246         0.00041  22629478.00246  22629474.47748
   -309643.15248   -241279.14345         0.00041  22905414.22745  22905409.79048
 02 07 11 15 10 30.0000000  0  7 06 15 17 18 23 26 29
   -134725.37949   -104980.42147         0.00041  20289057.39147  20289056.07449
   -470681.33248   -366764.52046         0.00041  22091365.46446  22091362.54148
   -323514.51948   -252088.93646         0.00041  21508362.84246  21508361.15248
   -777337.45448   -605717.02646         0.00041  22677085.68646  22677084.07648
    124309.93649     96865.07947         0.00041  20676111.64147  20676109.88149
   -550222.56848   -428743.76746         0.00041  22615677.44246  22615674.53948
   -358054.54548   -279002.27245         0.00041  22896200.91445  22896197.73448
 02 07 11 15 11 00.0000000  0  7 06 15 17 18 23 26 29
   -153166.71849   -119350.32347         0.00041  20285547.73447  20285546.57949
   -532177.76548   -414683.81346         0.00041  22079663.53246  22079660.50148
   -366666.08449   -285713.54946         0.00041  21500153.15246  21500150.12249
   -876751.20948   -683182.24546         0.00041  22658168.20746  22658165.98848
    138602.40949    108002.04747         0.00041  20678831.10447  20678829.82049
   -620702.62448   -483663.25446         0.00041  22602266.48446  22602262.39348
   -404404.32348   -315118.93545         0.00041  22887380.75745  22887378.34348
 02 07 11 15 11 30.0000000  0  7 06 15 17 18 23 26 29
   -169976.89249   -132449.18647         0.00041  20282349.20947  20282348.00349
   -592283.69548   -461519.58746         0.00041  22068225.68246  22068222.64548
   -408439.47549   -318264.24746         0.00041  21492203.16046  21492201.37449
   -974675.63048   -759486.96546         0.00041  22639533.91446  22639530.88048
    154595.68349    120464.31347         0.00041  20681874.72047  20681873.37949
   -689568.15548   -537324.66646         0.00041  22589161.25046  22589157.78948
   -449118.50648   -349961.11046         0.00041  22878871.99046  22878869.41048
 02 07 11 15 12 00.0000000  0  7 06 15 17 18 23 26 29
   -185386.66549   -144456.82947         0.00041  20279416.56247  20279415.69449
   -651231.79048   -507453.17546         0.00041  22057008.01946  22057005.97648
   -449067.10749   -349922.15646         0.00041  21484471.81246  21484469.89949
  -1071341.12248   -834810.67546         0.00041  22621138.83446  22621136.13148
    172055.84449    134069.61047         0.00041  20685197.39747  20685195.83649
   -757048.29048   -589906.53546         0.00041  22576320.48346  22576316.56748
   -492427.16048   -383708.08146         0.00041  22870630.93546  22870627.74048
 02 07 11 15 12 30.0000000  0  7 06 15 17 18 23 26 29
   -199736.99449   -155638.93247         0.00041  20276686.19547  20276685.13849
   -709364.40448   -552751.32046         0.00041  22045946.45146  22045943.25948
   -488891.69449   -380954.30746         0.00041  21476894.44246  21476891.49949
  -1167087.80148   -909418.45146         0.00041  22602918.63746  22602915.78248
    190639.08749    148550.03447         0.00041  20688733.81047  20688731.96549
   -823482.00648   -641672.99946         0.00041  22563678.47246  22563674.99048
   -534670.62748   -416625.03346         0.00041  22862592.96046  22862589.05848
 02 07 11 15 13 00.0000000  0  7 06 15 17 18 23 26 29
   -213149.55249   -166090.30647         0.00041  20274133.88547  20274132.40249
   -766804.83248   -597510.09046         0.00041  22035015.73346  22035012.58048
   -528036.53549   -411456.78946         0.00041  21469443.56346  21469442.45849
  -1262037.26648   -983405.01046         0.00041  22584850.52246  22584847.48948
    210220.91149    163808.57047         0.00041  20692459.90747  20692458.15649
   -888989.26448   -692717.55346         0.00041  22551213.13746  22551209.20148
   -575969.64148   -448806.07346         0.00041  22854733.45146  22854730.30648
 02 07 11 15 13 30.0000000  0  7 06 15 17 18 23 26 29
   -225730.12049   -175893.37847         0.00041  20271739.87947  20271738.78049
   -823660.14848   -641812.94146         0.00041  22024196.27546  22024193.47548
   -566609.01249   -441513.27046         0.00041  21462105.48246  21462102.35849
  -1356294.65148  -1056852.28546         0.00041  22566913.85346  22566910.91348
    230693.01249    179760.82647         0.00041  20696355.59147  20696354.10349
   -953673.96148   -743121.18545         0.00041  22538904.33545  22538899.90448
   -616429.20748   -480332.97946         0.00041  22847033.78946  22847031.12448
 02 07 11 15 14 00.0000000  0  7 06 15 17 18 23 26 29
   -237528.08349   -185086.62747         0.00041  20269494.67447  20269493.46449
   -879981.38148   -685699.58746         0.00041  22013478.98746  22013475.39548
   -604660.40649   -471163.72646         0.00041  21454863.12846  21454861.19849
  -1449908.90548  -1129798.41846         0.00041  22549099.43046  22549095.89748
    252003.06949    196366.03647         0.00041  20700410.70247  20700409.36749
  -1017583.78348   -792921.01545         0.00041  22526741.43945  22526738.40748
   -656097.85848   -511243.58645         0.00041  22839484.54445  22839481.66248
 02 07 11 15 14 30.0000000  0  7 06 15 17 18 23 26 29
   -248642.99049   -193747.62447         0.00041  20267379.58047  20267378.37349
   -935869.78748   -729248.99346         0.00041  22002843.29346  22002840.88348
   -642291.92249   -500486.99346         0.00041  21447703.61946  21447700.68549
  -1542979.11248  -1202320.61346         0.00041  22531388.60146  22531385.56248
    274048.51349    213544.27247         0.00041  20704606.03447  20704604.47749
  -1080816.72748   -842193.39345         0.00041  22514707.02345  22514705.48148
   -695074.76748   -541615.17845         0.00041  22832068.66145  22832063.99848
 02 07 11 15 15 00.0000000  0  7 06 15 17 18 23 26 29
   -259254.86049   -202016.64047         0.00041  20265360.34047  20265359.29949
   -991506.68848   -772602.43446         0.00041  21992256.31046  21992253.28548
   -679685.26849   -529624.67346         0.00041  21440586.75146  21440584.59149
  -1635684.83148  -1274558.79046         0.00041  22513746.70346  22513745.22748
    296646.41249    231152.99547         0.00041  20708906.31047  20708904.62349
  -1143550.82148   -891077.05546         0.00041  22502769.98146  22502767.60648
   -733539.16048   -571587.43245         0.00041  22824747.42945  22824745.78448
 02 07 11 15 15 30.0000000  0  7 06 15 17 18 23 26 29
   -269330.16049   -209867.55647         0.00041  20263443.13747  20263441.84749
  -1046860.10248   -815734.95446         0.00041  21981723.10246  21981720.02148
   -716808.48749   -558551.87746         0.00041  21433523.31046  21433520.22949
  -1727991.87748  -1346486.31846         0.00041  22496181.82546  22496180.02248
    319827.37649    249216.04947         0.00041  20713317.31047  20713315.59549
  -1205750.90148   -939544.58346         0.00041  22490934.60746  22490931.35148
   -771456.71748   -601133.57045         0.00041  22817533.78045  22817530.71948
 02 07 11 15 16 00.0000000  0  7 06 15 17 18 23 26 29
   -278867.74549   -217299.47147         0.00041  20261628.39847  20261626.91549
  -1101930.17348   -858646.73146         0.00041  21971242.55446  21971240.51848
   -753662.19749   -587269.07446         0.00041  21426509.69146  21426508.20249
  -1819898.61348  -1418101.93546         0.00041  22478692.53146  22478690.17248
    343589.83249    267732.21347         0.00041  20717839.26947  20717837.43649
  -1267413.99748   -987593.70646         0.00041  22479200.73446  22479197.32848
   -808825.44948   -630252.05045         0.00041  22810422.96245  22810419.05348
 02 07 11 15 16 30.0000000  0  7 06 15 17 18 23 26 29
   -287900.75149   -224338.21047         0.00041  20259909.32247  20259908.16049
  -1156751.80548   -901364.88446         0.00041  21960811.01346  21960807.54348
   -790281.08749   -615803.28646         0.00041  21419541.65846  21419539.31049
  -1911437.88448  -1489431.20646         0.00041  22461273.99546  22461270.72048
    367897.80649    286673.45047         0.00041  20722464.96447  20722463.32849
  -1328571.61748  -1035248.94645         0.00041  22467562.53445  22467559.36048
   -845678.04048   -658968.70246         0.00041  22803408.90946  22803405.74448
 02 07 11 15 17 00.0000000  0  7 06 15 17 18 23 26 29
   -296448.90149   -230999.14047         0.00041  20258282.69647  20258281.18249
  -1211345.92648   -943905.75746         0.00041  21950422.30146  21950419.21648
   -826686.48949   -644171.15046         0.00041  21412613.80446  21412611.60549
  -2002628.73748  -1560488.95646         0.00041  22443920.09546  22443917.55248
    392728.76649    306022.21247         0.00041  20727190.20747  20727188.58049
  -1389241.52948  -1082524.16245         0.00041  22456017.32745  22456014.63548
   -882033.12248         0.00041         0.00041         0.00041  22796488.24848
 02 07 11 15 17 30.0000000  0  7 06 15 17 18 23 26 29
   -304518.50449   -237287.17147         0.00041  20256747.12447  20256745.70249
  -1265720.22348   -986275.32946         0.00041  21940074.71846  21940071.35148
   -862886.26849   -672378.78546         0.00041  21405725.11146  21405723.21149
  -2093476.87048  -1631279.66946         0.00041  22426632.54446  22426628.88948
    418073.49749    325771.31947         0.00041  20732013.18547  20732011.31449
  -1449428.24948  -1129422.86045         0.00041  22444563.64645  22444561.43848
   -917896.55348   -715243.39945         0.00041  22789664.83645  22789663.99548
 02 07 11 15 18 00.0000000  0  7 06 15 17 18 23 26 29
   -312114.16749   -243205.89947         0.00041  20255301.86747  20255300.29349
  -1319880.77748  -1028478.35146         0.00041  21929768.67846  21929766.54348
   -898886.69949   -700431.08846         0.00041  21398875.07246  21398872.27849
  -2183986.41348  -1701806.55746         0.00041  22409408.43746  22409406.41348
    443924.40249    345914.85347         0.00041  20736932.48847  20736930.46949
  -1509134.79548  -1175947.39545         0.00041  22433201.50545  22433198.91448
   -953272.20848   -742808.86445         0.00041  22782933.80245  22782931.24048
 02 07 11 15 18 30.0000000  0  7 06 15 17 18 23 26 29
   -319237.83649   -248756.83947         0.00041  20253946.14947  20253944.96649
  -1373830.77548  -1070517.30546         0.00041  21919502.43746  21919499.36448
   -934691.17549   -728330.69846         0.00041  21392061.07646  21392058.67749
  -2274158.78048  -1772070.70646         0.00041  22392249.65546  22392247.58948
    470276.68849    366449.07347         0.00041  20741947.34147  20741945.49049
  -1568361.26948  -1222097.85745         0.00041  22421931.68345  22421928.61848
   -988161.28048   -769995.16245         0.00041  22776294.97745  22776292.58648
 02 07 11 15 19 00.0000000  0  7 06 15 17 18 23 26 29
   -325913.17349   -253958.42347         0.00041  20252676.16947  20252674.95349
  -1427595.31348  -1112411.74346         0.00041  21909271.61146  21909268.56748
   -970324.93249   -756097.26746         0.00041  21385280.09346  21385277.93349
  -2364017.31448  -1842090.29546         0.00041  22375149.86446  22375147.67248
    497103.75149    387353.24647         0.00041  20747052.34447  20747050.56349
  -1627129.47448  -1267891.23245         0.00041  22410748.58845  22410745.33848
  -1022586.82748   -796820.26345         0.00041  22769744.89245  22769742.45948
 02 07 11 15 19 30.0000000  0  7 06 15 17 18 23 26 29
   -332127.60849   -258800.86447         0.00041  20251493.53547  20251492.16049
  -1481163.22348  -1154152.96846         0.00041  21899077.76046  21899074.54148
  -1005776.93549   -783722.23146         0.00041  21378534.23546  21378531.98049
  -2453548.88448  -1911855.12446         0.00041  22358112.22546  22358110.58248
    524415.33449    408634.96747         0.00041  20752249.55247  20752247.56949
  -1685425.26148  -1313316.49945         0.00041  22399655.91845  22399652.59248
  -1056535.49048   -823273.74145         0.00041  22763284.97845  22763281.97748
 02 07 11 15 20 00.0000000  0  7 06 15 17 18 23 26 29
   -337883.33649   -263285.87347         0.00041  20250398.18347  20250396.86849
  -1534538.09448  -1195743.77646         0.00041  21888920.46246  21888917.73548
  -1041050.90048   -811208.44746         0.00041  21371821.45746  21371818.73448
  -2542754.98648  -1981366.33446         0.00041  22341138.48546  22341135.29948
    552206.33349    430290.25947         0.00041  20757538.08847  20757535.83049
  -1743248.96048  -1358373.88646         0.00041  22388652.06446  22388648.63148
  -1090008.83248   -849356.87745         0.00041  22756914.88045  22756911.68048
 02 07 11 15 20 30.0000000  0  7 06 15 17 18 23 26 29
   -343206.15049   -267433.54947         0.00041  20249385.55447  20249384.03849
  -1587746.97648  -1237205.26046         0.00041  21878795.63646  21878792.69748
  -1076174.13949   -838577.22046         0.00041  21365137.92646  21365135.92749
  -2631661.02348  -2050643.72546         0.00041  22324219.75146  22324216.66348
    580448.18349    452296.86747         0.00041  20762912.33447  20762910.31949
  -1800624.72848  -1403082.22946         0.00041  22377733.48646  22377730.49348
  -1123031.93748   -875089.18145         0.00041  22750631.69145  22750627.64848
 02 07 11 15 21 00.0000000  0  7 06 15 17 18 23 26 29
   -348074.39549   -271227.01847         0.00041  20248459.20747  20248457.78449
  -1640769.61848  -1278521.61446         0.00041  21868705.69946  21868702.88848
  -1111126.42648   -865812.77646         0.00041  21358486.61546  21358483.66648
  -2720244.63948  -2119669.88746         0.00041  22307361.93146  22307359.87648
    609159.65949    474669.41747         0.00041  20768376.12447  20768374.57649
  -1857528.95848  -1447423.14746         0.00041  22366904.76046  22366902.10448
  -1155582.47948   -900453.22045         0.00041  22744436.38345  22744434.00548
 02 07 11 15 21 30.0000000  0  7 06 15 17 18 23 26 29
   -352498.13949   -274674.12647         0.00041  20247617.34947  20247615.74549
  -1693617.29648  -1319701.61846         0.00041  21858649.16746  21858646.34448
  -1145919.33048   -892924.15046         0.00041  21351865.25146  21351863.14048
  -2808515.45048  -2188452.29546         0.00041  22290564.00846  22290561.91348
    638327.86749    497397.86647         0.00041  20773926.61847  20773924.79449
  -1913970.06248  -1491403.19846         0.00041  22356164.86546  22356161.76448
  -1187669.81648   -925456.31745         0.00041  22738330.76045  22738327.70548
 02 07 11 15 22 00.0000000  0  7 06 15 17 18 23 26 29
   -356486.46049   -277781.94747         0.00041  20246858.64147  20246857.02849
  -1746300.46948  -1360753.44846         0.00041  21848623.11046  21848619.88548
  -1180563.41349   -919919.53446         0.00041  21345273.71046  21345271.25949
  -2896482.24848  -2256997.81646         0.00041  22273825.19346  22273822.50448
    667940.61749    520472.71047         0.00041  20779561.72747  20779559.95849
  -1969955.50248  -1535028.19746         0.00041  22345511.08946  22345507.89548
  -1219302.50748   -950105.16145         0.00041  22732310.57345  22732307.37948
 02 07 11 15 22 30.0000000  0  7 06 15 17 18 23 26 29
   -360014.10749   -280530.79847         0.00041  20246186.87247  20246185.76849
  -1798795.34048  -1401658.52746         0.00041  21838634.13646  21838630.77148
  -1215034.92348   -946780.46646         0.00041  21338713.84146  21338711.16048
  -2984119.02248  -2325286.18146         0.00041  22257149.24546  22257146.36548
    698020.26349    543911.37247         0.00041  20785285.49547  20785283.69049
  -2025458.19248  -1578277.03146         0.00041  22334948.67046  22334945.57848
  -1250454.73348   -974379.60045         0.00041  22726382.93645  22726379.51948
 02 07 11 15 23 00.0000000  0  7 06 15 17 18 23 26 29
   -363099.35249   -282934.91547         0.00041  20245599.81447  20245598.72449
  -1851121.28948  -1442431.99246         0.00041  21828676.89446  21828673.58748
  -1249353.52448   -973522.25546         0.00041  21332183.31946  21332180.34148
  -3071443.41049  -2393331.12446         0.00041  22240531.49646  22240529.84649
    728545.79349    567697.47547         0.00041  20791094.52947  20791092.64149
  -2080494.64748  -1621162.55246         0.00041  22324475.96146  22324472.95948
  -1281143.77948   -998293.13645         0.00041  22720542.72645  22720539.54148
 02 07 11 15 23 30.0000000  0  7 06 15 17 18 23 26 29
   -365717.45449   -284975.03047         0.00041  20245101.96547  20245100.55849
  -1903254.91148  -1483055.61846         0.00041  21818756.19246  21818753.07748
  -1283495.80448  -1000126.63846         0.00041  21325686.05346  21325683.34848
  -3158430.22148  -2461113.01646         0.00041  22223978.00546  22223975.97348
    759539.15349    591848.12147         0.00041  20796992.50347  20796990.54649
  -2135038.58148  -1663664.30046         0.00041  22314096.98746  22314093.77348
  -1311344.52948  -1021826.16845         0.00041  22714795.60045  22714792.52848
 02 07 11 15 24 00.0000000  0  7 06 15 17 18 23 26 29
   -367852.63249   -286638.84247         0.00041  20244695.84247  20244694.24549
  -1955181.59748  -1523517.97246         0.00041  21808875.81946  21808871.75648
  -1317447.33549  -1026582.39846         0.00041  21319225.58846  21319222.69349
  -3245063.07148  -2528619.09146         0.00041  22207492.53646  22207489.67648
    791013.26149    616373.37547         0.00041  20802981.98847  20802979.65149
  -2189072.14148  -1705768.37246         0.00041  22303814.96746  22303810.99448
  -1341040.44448  -1044965.82945         0.00041  22709145.11645  22709141.83448
 02 07 11 15 24 30.0000000  0  7 06 15 17 18 23 26 29
   -369496.88649   -287920.11747         0.00041  20244382.78147  20244381.58949
  -2006894.45348  -1563813.69746         0.00041  21799034.68846  21799031.78548
  -1351201.52149  -1052884.36546         0.00041  21312802.20346  21312799.75549
  -3331333.39148  -2595842.69046         0.00041  22191075.16146  22191073.39348
    822973.14249    641277.14947         0.00041  20809063.63347  20809061.40449
  -2242585.70348  -1747467.23446         0.00041  22293630.63646  22293627.27748
  -1370222.88548  -1067705.36945         0.00041  22703592.81045  22703588.72348
 02 07 11 15 25 00.0000000  0  7 06 15 17 18 23 26 29
   -370786.34049   -288924.92247         0.00041  20244137.57547  20244136.00749
  -2058531.23548  -1604050.18246         0.00041  21789207.84546  21789205.67148
  -1384896.04549  -1079139.86846         0.00041  21306390.33346  21306387.82149
  -3417377.01648  -2662889.64146         0.00041  22174701.38546  22174700.01348
    855279.48949    666450.90047         0.00041  20815211.10147  20815209.01949
  -2295713.92248  -1788865.81146         0.00041  22283521.17146  22283517.90148
  -1399027.47948  -1090150.49845         0.00041  22698110.14145  22698107.53448
 02 07 11 15 25 30.0000000  0  7 06 15 17 18 23 26 29
   -371633.73349   -289585.25947         0.00041  20243976.21747  20243974.90349
  -2110005.34048  -1644159.86946         0.00041  21779413.15546  21779410.01048
  -1418445.01749  -1105281.93846         0.00041  21300005.75346  21300003.65349
  -3503105.78748  -2729691.24446         0.00041  22158388.00146  22158386.31248
    888016.91849    691960.55947         0.00041  20821441.09847  20821438.96549
  -2348367.56748  -1829894.59046         0.00041  22273501.74746  22273498.12748
  -1427366.32748  -1112232.69845         0.00041  22692717.69945  22692714.59248
 02 07 11 15 26 00.0000000  0  8 06 15 17 18 21 23 26 29
   -372023.49949   -289889.00947         0.00041  20243902.19847  20243900.65249
  -2161302.55048  -1684131.73246         0.00041  21769650.78946  21769648.99248
  -1451833.80649  -1131299.20646         0.00041  21293652.48446  21293650.30849
  -3588503.73648  -2796235.06146         0.00041  22142137.92746  22142135.83948
        -0.35257         0.00051         0.00051         0.00051  24883681.74957
    921198.10349    717816.00147         0.00041  20827755.30747  20827753.32549
  -2400529.49548  -1870540.22346         0.00041  22263576.00346  22263571.58748
  -1455223.26148  -1133939.38945         0.00041  22687415.83945  22687413.61148
 02 07 11 15 26 30.0000000  0  8 06 15 17 18 21 23 26 29
   -372000.13749   -289870.85447         0.00041  20243906.40247  20243905.22449
  -2212468.67948  -1724001.43846         0.00041  21759914.86546  21759911.82148
  -1485108.55849  -1157227.60146         0.00041  21287320.25146  21287318.21249
  -3673614.83548  -2862555.36546         0.00041  22125942.82246  22125939.20148
    -94582.82747         0.00041         0.00041         0.00041  24865681.43347
    954775.52249    743980.19947         0.00041  20834144.94147  20834142.66649
  -2452242.62048  -1910836.12446         0.00041  22253734.08046  22253730.76548
  -1482642.13948  -1155304.76245         0.00041  22682198.36745  22682195.84848
 02 07 11 15 27 00.0000000  0  8 06 15 17 18 21 23 26 29
   -371465.38249   -289454.19547         0.00041  20244008.30947  20244006.79649
  -2263406.86748  -1763693.53846         0.00041  21750221.86046  21750218.77748
  -1518172.28749  -1182991.55746         0.00041  21281029.04046  21281026.27349
  -3758340.11148  -2928575.01846         0.00041  22109819.08346  22109816.27448
   -188974.19448         0.00041         0.00041         0.00041  24847720.04848
    988844.64049    770527.53847         0.00041  20840628.22547  20840625.94049
  -2503406.85048  -1950704.37945         0.00041  22243998.26845  22243994.75148
  -1509524.31448  -1176251.91545         0.00041  22677082.82545  22677080.62748
 02 07 11 15 27 30.0000000  0  8 06 15 17 18 21 23 26 29
   -370430.60249   -288647.90947         0.00041  20244205.32347  20244203.71849
  -2314129.52649  -1803217.68146         0.00041  21740569.24246  21740567.38649
  -1551037.72949  -1208601.01746         0.00041  21274774.75646  21274772.49149
  -3842690.57648  -2994302.61646         0.00041  22093766.17946  22093764.58548
   -283185.08048   -220662.38641         0.00041         0.00041  24829792.21048
   1023391.16249    797446.87747         0.00041  20847202.07247  20847200.06849
  -2554031.77048  -1990152.25546         0.00041  22234365.61946  22234361.31648
  -1535880.36248  -1196789.09245         0.00041  22672066.97745  22672064.54648
 02 07 11 15 28 00.0000000  0  8 06 15 17 18 21 23 26 29
   -368992.33049   -287527.22147         0.00041  20244479.32547  20244477.77549
  -2364733.91348  -1842649.68246         0.00041  21730940.13846  21730937.15148
  -1583802.49349  -1234132.02246         0.00041  21268539.34546  21268537.95549
  -3926762.14248  -3059812.89246         0.00041  22077768.97446  22077766.76048
   -377311.40948   -294007.60144         0.00041  24811888.26444  24811881.17748
   1058315.90149    824660.92747         0.00041  20853848.05047  20853846.23449
  -2604212.33448  -2029253.98146         0.00041  22224815.87846  22224812.51348
  -1561806.19048  -1216991.04745         0.00041  22667134.64145  22667131.43148
 02 07 11 15 28 30.0000000  0  8 06 15 17 18 21 23 26 29
   -367149.03749   -286090.92847         0.00041  20244829.90847  20244828.42849
  -2415219.85048  -1881989.36746         0.00041  21721332.49046  21721330.12848
  -1616466.21448  -1259584.29746         0.00041  21262324.25446  21262321.22048
  -4010552.56748  -3125104.11046         0.00041  22061824.57646  22061821.88548
   -471350.69348   -367285.00944         0.00041  24793997.09644  24793985.92648
   1093617.34949    852168.51847         0.00041  20860565.61747  20860563.81249
  -2653945.24148  -2068006.86846         0.00041  22215351.93446  22215348.04848
  -1587299.69148  -1236856.10945         0.00041  22662283.02445  22662280.25048
 02 07 11 15 29 00.0000000  0  8 06 15 17 18 21 23 26 29
   -364777.98849   -284243.39447         0.00041  20245280.97547  20245279.77149
  -2465465.68048  -1921141.97346         0.00041  21711771.12246  21711768.35448
  -1648907.34249  -1284863.13146         0.00041  21256150.36146  21256148.01149
  -4093938.60248  -3190080.21646         0.00041  22045957.19546  22045954.18848
   -565179.89148   -440398.68144         0.00041  24776138.99444  24776131.74048
   1129415.42549    880063.09147         0.00041  20867377.79547  20867376.06249
  -2703106.02448  -2106313.95146         0.00041  22205996.68146  22205992.42648
  -1612237.54748  -1256288.19645         0.00041  22657537.62645  22657534.90048
 02 07 11 15 29 30.0000000  0  8 06 15 17 18 21 23 26 29
   -361896.21849   -281997.89947         0.00041  20245829.64147  20245828.14249
  -2515489.58848  -1960121.65046         0.00041  21702252.04046  21702248.86648
  -1681144.17549  -1309982.76246         0.00041  21250016.53346  21250014.24549
  -4176936.50948  -3254753.86546         0.00041  22030162.95846  22030159.78548
   -658815.98748   -513361.90544         0.00041  24758318.54444  24758312.11548
   1165690.27849    908329.17547         0.00041  20874280.85947  20874278.98749
  -2751709.95448  -2144187.12346         0.00041  22196747.30746  22196744.09048
  -1636636.27948  -1275300.23245         0.00041  22652894.22545  22652891.02148
 02 07 11 15 30 00.0000000  0  8 06 15 17 18 21 23 26 29
   -358655.96349   -279473.06247         0.00041  20246446.38047  20246444.78049
  -2565444.80949  -1999047.80246         0.00041  21692745.95746  21692742.78849
  -1713330.21449  -1335062.81446         0.00041  21243891.68246  21243889.23949
  -4259698.27248  -3319243.51746         0.00041  22014414.20646  22014411.43648
   -752411.07748   -586293.10244         0.00041  24740511.82244  24740501.64548
   1202286.62749    936845.77447         0.00041  20881244.80247  20881242.89149
  -2799907.85948  -2181743.91746         0.00041  22187576.10146  22187572.99848
  -1660647.69248  -1294010.43445         0.00041  22648326.19345  22648322.06148
 02 07 11 15 30 30.0000000  0  8 06 15 17 18 21 23 26 29
   -354897.72949   -276544.60747         0.00041  20247161.53947  20247159.90749
  -2615172.52249  -2037796.65946         0.00041  21683283.38146  21683280.44449
  -1745307.23349  -1359979.99846         0.00041  21237806.65246  21237804.29249
  -4342063.54648  -3383424.22246         0.00041  21998740.60746  21998737.81048
   -845804.52448   -659067.22144         0.00041  24722740.18044  24722730.25148
   1239361.29249    965735.08847         0.00041  20888300.06447  20888298.29849
  -2847538.44948  -2218858.63246         0.00041  22178513.16446  22178508.85448
  -1684111.48248  -1312293.95945         0.00041  22643861.30845  22643857.04748
 02 07 11 15 31 00.0000000  0  8 06 15 17 18 21 23 26 29
   -350643.56549   -273229.72147         0.00041  20247970.93247  20247969.53649
  -2664696.07049  -2076386.43646         0.00041  21673858.20146  21673856.66649
  -1777098.28249  -1384752.27746         0.00041  21231756.48246  21231754.36949
  -4424053.91548  -3447312.79146         0.00041  21983136.98146  21983134.96648
   -939018.09548   -731701.16644         0.00041  24705000.64744  24704993.14048
   1276889.33249    994977.67847         0.00041  20895441.44847  20895439.50549
  -2894622.03148  -2255547.12746         0.00041  22169552.41846  22169549.15548
  -1707049.17348  -1330167.51245         0.00041  22639495.45845  22639491.98248
 02 07 11 15 31 30.0000000  0  8 06 15 17 18 21 23 26 29
   -345975.16149   -269592.04447         0.00041  20248859.41647  20248857.65949
  -2714098.24949  -2114881.63846         0.00041  21664457.90246  21664455.37449
  -1808786.23149  -1409444.21546         0.00041  21225727.25746  21225724.50549
  -4505750.41748  -3510972.37446         0.00041  21967590.06746  21967588.39348
  -1032132.42648   -804257.80744         0.00041  24687284.39744  24687273.22748
   1314786.27249   1024507.72647         0.00041  20902652.88747  20902650.81849
  -2941238.69748  -2291871.80246         0.00041  22160681.32946  22160678.29548
  -1729542.25948  -1347694.55745         0.00041  22635216.00445  22635211.56748
 02 07 11 15 32 00.0000000  0  8 06 15 17 18 21 23 26 29
   -340862.65149   -265608.30947         0.00041  20249832.44947  20249830.72349
  -2763350.20249  -2153259.78446         0.00041  21655085.26046  21655082.58949
  -1840342.26749  -1434033.35346         0.00041  21219721.83346  21219719.25149
  -4587122.91048  -3574379.48146         0.00041  21952106.29546  21952103.74048
  -1125117.42548   -876713.61844         0.00041  24669586.76744  24669577.33548
   1353079.13649   1054346.28447         0.00041  20909939.66647  20909937.44449
  -2987356.94148  -2327808.09146         0.00041  22151905.10246  22151901.93448
  -1751559.94248  -1364851.21145         0.00041  22631025.43545  22631022.01848
 02 07 11 15 32 30.0000000  0  8 06 15 17 18 21 23 26 29
   -335278.19749   -261256.82347         0.00041  20250895.19647  20250893.58149
  -2812425.05348  -2191499.91846         0.00041  21645746.45846  21645743.58548
  -1871739.50849  -1458498.75346         0.00041  21213747.50946  21213745.03549
  -4668142.56348  -3637511.64446         0.00041  21936689.26446  21936686.36848
  -1217944.79848   -949046.62444         0.00041  24651925.38744  24651913.97048
   1391792.92549   1084512.83847         0.00041  20917306.90147  20917304.66049
  -3032947.16048  -2363332.91646         0.00041  22143229.54146  22143225.89648
  -1773073.97848  -1381615.45245         0.00041  22626931.32445  22626928.41148
 02 07 11 15 33 00.0000000  0  8 06 15 17 18 21 23 26 29
   -329224.10949   -256539.39347         0.00041  20252047.08047  20252045.68149
  -2861326.06748  -2229604.60446         0.00041  21636441.11846  21636438.43748
  -1902981.51049  -1482843.18346         0.00041  21207801.97446  21207800.06349
  -4748810.99048  -3700370.12846         0.00041  21921338.27546  21921335.84248
  -1310616.28948  -1021258.17944         0.00041  24634287.65244  24634279.71348
   1430922.49249   1115003.37447         0.00041  20924753.29047  20924750.84249
  -3078010.20948  -2398446.95146         0.00041  22134655.90646  22134651.40648
  -1794086.19148  -1397988.63645         0.00041  22622933.10745  22622929.94348
 02 07 11 15 33 30.0000000  0  8 06 15 17 18 21 23 26 29
   -322697.25349   -251453.58147         0.00041  20253288.90447  20253287.55649
  -2910050.88148  -2267572.01446         0.00041  21627169.98346  21627166.64448
  -1934066.20949  -1507065.03146         0.00041  21201887.45946  21201884.77449
  -4829124.55848  -3762952.09746         0.00041  21906054.78646  21906052.32048
  -1403127.86348  -1093345.12644         0.00041  24616683.90544  24616675.46648
   1470468.15549   1145818.14247         0.00041  20932278.71647  20932276.04849
  -3122541.06048  -2433146.30446         0.00041  22126181.09646  22126178.04348
  -1814592.77848  -1413967.81045         0.00041  22619031.51745  22619027.02748
 02 07 11 15 34 00.0000000  0  8 06 15 17 18 21 23 26 29
   -315704.02949   -246004.36647         0.00041  20254619.97147  20254618.64349
  -2958606.88948  -2305407.86946         0.00041  21617929.99546  21617926.54648
  -1965001.05549  -1531170.12946         0.00041  21196000.24946  21195997.51249
  -4909089.07248  -3825262.07746         0.00041  21890837.84246  21890835.82248
  -1495485.62948  -1165312.22344         0.00041  24599107.83544  24599100.19848
   1510420.66349   1176949.92947         0.00041  20939881.29047  20939878.84749
  -3166544.59448  -2467434.75646         0.00041  22117807.03246  22117803.96448
  -1834599.87748  -1429557.79245         0.00041  22615224.43945  22615220.98848
 02 07 11 15 34 30.0000000  0  8 06 15 17 18 21 23 26 29
   -308235.38849   -240184.69147         0.00041  20256041.42547  20256039.66749
  -3006986.23448  -2343106.06346         0.00041  21608722.54046  21608720.26848
  -1995777.97349  -1555152.16746         0.00041  21190143.88946  21190141.57349
  -4988695.05648  -3887292.68946         0.00041  21875689.85046  21875687.45148
  -1587680.12448  -1237152.07844         0.00041  24581566.43344  24581555.75948
   1550786.06349   1208403.44947         0.00041  20947562.66247  20947560.45749
  -3210010.30748  -2501304.15946         0.00041  22109536.52346  22109532.28548
  -1854097.82148  -1444751.02945         0.00041  22611513.73145  22611509.82448
 02 07 11 15 35 00.0000000  0  8 06 15 17 18 21 23 26 29
   -300316.25549   -234013.97647         0.00041  20257548.44847  20257546.62449
  -3055214.49848  -2380686.54446         0.00041  21599545.99446  21599542.51448
  -2026422.94249  -1579031.37946         0.00041  21184312.49046  21184309.72549
  -5067966.46249  -3949062.58546         0.00041  21860604.81746  21860603.31949
  -1679735.35348         0.00041         0.00041         0.00041  24564038.56548
   1591536.80949   1240157.23647         0.00041  20955317.02447  20955314.95649
  -3252961.43848  -2534772.55346         0.00041  22101362.22846  22101358.70648
  -1873111.00048  -1459566.51645         0.00041  22607895.43445  22607892.21648
 02 07 11 15 35 30.0000000  0  8 06 15 17 18 21 23 26 29
   -291880.15049   -227440.42747         0.00041  20259153.75847  20259152.26349
  -3103226.14148  -2418098.22146         0.00041  21590410.11846  21590406.34948
  -2056870.33349  -1602756.63346         0.00041  21178518.71246  21178515.87949
  -5146836.23749  -4010519.52846         0.00041  21845596.47946  21845594.50449
  -1771584.55048  -1380454.19044         0.00041  24546567.65744  24546560.92048
   1632736.44049   1272260.80247         0.00041  20963157.08647  20963155.16449
  -3295329.71848  -2567786.77946         0.00041  22093300.55146  22093296.89648
  -1891572.44848  -1473952.07145         0.00041  22604383.80945  22604378.93548
 02 07 11 15 36 00.0000000  0  8 06 15 17 18 21 23 26 29
   -282959.99049   -220489.69347         0.00041  20260851.19247  20260849.53249
  -3151055.04449  -2455367.50046         0.00041  21581307.63346  21581305.60749
  -2087154.12549  -1626354.42746         0.00041  21172755.85346  21172753.09049
  -5225337.26049  -4071689.10846         0.00041  21830658.35046  21830656.25449
  -1863259.39648  -1451889.17244         0.00041  24529124.48744  24529115.55148
   1674349.25449   1304686.32647         0.00041  20971075.88247  20971073.86449
  -3337146.58248  -2600371.34846         0.00041  22085342.77146  22085339.32648
  -1909514.62248  -1487932.99645         0.00041  22600968.35545  22600964.86348
 02 07 11 15 36 30.0000000  0  8 06 15 17 18 21 23 26 29
   -273533.32449   -213144.28747         0.00041  20262645.29047  20262643.32949
  -3198679.24648  -2492477.29346         0.00041  21572245.93546  21572242.15448
  -2117252.88649  -1649808.02046         0.00041  21167027.46546  21167025.45549
  -5303445.94649  -4132552.99546         0.00041  21815794.37646  21815792.35349
  -1954737.19948  -1523170.57144         0.00041  24511713.78244  24511707.94748
   1716395.01349   1337449.20747         0.00041  20979077.00547  20979075.03049
  -3378388.01548  -2632507.53246         0.00041  22077494.86346  22077491.14448
  -1926914.66948  -1501491.48345         0.00041  22597656.81845  22597653.90548
 02 07 11 15 37 00.0000000  0  8 06 15 17 18 21 23 26 29
   -263597.33549   -205402.00647         0.00041  20264536.05847  20264534.27149
  -3246096.86348  -2529426.09546         0.00041  21563221.76546  21563219.02448
  -2147164.60749  -1673115.87346         0.00041  21161335.66546  21161333.51249
  -5381158.88449  -4193108.49246         0.00041  21801006.15146  21801003.81649
  -2046014.99748  -1594296.11744         0.00041  24494344.32044  24494338.68048
   1758873.94449   1370549.62247         0.00041  20987160.57847  20987158.91849
  -3419049.46848  -2664191.78346         0.00041  22069757.13946  22069753.33448
  -1943769.15848  -1514624.85546         0.00041  22594449.52446  22594446.56548
 02 07 11 15 37 30.0000000  0  8 06 15 17 18 21 23 26 29
   -253286.97349   -197368.00147         0.00041  20266497.72947  20266496.03749
  -3293443.73548  -2566319.78546         0.00041  21554212.52846  21554209.33448
  -2177024.81949  -1696383.58846         0.00041  21155653.77746  21155650.98949
  -5458610.15649  -4253460.10446         0.00041  21786267.42946  21786265.62649
  -2137226.59548  -1665370.06944         0.00041  24476988.53444  24476982.58948
   1801648.23649   1403880.19247         0.00041  20995299.96447  20995298.43249
  -3459264.23448  -2695527.94946         0.00041  22062104.51646  22062100.86948
  -1960212.52548  -1527437.86046         0.00041  22591320.17146  22591316.99248
 02 07 11 15 38 00.0000000  0  8 06 15 17 18 21 23 26 29
   -242518.42249   -188976.96247         0.00041  20268547.15847  20268545.39849
  -3340636.71648  -2603093.55546         0.00041  21545231.78046  21545229.40248
  -2206750.94549  -1719546.82846         0.00041  21149996.90846  21149994.83749
  -5535715.63649  -4313542.27446         0.00041  21771594.87546  21771592.15349
  -2228287.56248  -1736326.63944         0.00041  24459657.34444  24459652.56448
   1844798.78749   1437503.95047         0.00041  21003511.40947  21003509.80149
  -3498947.08248  -2726449.65846         0.00041  22054553.83046  22054549.35148
  -1976160.56648  -1539864.88246         0.00041  22588286.42646  22588282.44148
 02 07 11 15 38 30.0000000  0  8 06 15 17 18 21 23 26 29
   -231273.51949   -180214.74347         0.00041  20270686.99347  20270685.36249
  -3387658.66148  -2639734.06546         0.00041  21536284.28946  21536281.30848
  -2236325.66249  -1742592.07846         0.00041  21144368.76746  21144367.01149
  -5612456.51349  -4373340.33446         0.00041  21756991.49746  21756989.57449
  -2319179.18148         0.00041         0.00041         0.00041  24442348.07448
   1888341.11249   1471432.98747         0.00041  21011797.47547  21011795.47949
  -3538078.16448  -2756941.40746         0.00041  22047106.68946  22047102.97248
  -1991594.63848  -1551891.41446         0.00041  22585349.00646  22585345.66848
 02 07 11 15 39 00.0000000  0  8 06 15 17 18 21 23 26 29
   -219543.60149   -171074.59147         0.00041  20272919.40247  20272917.54849
  -3434501.33749  -2676234.87346         0.00041  21527370.35346  21527367.82049
  -2265740.83849  -1765513.01946         0.00041  21138771.64846  21138769.04949
  -5688823.12549  -4432846.76146         0.00041  21742459.41446  21742457.59649
  -2409326.92447         0.00041         0.00041         0.00041  24425094.46847
   1932281.30949   1505672.05347         0.00041  21020159.02147  21020156.95149
  -3576647.10848  -2786995.10946         0.00041  22039767.84346  22039763.57548
  -2006505.49048  -1563510.22346         0.00041  22582511.57046  22582508.38848
 02 07 11 15 39 30.0000000  0  7 06 15 17 18 23 26 29
   -207343.69549   -161568.21747         0.00041  20275241.00947  20275239.23249
  -3481180.70649  -2712608.42346         0.00041  21518488.04046  21518484.63649
  -2295012.58549  -1788322.19446         0.00041  21133201.47546  21133199.05549
  -5764829.91849  -4492072.80046         0.00041  21727996.04346  21727993.84549
   1976601.48849   1540207.21346         0.00041  21028592.99846  21028590.69649
  -3614667.50148  -2816621.36446         0.00041  22032532.62446  22032528.67448
  -2020907.86748  -1574732.80546         0.00041  22579770.61446  22579767.32848
 02 07 11 15 40 00.0000000  0  7 06 15 17 18 23 26 29
   -194688.51549   -151707.08847         0.00041  20277648.93447  20277647.31649
  -3527711.95548  -2748866.57046         0.00041  21509632.52546  21509629.38348
  -2324156.24449  -1811031.55746         0.00041  21127655.11246  21127652.88749
  -5840491.17149  -4551029.58046         0.00041  21713598.34146  21713595.41649
   2021284.14949   1575024.82346         0.00041  21037096.07246  21037093.56549
  -3652152.54848  -2845830.49446         0.00041  22025399.91246  22025395.45148
  -2034815.79748  -1585570.10346         0.00041  22577123.88646  22577120.92148
 02 07 11 15 40 30.0000000  0  8 06 15 17 18 21 23 26 29
   -181560.81549   -141477.76547         0.00041  20280147.42347  20280145.59849
  -3574078.60249  -2784996.42246         0.00041  21500809.94346  21500806.92449
  -2353155.40949  -1833628.32746         0.00041  21122137.26946  21122134.15949
  -5915789.00249  -4609703.18246         0.00041  21699268.91546  21699267.01249
        -0.38658         0.61554         0.00051  24373502.96254  24373492.28858
   2066343.86049   1610136.24247         0.00041  21045670.55447  21045668.23649
  -3689083.36248  -2874607.76346         0.00041  22018371.08046  22018367.80748
  -2048211.86448  -1596008.56146         0.00041  22574574.93146  22574572.06648
 02 07 11 15 41 00.0000000  0  8 06 15 17 18 21 23 26 29
   -167926.42149   -130853.60947         0.00041  20282742.00447  20282740.18849
  -3620247.41849  -2820972.16546         0.00041  21492023.67646  21492021.21049
  -2381976.94249  -1856086.68546         0.00041  21116652.36146  21116649.94649
  -5990688.55949  -4668066.45146         0.00041  21685015.80846  21685014.50849
    -90026.16548    -70149.31144         0.00041  24356368.69444  24356358.76548
   2111811.86649   1645565.81647         0.00041  21054322.84747  21054320.66349
  -3725424.43648  -2902925.48246         0.00041  22011455.64646  22011452.58448
  -2061061.66148  -1606021.34146         0.00041  22572129.05846  22572126.88048
 02 07 11 15 41 30.0000000  0  8 06 15 17 18 21 23 26 29
   -153737.17449   -119797.09647         0.00041  20285442.07847  20285440.20949
  -3666170.70549  -2856756.54646         0.00041  21483285.38246  21483282.61949
  -2410573.12449  -1878369.45046         0.00041  21111211.58746  21111209.05949
  -6065140.90749  -4726081.23646         0.00041  21670848.39446  21670846.25349
   -179799.90748   -140102.85144         0.00041  24339282.83144  24339276.57448
   2157733.84149   1681349.13647         0.00041  21063061.55847  21063059.32249
  -3761125.93848  -2930744.80546         0.00041  22004661.76946  22004658.69748
  -2073316.40248  -1615570.44346         0.00041  22569796.72246  22569794.71748
 02 07 11 15 42 00.0000000  0  8 06 15 17 18 21 23 26 29
   -139104.20049   -108394.82147         0.00041  20288226.85247  20288224.87649
  -3711960.23848  -2892436.73246         0.00041  21474571.03846  21474567.85748
  -2439055.91949  -1900563.83946         0.00041  21105791.27646  21105788.87349
  -6139256.34249  -4783833.48246         0.00041  21656744.82846  21656742.59349
   -269431.75948   -209945.79744         0.00041  24322227.85744  24322220.24948
   2203995.99049   1717397.52347         0.00041  21071865.07147  21071862.84749
  -3796297.38848  -2958151.09546         0.00041  21997969.67746  21997965.79148
  -2085086.59048  -1624741.98946         0.00041  22567556.73246  22567554.61348
 02 07 11 15 42 30.0000000  0  8 06 15 17 18 21 23 26 29
   -124042.50049    -96658.47747         0.00041  20291092.92147  20291090.83349
  -3757631.29849  -2928024.58446         0.00041  21465880.29946  21465877.81949
  -2467440.63349  -1922681.82346         0.00041  21100389.95246  21100387.03949
  -6213049.25049  -4841334.41646         0.00041  21642703.00346  21642700.29049
   -358936.18448   -279689.46144         0.00041  24305198.06344  24305189.37548
   2250580.69149   1753697.25047         0.00041  21080729.68747  21080727.33749
  -3830952.09648  -2985154.73446         0.00041  21991374.98046  21991371.28648
  -2096386.79348  -1633547.31246         0.00041  22565407.29346  22565404.26648
 02 07 11 15 43 00.0000000  0  8 06 15 17 18 21 23 26 29
   -108465.53249    -84520.62147         0.00041  20294057.05647  20294055.31549
  -3803098.16849  -2963453.31946         0.00041  21457228.88346  21457225.73049
  -2495641.60649  -1944656.61846         0.00041  21095023.50746  21095020.73649
  -6286432.36749  -4898516.03846         0.00041  21628738.30246  21628735.81349
   -448225.64148   -349265.61744         0.00041  24288203.93544  24288198.10148
   2297571.84449   1790313.69247         0.00041  21089672.04347  21089669.70949
  -3865002.25548  -3011687.29646         0.00041  21984895.37246  21984891.72348
  -2107130.35548  -1641918.87546         0.00041  22563363.25746  22563360.31248
 02 07 11 15 43 30.0000000  0  8 06 15 17 18 21 23 26 29
    -92357.38749    -71968.85947         0.00041  20297122.50547  20297120.60449
  -3848345.42149  -2998710.93046         0.00041  21448618.16046  21448616.15749
  -2523643.54749  -1966476.32946         0.00041  21089694.44446  21089692.52049
  -6359389.25649  -4955365.53446         0.00041  21614853.99046  21614851.87149
   -537283.65048   -418661.40144         0.00041  24271258.74044  24271250.54948
   2344982.64349   1827257.13447         0.00041  21098694.11647  21098691.73449
  -3898430.43048  -3037735.18146         0.00041  21978534.02746  21978530.39448
  -2117300.75648  -1649843.81346         0.00041  22561427.78046  22561425.23348
 02 07 11 15 44 00.0000000  0  8 06 15 17 18 21 23 26 29
    -75822.28649    -59084.40547         0.00041  20300269.12147  20300267.19649
  -3893478.03049  -3033879.19546         0.00041  21440030.15046  21440026.98249
  -2551551.29249  -1988222.64146         0.00041  21084384.06946  21084381.50149
  -6432023.42549  -5011963.55546         0.00041  21601032.66346  21601030.68649
   -626213.74948   -487957.52744         0.00041  24254335.93744  24254327.00148
   2392706.29649   1864444.35647         0.00041  21107775.64647  21107773.15249
  -3931339.36248  -3063378.44846         0.00041  21972270.79546  21972267.62048
  -2127001.90848  -1657403.12746         0.00041  22559580.74946  22559578.35948
 02 07 11 15 44 30.0000000  0  8 06 15 17 18 21 23 26 29
    -58810.25949    -45828.32447         0.00041  20303506.13347  20303504.70049
  -3938446.20749  -3068919.35746         0.00041  21431472.88746  21431470.40049
  -2579315.54349  -2009857.14046         0.00041  21079100.32146  21079097.97249
  -6504284.09749  -5068270.53746         0.00041  21587282.11746  21587280.22949
   -714965.13548   -557114.41244         0.00041  24237447.54344  24237437.61548
   2440790.14349   1901912.24947         0.00041  21116925.58947  21116923.22749
  -3963677.50648  -3088576.95046         0.00041  21966117.93646  21966114.70448
  -2136183.49948  -1664557.58546         0.00041  22557833.87846  22557830.76748
 02 07 11 15 45 00.0000000  0  8 06 15 17 18 21 23 26 29
    -41318.61449    -32198.52047         0.00041  20306834.82847  20306833.09649
  -3983247.83949  -3103829.70546         0.00041  21422947.36846  21422944.38749
  -2606934.15049  -2031378.16046         0.00041  21073844.89646  21073842.40849
  -6576167.92749  -5124283.89346         0.00041  21573603.02846  21573600.84049
   -803534.52048   -626129.44044         0.00041  24220592.58444  24220584.39348
   2489234.10049   1939660.74346         0.00041  21126144.26946  21126141.76149
  -3995440.68048  -3113327.42946         0.00041  21960073.48246  21960070.34348
  -2144842.31648  -1671304.68746         0.00041  22556186.83146  22556183.66148
 02 07 11 15 45 30.0000000  0  8 06 15 17 18 21 23 26 29
    -23343.25849    -18191.79847         0.00041  20310255.71547  20310253.68249
  -4027879.35549  -3138607.51846         0.00041  21414454.12246  21414451.30749
  -2634403.61449  -2052782.96546         0.00041  21068617.69546  21068615.18949
  -6647670.28649  -5179999.99346         0.00041  21559996.63446  21559994.97849
   -891916.37348   -694998.37145         0.00041  24203773.51245  24203766.48848
   2538039.61149   1977690.96846         0.00041  21135431.65346  21135429.37849
  -4026623.26548  -3137625.49746         0.00041  21954139.63146  21954135.89448
  -2152974.13248  -1677641.14246         0.00041  22554639.49746  22554636.39648
 02 07 11 15 46 00.0000000  0  8 06 15 17 18 21 23 26 29
     -4876.40849     -3802.08747         0.00041  20313769.94847  20313767.94049
  -4072333.46549  -3173247.11046         0.00041  21405995.47546  21405992.35749
  -2661716.40249  -2074065.67746         0.00041  21063420.24946  21063417.77849
  -6718782.49149  -5235412.07046         0.00041  21546464.42146  21546462.39149
   -980102.30348   -763714.62344         0.00041  24186991.93144  24186984.50548
   2587212.01349   2016007.08046         0.00041  21144788.73246  21144786.65749
  -4057216.01548  -3161463.94846         0.00041  21948317.69446  21948314.11348
  -2160570.57948  -1683560.44346         0.00041  22553193.53246  22553190.62548
 02 07 11 15 46 30.0000000  0  8 06 15 17 18 21 23 26 29
     14087.90749     10975.26247         0.00041  20317378.42747  20317376.91249
  -4116604.82349  -3207744.27046         0.00041  21397570.04546  21397567.62149
  -2688867.31049  -2095222.26146         0.00041  21058253.85646  21058251.49549
  -6789497.92949  -5290514.97146         0.00041  21533008.76046  21533005.98349
  -1068085.92248   -832273.24544         0.00041  24170249.32444  24170240.88548
   2636754.77449   2054611.78446         0.00041  21154216.35046  21154214.19249
  -4087211.58348  -3184837.05846         0.00041  21942609.24546  21942606.90948
  -2167625.38748  -1689057.70146         0.00041  22551850.90246  22551847.87748
 02 07 11 15 47 00.0000000  0  8 06 15 17 18 21 23 26 29
     33525.01449     26121.01647         0.00041  20321077.32847  20321075.72849
  -4160718.27449  -3242118.41346         0.00041  21389176.46446  21389173.18249
  -2715881.49649  -2116272.30346         0.00041  21053113.37146  21053110.43349
  -6859840.48649  -5345327.31446         0.00041  21519622.22746  21519620.05049
  -1155891.00448   -900692.73744         0.00041  24153541.90744  24153532.47548
   2686640.60049   2093483.81746         0.00041  21163709.16346  21163706.95549
  -4116633.19548  -3207762.93846         0.00041  21937010.92946  21937007.72748
  -2174162.74848  -1694151.74346         0.00041  22550606.95646  22550604.14848
 02 07 11 15 47 30.0000000  0  8 06 15 17 18 21 23 26 29
     53447.61149     41645.07447         0.00041  20324868.61347  20324866.76749
  -4204661.71949  -3276360.07346         0.00041  21380813.65846  21380810.56449
  -2742746.64549  -2137206.21546         0.00041  21048000.98546  21047998.22849
  -6929796.71649  -5399838.64446         0.00041  21506309.41646  21506307.74349
  -1243504.05448   -968962.59044         0.00041  24136868.79344  24136861.14948
   2736879.67749   2132631.10946         0.00041  21173269.95746  21173267.55549
  -4145466.70448  -3230230.56546         0.00041  21931523.84946  21931520.60748
  -2180169.79248  -1698832.55846         0.00041  22549464.42946  22549461.27348
 02 07 11 15 48 00.0000000  0  8 06 15 17 18 21 23 26 29
     73865.22349     57554.85847         0.00041  20328754.05447  20328751.96249
  -4248425.72649  -3310461.92046         0.00041  21372485.54546  21372482.86949
  -2769453.65649  -2158016.89546         0.00041  21042918.76146  21042916.39049
  -6999356.49849  -5454041.03946         0.00041  21493072.82746  21493070.54349
  -1330914.84748  -1037074.87544         0.00041  24120236.10744  24120226.67548
   2787478.83249   2172058.97746         0.00041  21182898.78046  21182896.41049
  -4173701.15648  -3252231.40946         0.00041  21926151.14746  21926147.91848
  -2185636.73348  -1703092.49446         0.00041  22548423.63746  22548420.41748
 02 07 11 15 48 30.0000000  0  8 06 15 17 18 21 23 26 29
     94780.22549     73852.20747         0.00041  20332734.10247  20332732.15449
  -4292008.24549  -3344422.33146         0.00041  21364192.34446  21364189.54549
  -2796000.35249  -2178702.65346         0.00041  21037867.28346  21037864.60949
  -7068516.48949  -5507931.90946         0.00041  21479911.87346  21479909.64449
  -1418119.72248  -1105026.68344         0.00041  24103639.08244  24103629.89848
   2838438.04649   2211767.40947         0.00041  21192596.39447  21192593.61449
  -4201332.60548  -3273762.37046         0.00041  21920893.15346  21920890.12148
  -2190560.38348  -1706929.11746         0.00041  22547486.54746  22547483.16948
 02 07 11 15 49 00.0000000  0  8 06 15 17 18 21 23 26 29
    116171.60749     90520.76947         0.00041  20336804.62347  20336802.73149
  -4335430.76649  -3378258.08346         0.00041  21355928.74246  21355926.20749
  -2822408.27749  -2199280.27546         0.00041  21032842.57046  21032839.63749
  -7137297.20749  -5561527.25046         0.00041  21466823.92946  21466821.28649
  -1505138.95248  -1172833.78944         0.00041  24087081.91344  24087072.23248
   2889733.72449   2251738.02447         0.00041  21202357.66447  21202354.72549
  -4228380.61448  -3294838.72646         0.00041  21915745.92246  21915742.74448
  -2194961.62748  -1710358.66746         0.00041  22546649.00846  22546645.77548
 02 07 11 15 49 30.0000000  0  8 06 15 17 18 21 23 26 29
    138087.44649    107598.01147         0.00041  20340975.09747  20340973.26249
  -4378645.32649  -3411931.76246         0.00041  21347705.96246  21347702.89949
  -2848629.85149  -2219712.69846         0.00041  21027852.65446  21027850.03249
  -7205649.65449  -5614788.87146         0.00041  21453816.67146  21453814.55149
  -1591924.01548  -1240458.45844         0.00041  24070564.64644  24070557.98548
   2941411.66349   2292006.51047         0.00041  21212191.50447  21212188.89149
  -4254795.74548  -3315421.45046         0.00041  21910719.00346  21910715.46348
  -2198791.92948  -1713343.32246         0.00041  22545920.38746  22545917.40048
 02 07 11 15 50 00.0000000  0  8 06 15 17 18 21 23 26 29
    160527.15349    125083.46647         0.00041  20345245.36747  20345243.46549
  -4421653.03149  -3445444.25446         0.00041  21339522.10046  21339518.90549
  -2874665.89049  -2240000.53646         0.00041  21022897.82146  21022894.94849
  -7273573.81849  -5667716.76946         0.00041  21440890.62846  21440888.92749
  -1678474.44448  -1307900.33044         0.00041  24054095.48444  24054087.91948
   2993468.66149   2332570.37247         0.00041  21222097.50247  21222095.15049
  -4280577.19748  -3335510.32946         0.00041  21905813.14746  21905809.64348
  -2202051.95748  -1715883.61746         0.00041  22545299.84246  22545296.46748
 02 07 11 15 50 30.0000000  0  8 06 15 17 18 21 23 26 29
    183377.11549    142888.58647         0.00041  20349593.62847  20349591.49449
  -4464567.67149  -3478884.24246         0.00041  21331355.35046  21331351.65149
  -2900630.38849  -2260232.63446         0.00041  21017956.76946  21017954.28249
  -7341182.31949  -5720398.68446         0.00041  21428025.50346  21428023.39049
  -1764902.61648  -1375246.92744         0.00041  24037651.63044  24037640.70848
   3045788.65649   2373339.16447         0.00041  21232053.81147  21232051.38649
  -4305837.22648  -3355193.47046         0.00041  21901006.90246  21901003.54348
  -2204854.75048  -1718067.63946         0.00041  22544765.69046  22544762.35348
 02 07 11 15 51 00.0000000  0  8 06 15 17 18 21 23 26 29
    206681.82749    161048.04547         0.00041  20354028.34547  20354026.32949
  -4507344.77149  -3512217.05946         0.00041  21323214.43046  21323212.13549
  -2926478.84149  -2280374.30546         0.00041  21013037.96146  21013035.63749
  -7408430.10649  -5772799.52546         0.00041  21415228.69746  21415226.25649
  -1851163.30248  -1442462.99444         0.00041  24021233.83244  24021224.89748
   3098413.72849   2414345.67947         0.00041  21242067.70947  21242065.39749
  -4330529.96548  -3374434.55346         0.00041  21896307.88946  21896304.74748
  -2207155.49248  -1719860.45746         0.00041  22544328.12046  22544325.04548
 02 07 11 15 51 30.0000000  0  8 06 15 17 18 21 23 26 29
    230451.09149    179569.49847         0.00041  20358551.61547  20358549.76849
  -4549975.00649  -3545435.43346         0.00041  21315103.60946  21315099.95349
  -2952201.96049  -2300418.31546         0.00041  21008142.70946  21008140.50549
  -7475306.41849  -5824910.90846         0.00041  21402502.69846  21402500.24349
  -1937245.73948  -1509540.17844         0.00041  24004854.32244  24004844.64248
   3151351.12149   2455595.56247         0.00041  21252141.46147  21252138.95449
  -4354644.15548  -3393224.83246         0.00041  21891718.68546  21891715.46148
  -2208944.00948  -1721254.14946         0.00041  22543987.66946  22543984.85048
 02 07 11 15 52 00.0000000  0  8 06 15 17 18 21 23 26 29
    254728.89849    198487.21447         0.00041  20363171.90747  20363169.48749
  -4592414.57449  -3578505.24346         0.00041  21307026.81946  21307023.70549
  -2977755.89349  -2320330.48646         0.00041  21003280.45146  21003278.01849
  -7541766.73849  -5876698.13446         0.00041  21389855.48246  21389853.47749
  -2023104.46148  -1576442.99844         0.00041  23988513.48944  23988506.34848
   3204642.33149   2497121.14846         0.00041  21262282.67646  21262280.06549
  -4378134.41648  -3411528.92746         0.00041  21887249.34846  21887245.32448
  -2210175.94348  -1722214.12946         0.00041  22543753.86746  22543750.66948
 02 07 11 15 52 30.0000000  0  8 06 15 17 18 21 23 26 29
    279630.46249    217890.97747         0.00041  20367910.39247  20367907.90849
  -4634548.24649  -3611336.68046         0.00041  21299009.02346  21299006.34149
  -3003025.65049  -2340021.22546         0.00041  20998471.84646  20998469.32449
  -7607694.98749  -5928070.76246         0.00041  21377309.18046  21377307.67149
  -2108623.93948  -1643081.51244         0.00041  23972241.07244  23972232.63248
   3258400.26349   2539010.41346         0.00041  21272512.38146  21272510.13349
  -4400884.14148  -3429255.99446         0.00041  21882920.07046  21882916.80648
  -2210735.91448  -1722650.49146         0.00041  22543646.49746  22543644.18748
 02 07 11 15 53 00.0000000  0  8 06 15 17 18 21 23 26 29
    304949.80049    237620.28947         0.00041  20372728.54947  20372726.63749
  -4676582.43349  -3644090.60246         0.00041  21291010.37746  21291007.28049
  -3028217.68149  -2359651.40046         0.00041  20993677.56046  20993675.13349
  -7673296.35049  -5979188.67446         0.00041  21364825.91346  21364824.05249
  -2194010.05348  -1709616.12444         0.00041  23955990.45444  23955984.53748
   3312416.40349   2581100.87846         0.00041  21282791.32946  21282789.01749
  -4423098.19448  -3446565.66646         0.00041  21878693.17246  21878689.43348
  -2210829.53748  -1722723.47546         0.00041  22543629.71846  22543626.21848
 02 07 11 15 53 30.0000000  0  8 06 15 17 18 21 23 26 29
    330732.68349    257710.80347         0.00041  20377634.74747  20377632.72249
  -4718471.55749  -3676731.48546         0.00041  21283039.56446  21283036.30249
  -3053286.27149  -2379185.39146         0.00041  20988907.73546  20988904.83849
  -7738524.34849  -6030015.65446         0.00041  21352413.47446  21352411.77849
  -2279215.03348         0.00041         0.00041         0.00041  23939769.53848
   3366734.15049   2623426.36246         0.00041  21293127.49246  21293125.25749
  -4444729.59248  -3463421.30146         0.00041  21874576.78346  21874572.36248
  -2210411.04748  -1722397.41946         0.00041  22543709.27846  22543706.05448
 02 07 11 15 54 00.0000000  0  8 06 15 17 18 21 23 26 29
    357011.39249    278187.66847         0.00041  20382635.79047  20382633.21649
  -4760183.09349  -3709234.00646         0.00041  21275101.48346  21275099.13949
  -3078199.10049  -2398598.00946         0.00041  20984166.94846  20984164.36149
  -7803345.77449  -6080525.82946         0.00041  21340078.56946  21340076.37449
  -2364205.50848  -1842235.86744         0.00041  23923602.78144  23923596.73348
   3421383.49849   2666010.23146         0.00041  21303526.96646  21303524.65049
  -4465744.30848  -3479796.42046         0.00041  21870577.39646  21870573.50448
  -2209447.47848  -1721646.63146         0.00041  22543891.59946  22543889.44648
 02 07 11 15 54 30.0000000  0  8 06 15 17 18 21 23 26 29
    383777.45849    299044.29047         0.00041  20387729.23347  20387727.19049
  -4801725.64849  -3741604.83846         0.00041  21267196.61346  21267193.45949
  -3102964.88949  -2417896.04846         0.00041  20979454.35146  20979451.59749
  -7867768.69949  -6130725.47946         0.00041  21327819.16346  21327817.00849
  -2448989.30648  -1908301.14744         0.00041  23907471.47244  23907463.99748
   3476353.73349   2708844.14146         0.00041  21313987.56746  21313985.29549
  -4486149.66248  -3495696.71346         0.00041  21866695.49546  21866691.17848
  -2207947.22148  -1720477.65246         0.00041  22544177.50946  22544175.52848
 02 07 11 15 55 00.0000000  0  8 06 15 17 18 21 23 26 29
    411030.56849    320280.42647         0.00041  20392914.98647  20392912.66849
  -4843099.78949  -3773844.44946         0.00041  21259323.41346  21259320.67249
  -3127583.92749  -2437079.73046         0.00041  20974769.29446  20974766.78849
  -7931792.32849  -6180613.98846         0.00041  21315635.79346  21315633.86349
  -2533565.68948  -1974204.76844         0.00041  23891379.20444  23891368.28348
   3531642.29849   2751926.09946         0.00041  21324508.61646  21324506.42449
  -4505944.59148  -3511121.34946         0.00041  21862928.13646  21862923.97548
  -2205910.27248  -1718890.45346         0.00041  22544565.49246  22544562.44848
 02 07 11 15 55 30.0000000  0  8 06 15 17 18 21 23 26 29
    438775.43849    341899.75047         0.00041  20398194.98147  20398192.67949
  -4884300.91249  -3805949.22846         0.00041  21251483.19946  21251480.06849
  -3152051.51849  -2456145.40446         0.00041  20970113.28846  20970110.16149
  -7995410.97449  -6230186.93146         0.00041  21303529.48146  21303527.68149
  -2617929.13048  -2039942.49945         0.00041  23875322.97745  23875315.67848
   3587251.59649   2795257.98346         0.00041  21335091.08846  21335088.73049
  -4525122.96348  -3526065.57046         0.00041  21859278.34546  21859275.05848
  -2203331.61148  -1716881.14346         0.00041  22545055.13146  22545053.62548
 02 07 11 15 56 00.0000000  0  8 06 15 17 18 21 23 26 29
    467014.56949    363904.21747         0.00041  20403568.69847  20403566.48149
  -4925326.33849  -3837917.10646         0.00041  21243675.70246  21243672.96149
  -3176365.39849  -2475091.30446         0.00041  20965486.37846  20965483.68549
  -8058621.63949  -6279441.96346         0.00041  21291500.80846  21291498.65849
  -2702076.23848  -2105511.62545         0.00041  23859311.83045  23859303.39148
   3643181.58649   2838839.75646         0.00041  21345733.81846  21345731.36449
  -4543681.28948  -3540526.63946         0.00041  21855746.46546  21855743.41048
  -2200208.30648  -1714447.44446         0.00041  22545650.69446  22545648.34548
 02 07 11 15 56 30.0000000  0  8 06 15 17 18 21 23 26 29
    495742.74549    386289.74747         0.00041  20409035.71047  20409033.01149
  -4966181.21649  -3869752.08046         0.00041  21235901.81746  21235898.67249
  -3200530.72449  -2493921.45546         0.00041  20960888.29746  20960885.45549
  -8121428.62849  -6328382.43846         0.00041  21279549.11146  21279547.09949
  -2786010.75648  -2170915.08045         0.00041  23843336.95945  23843330.44248
   3699424.76049   2882665.57346         0.00041  21356436.81946  21356434.33049
  -4561623.14048  -3554507.33746         0.00041  21852331.96746  21852328.75748
  -2196545.49748  -1711593.34746         0.00041  22546348.47946  22546345.13348
 02 07 11 15 57 00.0000000  0  8 06 15 17 18 21 23 26 29
    524954.88649    409052.38647         0.00041  20414594.60547  20414592.43149
  -5006870.53149  -3901458.05846         0.00041  21228159.05546  21228155.61549
  -3224552.42949  -2512639.69846         0.00041  20956316.88746  20956314.19949
  -8183836.06449  -6377011.58746         0.00041  21267672.96546  21267671.32249
  -2869736.85148  -2236156.15945         0.00041  23827404.75945  23827397.77648
   3755973.94749   2926729.84546         0.00041  21367198.04246  21367195.31849
  -4578952.53348  -3568010.78346         0.00041  21849034.70446  21849031.11748
  -2192347.89648  -1708322.51746         0.00041  22547146.68146  22547143.45948
 02 07 11 15 57 30.0000000  0  8 06 15 17 18 21 23 26 29
    554652.95149    432193.66447         0.00041  20420245.87447  20420243.65549
  -5047392.43849  -3933033.58146         0.00041  21220447.63846  21220444.69749
  -3248428.79549  -2531244.67846         0.00041  20951773.62646  20951770.93949
  -8245841.51649  -6425327.50346         0.00041  21255873.82946  21255872.34949
  -2953251.65548  -2301232.58945         0.00041  23811512.68845  23811505.24448
   3812828.78249   2971032.27846         0.00041  21378016.80046  21378014.34149
  -4595666.32748  -3581034.55746         0.00041  21845854.39346  21845850.96048
  -2187613.37548  -1704633.32746         0.00041  22548046.85946  22548044.77348
 02 07 11 15 58 00.0000000  0  8 06 15 17 18 21 23 26 29
    584850.36349    455724.05347         0.00041  20425992.48547  20425990.05549
  -5087733.53849  -3964468.23446         0.00041  21212770.51446  21212767.95649
  -3272146.46949  -2549726.00346         0.00041  20947260.29646  20947257.58649
  -8307430.67349  -6473319.03746         0.00041  21244153.63646  21244152.20649
  -3036540.92048  -2366133.25845         0.00041  23795662.02245  23795656.10848
   3870000.46249   3015581.60846         0.00041  21388896.12446  21388893.67849
  -4611749.88048  -3593567.24146         0.00041  21842792.68446  21842790.62448
  -2182328.58548  -1700515.35646         0.00041  22549052.95346  22549050.47648
 02 07 11 15 58 30.0000000  0  8 06 15 17 18 21 23 26 29
    615543.59049    479640.79447         0.00041  20431833.26347  20431830.86049
  -5127897.13649  -3995764.56146         0.00041  21205127.97946  21205125.27449
  -3295708.47949  -2568086.03346         0.00041  20942776.61046  20942773.66649
  -8368606.22549  -6520988.27846         0.00041  21232512.70446  21232510.72249
  -3119607.06948  -2430860.07345         0.00041  23779856.50545  23779850.08348
   3927483.18049   3060373.30246         0.00041  21399835.04846  21399832.04649
  -4627205.35848  -3605610.50046         0.00041  21839852.24246  21839849.47848
  -2176496.51348  -1695970.91946         0.00041  22550163.35946  22550160.29148
 02 07 11 15 59 00.0000000  0  8 06 15 17 18 21 23 26 29
    646716.96149    503931.66747         0.00041  20437765.30947  20437763.11049
  -5167898.74749  -4026934.66846         0.00041  21197516.28046  21197513.05349
  -3319130.63149  -2586337.08246         0.00041  20938319.67746  20938316.63349
  -8429383.04849  -6568346.82046         0.00041  21220947.27346  21220945.19749
  -3202464.90548  -2495424.55445         0.00041  23764090.49645  23764082.30548
   3985259.14249   3105393.50846         0.00041  21410829.69646  21410826.50949
  -4642047.26048  -3617175.64246         0.00041  21837027.95146  21837024.93348
  -2170132.47948  -1691011.97146         0.00041  22551374.89946  22551371.48348
 02 07 11 15 59 30.0000000  0  8 06 15 17 18 21 23 26 29
    678381.95949    528605.62447         0.00041  20443790.85847  20443788.87449
  -5207726.98249  -4057969.67446         0.00041  21189936.92446  21189933.75949
  -3342401.23549  -2604470.04146         0.00041  20933891.00546  20933888.54349
  -8489748.56849  -6615384.86346         0.00041  21209460.56746  21209458.11649
  -3285101.03448  -2559816.28845         0.00041  23748364.16345  23748355.72448
   4043337.60149   3150649.41846         0.00041  21421881.38846  21421878.33649
  -4656262.81248  -3628252.73246         0.00041  21834323.11046  21834319.84848
  -2163224.74148  -1685629.36546         0.00041  22552688.67746  22552685.45548
 02 07 11 16 00 00.0000000  0  8 06 15 17 18 21 23 26 29
    710554.67549    553675.21747         0.00041  20449913.41347  20449911.29549
  -5247365.43049  -4088856.78846         0.00041  21182394.60246  21182391.42049
  -3365504.30849  -2622472.45346         0.00041  20929494.83846  20929492.22449
  -8549686.02749  -6662089.36146         0.00041  21198054.38446  21198052.62349
  -3367499.21748  -2624022.58545         0.00041  23732681.84345  23732675.16748
   4101732.40949   3196151.82546         0.00041  21432994.15246  21432991.25149
  -4669834.78648  -3638828.33746         0.00041  21831740.32446  21831737.45948
  -2155757.38548  -1679810.69046         0.00041  22554109.46146  22554107.22648
 02 07 11 16 00 30.0000000  0  8 06 15 17 18 21 23 26 29
    743225.16149    579132.69247         0.00041  20456130.28847  20456128.35349
  -5286823.80549  -4119603.58746         0.00041  21174885.49146  21174882.63749
  -3388449.27249  -2640351.67046         0.00041  20925128.51246  20925125.76949
  -8609204.56849  -6708467.42446         0.00041  21186728.44146  21186726.38649
  -3449667.87748  -2688050.04545         0.00041  23717046.18645  23717041.12148
   4160431.78349   3241891.55146         0.00041  21444164.13446  21444161.42049
  -4682771.68548  -3648909.06846         0.00041  21829278.90946  21829275.50348
  -2147739.61448  -1673563.11346         0.00041  22555635.49146  22555633.22948
 02 07 11 16 01 00.0000000  0  8 06 15 17 18 21 23 26 29
    776359.56049    604951.65547         0.00041  20462435.64547  20462433.54549
  -5326135.56649  -4150236.13746         0.00041  21167404.89446  21167401.68749
  -3411269.89149  -2658133.99646         0.00041  20920786.00546  20920783.47849
  -8668337.04749  -6754544.66546         0.00041  21175475.74546  21175474.06249
  -3531640.05548  -2751924.39345         0.00041  23701448.58645  23701442.28648
   4219399.62749   3287840.47446         0.00041  21455384.78546  21455382.23149
  -4695106.35548  -3658520.51546         0.00041  21826931.31046  21826927.94048
  -2139205.25248  -1666912.97246         0.00041  22557260.04346  22557257.01848
 02 07 11 16 01 30.0000000  0  8 06 15 17 18 21 23 26 29
    809994.35049    631160.53147         0.00041  20468836.24347  20468834.14249
  -5365264.15549  -4180725.96146         0.00041  21159959.28946  21159956.17249
  -3433929.37149  -2675790.75846         0.00041  20916474.10846  20916471.18649
  -8727046.25849  -6800292.07746         0.00041  21164304.10646  21164301.91549
  -3613377.57448  -2815615.90345         0.00041  23685894.41445  23685887.06648
   4278670.25149   3334025.33646         0.00041  21466663.72046  21466661.30649
  -4706801.09348  -3667633.32546         0.00041  21824705.79246  21824702.59348
  -2130117.74148  -1659831.81746         0.00041  22558989.19546  22558986.10248
 02 07 11 16 02 00.0000000  0  8 06 15 17 18 21 23 26 29
    844124.92649    657755.72647         0.00041  20475331.37047  20475328.96949
  -5404213.95349  -4211076.46146         0.00041  21152546.86646  21152543.66749
  -3456432.36549  -2693325.58846         0.00041  20912191.95946  20912189.22049
  -8785336.07049  -6845712.68646         0.00041  21153211.36346  21153209.89449
  -3694884.34048  -2879127.59045         0.00041  23670382.83545  23670377.79148
   4338236.93749   3380440.89546         0.00041  21477999.00546  21477996.69849
  -4717859.65648  -3676250.41046         0.00041  21822601.45146  21822598.26248
  -2120481.57248  -1652323.16246         0.00041  22560822.76746  22560819.42248
 02 07 11 16 02 30.0000000  0  8 06 15 17 18 21 23 26 29
    878743.23349    684730.97247         0.00041  20481918.73047  20481916.30349
  -5442992.57549  -4241293.58846         0.00041  21145168.00946  21145164.98449
  -3478786.67549  -2710744.54846         0.00041  20907937.74246  20907935.43149
  -8843213.84549  -6890812.23046         0.00041  21142197.22346  21142195.95649
  -3776167.55148  -2942465.08545         0.00041  23654917.10145  23654910.23348
   4398089.34549   3427079.09446         0.00041  21489388.93646  21489386.17449
  -4728288.76748  -3684377.02546         0.00041  21820617.39146  21820614.31448
  -2110304.68248  -1644393.15746         0.00041  22562759.73246  22562756.48648
 02 07 11 16 03 00.0000000  0  8 06 15 17 18 21 23 26 29
    913865.65249    712099.03747         0.00041  20488602.63347  20488600.17549
  -5481583.46149  -4271364.41546         0.00041  21137823.73246  21137820.76849
  -3500975.48349  -2728034.54146         0.00041  20903715.10046  20903712.48949
  -8900662.24249  -6935577.19346         0.00041  21131265.07746  21131263.63649
  -3857209.55648  -3005614.61945         0.00041  23639495.65745  23639488.02448
   4458241.76549   3473951.05946         0.00041  21500835.17446  21500832.04949
  -4738070.98248  -3691999.55946         0.00041  21818755.41146  21818752.08648
  -2099570.34548  -1636028.77646         0.00041  22564802.35546  22564799.16848
 02 07 11 16 03 30.0000000  0  8 06 15 17 18 21 23 26 29
    949471.10749    739843.49047         0.00041  20495378.18647  20495375.65849
  -5520007.48649  -4301305.22346         0.00041  21130512.35146  21130508.91549
  -3523019.39349  -2745211.63346         0.00041  20899521.07846  20899518.01149
  -8957701.42349  -6980023.29646         0.00041  21120410.67246  21120409.32849
  -3938029.98548  -3068591.48645         0.00041  23624115.81345  23624107.62248
   4518671.35449   3521038.99946         0.00041  21512334.73846  21512331.54849
  -4747226.13848  -3699133.47346         0.00041  21817013.70646  21817010.16848
  -2088299.37848  -1627246.24546         0.00041  22566947.04046  22566943.97648
 02 07 11 16 04 00.0000000  0  8 06 15 17 18 21 23 26 29
    985567.14949    767970.21047         0.00041  20502247.05047  20502244.56049
  -5558256.72449  -4331109.83046         0.00041  21123233.93746  21123230.87549
  -3544910.57349  -2762269.71346         0.00041  20895355.31546  20895352.23949
  -9014322.77549  -7024143.81446         0.00041  21109636.47646  21109634.39149
  -4018620.41648  -3131389.15145         0.00041  23608779.39445  23608771.75448
   4579383.53049   3568347.14846         0.00041  21523888.22946  21523885.06349
  -4755745.40848  -3705771.89546         0.00041  21815392.40846  21815389.18448
  -2076484.06448  -1618039.55446         0.00041  22569195.84246  22569191.60848
 02 07 11 16 04 30.0000000  0  8 06 15 17 18 21 23 26 29
   1022140.46049    796468.83947         0.00041  20509206.59747  20509204.39849
  -5596343.77949  -4360788.06346         0.00041  21115985.72546  21115982.32749
  -3566661.95249  -2779218.86146         0.00041  20891216.25846  20891213.19749
  -9070538.79449  -7067948.48046         0.00041  21098938.89446  21098937.24149
  -4098992.71048  -3194016.83245         0.00041  23593483.85045  23593477.93448
   4640363.12049   3615863.67246         0.00041  21535492.13246  21535489.04949
  -4763641.22148  -3711924.50546         0.00041  21813889.97646  21813886.86148
  -2064137.40548  -1608418.81446         0.00041  22571544.97746  22571541.22748
 02 07 11 16 05 00.0000000  0  8 06 15 17 18 21 23 26 29
   1059240.42049    825377.84747         0.00041  20516266.26047  20516263.98949
  -5634219.27849  -4390301.46346         0.00041  21108778.88146  21108775.32649
  -3588224.05149  -2796020.51046         0.00041  20887113.15946  20887110.12449
  -9126299.54449  -7111398.39546         0.00041  21088327.85146  21088326.21449
  -4179096.87248  -3256435.57145         0.00041  23578239.11145  23578235.00348
   4701657.32949   3663625.34646         0.00041  21547156.30046  21547153.13049
  -4770863.07948  -3717551.94946         0.00041  21812516.01146  21812511.93148
  -2051210.08548  -1598345.63446         0.00041  22574005.70546  22574001.62348
 02 07 11 16 05 30.0000000  0  8 06 15 17 18 21 23 26 29
   1096856.25049    854688.82647         0.00041  20523424.73547  20523422.08749
  -5671893.36049  -4419657.90946         0.00041  21101609.91246  21101607.37749
  -3609606.84949  -2812682.45746         0.00041  20883043.95346  20883040.80149
  -9181614.62049  -7154501.04446         0.00041  21077802.08346  21077800.19549
  -4258942.36248  -3318652.74545         0.00041  23563045.51945  23563040.10948
   4763253.54949   3711622.34446         0.00041  21558877.48646  21558874.45949
  -4777420.61148  -3722661.73046         0.00041  21811267.44646  21811264.05548
  -2037712.53748  -1587828.11446         0.00041  22576574.21446  22576570.48148
 02 07 11 16 06 00.0000000  0  8 06 15 17 18 21 23 26 29
   1134896.75849    884330.73147         0.00041  20530663.77747  20530661.05849
  -5709456.64349  -4448927.99646         0.00041  21094461.78446  21094459.17349
  -3630901.21349  -2829275.49346         0.00041  20878991.38346  20878988.78049
  -9236574.41449  -7197326.84946         0.00041  21067343.69146  21067341.68549
  -4338618.75148  -3380738.15445         0.00041  23547885.12045  23547877.79948
   4825058.79249   3759782.22246         0.00041  21570638.88246  21570636.06249
  -4783403.89348  -3727324.04246         0.00041  21810129.25246  21810126.16348
  -2023735.83648  -1576937.23046         0.00041  22579233.58646  22579230.47548
 02 07 11 16 06 30.0000000  0  8 06 15 17 18 21 23 26 29
   1173390.30549    914325.65147         0.00041  20537988.98747  20537986.06849
  -5746880.48449  -4478089.43946         0.00041  21087339.51046  21087336.74649
  -3652078.35849  -2845777.18046         0.00041  20874961.46446  20874959.23949
  -9291149.79349  -7239853.10846         0.00041  21056958.25946  21056956.24149
  -4418097.02748  -3442669.21145         0.00041  23532760.52645  23532754.05448
   4887099.48149   3808125.55946         0.00041  21582444.15546  21582441.53849
  -4788783.52448  -3731515.97246         0.00041  21809105.87846  21809102.67148
  -2009251.50048  -1565650.75746         0.00041  22581989.85546  22581986.74348
 02 07 11 16 07 00.0000000  0  8 06 15 17 18 21 23 26 29
   1212397.99649    944721.19547         0.00041  20545411.65447  20545409.27549
  -5784103.06249  -4507094.04146         0.00041  21080256.84446  21080254.15749
  -3673076.46549  -2862139.35446         0.00041  20870966.38146  20870963.46449
  -9345278.59349  -7282031.36946         0.00041  21046657.90246  21046655.74049
  -4497314.13848  -3504396.76345         0.00041  23517687.48645  23517679.29548
   4949434.82849   3856698.49946         0.00041  21594306.41346  21594303.93249
  -4793497.32648  -3735189.07846         0.00041  21808208.68946  21808204.88848
  -1994198.20348  -1553920.95246         0.00041  22584854.62746  22584851.50548
 02 07 11 16 07 30.0000000  0  8 06 15 17 18 21 23 26 29
   1251905.59349    975506.27847         0.00041  20552929.96847  20552927.55649
  -5821138.23449  -4535952.61446         0.00041  21073209.11046  21073206.23049
  -3693909.48449  -2878372.90046         0.00041  20867001.65046  20866999.02349
  -9398974.17949  -7323872.06746         0.00041  21036439.73546  21036438.14449
  -4576283.38748  -3565931.16045         0.00041  23502658.16245  23502651.69548
   5012048.45649   3905488.27546         0.00041  21606222.53646  21606219.73649
  -4797558.56548  -3738353.70046         0.00041  21807435.66646  21807432.17048
  -1978590.09448  -1541758.81646         0.00041  22587824.44846  22587821.31048
 02 07 11 16 08 00.0000000  0  8 06 15 17 18 21 23 26 29
   1291894.93349   1006666.74447         0.00041  20560539.82247  20560536.93549
  -5858003.76449  -4564679.00746         0.00041  21066193.81046  21066191.00349
  -3714594.87949  -2894491.41046         0.00041  20863065.49446  20863062.32349
  -9452253.80349  -7365388.63746         0.00041  21026300.93146  21026299.30549
  -4655022.04748  -3627285.87145         0.00041  23487674.90245  23487669.18348
   5074920.44149   3954479.37446         0.00041  21618185.97746  21618183.16649
  -4800984.26848  -3741023.10346         0.00041  21806783.94546  21806780.78848
  -1962445.11648  -1529178.32846         0.00041  22590896.98846  22590893.37048
 02 07 11 16 08 30.0000000  0  8 06 15 17 18 21 23 26 29
   1332370.78649   1038206.31247         0.00041  20568242.27247  20568239.43749
  -5894694.27649  -4593269.02046         0.00041  21059211.81546  21059208.77949
  -3735127.44249  -2910490.82546         0.00041  20859158.59646  20859155.45849
  -9505111.98849  -7406576.81746         0.00041  21016241.78046  21016240.46649
  -4733523.95948  -3688456.12745         0.00041  23472735.87745  23472730.05948
   5138053.63749   4003674.01846         0.00041  21630199.93746  21630197.14149
  -4803768.95048  -3743192.99146         0.00041  21806254.35346  21806251.32348
  -1945758.50948  -1516175.81346         0.00041  22594073.25746  22594068.98748
 02 07 11 16 09 00.0000000  0  8 06 15 17 18 21 23 26 29
   1373330.07249   1070122.57447         0.00041  20576036.41247  20576033.78349
  -5931212.26949  -4621724.61946         0.00041  21052262.87546  21052259.75649
  -3755509.42349  -2926372.89246         0.00041  20855279.95146  20855276.89249
  -9557550.81049  -7447438.21646         0.00041  21006263.60046  21006261.91349
  -4811790.75248  -3749443.16645         0.00041  23457845.07545  23457836.13948
   5201443.25049   4053068.47446         0.00041  21642262.37046  21642259.43449
  -4805914.36348  -3744864.75646         0.00041  21805845.63146  21805842.52148
  -1928533.02448  -1502753.39746         0.00041  22597351.19346  22597346.35848
 02 07 11 16 09 30.0000000  0  8 06 15 17 18 21 23 26 29
   1414774.56449   1102416.92847         0.00041  20583923.07647  20583920.74449
  -5967555.27849  -4650043.86046         0.00041  21045346.76946  21045343.96449
  -3775738.69149  -2942135.96646         0.00041  20851430.30446  20851427.31249
  -9609567.64049  -7487970.79846         0.00041  20996365.22946  20996363.85849
  -4889819.31448  -3810244.57945         0.00041  23442996.65545  23442987.22348
   5265089.32249   4102662.77146         0.00041  21654373.71346  21654371.11249
  -4807417.95948  -3746036.40246         0.00041  21805559.26846  21805556.48948
  -1910766.96048  -1488909.74046         0.00041  22600730.70446  22600727.01148
 02 07 11 16 10 00.0000000  0  8 06 15 17 18 21 23 26 29
   1456721.51549   1135102.80347         0.00041  20591905.61247  20591902.91749
  -6003705.20949  -4678212.64346         0.00041  21038467.62146  21038464.44449
  -3795797.11849  -2957765.92246         0.00041  20847613.42846  20847609.98649
  -9661143.97449  -7528160.13546         0.00041  20986550.58546  20986549.02849
  -4967591.33748  -3870846.07745         0.00041  23428196.99245  23428186.56748
   5329007.42149   4152469.03746         0.00041  21666537.25446  21666534.43049
  -4808261.19448  -3746693.49746         0.00041  21805399.31246  21805396.43848
  -1892442.63848  -1474631.09246         0.00041  22604217.54746  22604214.36148
 02 07 11 16 10 30.0000000  0  8 06 15 17 18 21 23 26 29
   1499164.44849   1168175.15547         0.00041  20599982.18047  20599979.20849
  -6039668.05849  -4706235.66246         0.00041  21031624.31146  21031621.15349
  -3815690.58249  -2973267.34846         0.00041  20843827.83346  20843824.44049
  -9712285.49649  -7568010.64846         0.00041  20976818.78646  20976816.55849
  -5045111.72148  -3931251.52245         0.00041  23413442.87545  23413435.71348
   5393189.23449   4202480.79046         0.00041  21678751.11246  21678748.08749
  -4808449.84348  -3746840.51646         0.00041  21805363.00346  21805360.09648
  -1873566.54548  -1459922.46546         0.00041  22607810.73146  22607806.75148
 02 07 11 16 11 00.0000000  0  8 06 15 17 18 21 23 26 29
   1542081.58349   1201617.01047         0.00041  20608149.32647  20608146.37049
  -6075464.78749  -4734129.23346         0.00041  21024812.76146  21024809.71649
  -3835440.21849  -2988656.70346         0.00041  20840069.52546  20840066.56549
  -9763013.36149  -7607538.83046         0.00041  20967165.22846  20967163.55049
  -5122401.55948  -3991477.27145         0.00041  23398736.19345  23398727.75448
   5457611.23449   4252679.70146         0.00041  21691010.45746  21691007.33449
  -4808004.61048  -3746493.59546         0.00041  21805447.63146  21805444.43548
  -1854160.40248  -1444800.82146         0.00041  22611503.61446  22611500.40848
 02 07 11 16 11 30.0000000  0  8 06 15 17 18 21 23 26 29
   1585477.83449   1235432.20447         0.00041  20616407.10447  20616404.38949
  -6111089.73449  -4761888.93846         0.00041  21018033.39446  21018030.29849
  -3855040.46449  -3003929.64546         0.00041  20836339.65746  20836336.93149
  -9813321.75649  -7646740.15746         0.00041  20957592.43946  20957590.53849
  -5199454.48348  -4051518.44945         0.00041  23384073.71845  23384065.03148
   5522276.50049   4303068.17346         0.00041  21703315.55746  21703312.40149
  -4806919.70748  -3745648.22746         0.00041  21805654.09246  21805651.38348
  -1834219.23148  -1429262.28146         0.00041  22615298.21646  22615294.82248
 02 07 11 16 12 00.0000000  0  8 06 15 17 18 21 23 26 29
   1629328.87249   1269601.78747         0.00041  20624751.94247  20624749.26649
  -6146566.49049  -4789533.16446         0.00041  21011282.44046  21011279.37149
  -3874514.67349  -3019104.38346         0.00041  20832633.98246  20832631.26749
  -9863233.79649  -7685632.63746         0.00041  20948093.96546  20948092.30249
  -5276293.30148  -4111392.82145         0.00041  23369451.88545  23369444.50948
   5587159.14449   4353626.02846         0.00041  21715662.58646  21715659.48649
  -4805218.55548  -3744322.65946         0.00041  21805978.42146  21805975.28248
  -1813767.09448  -1413325.55846         0.00041  22619190.18646  22619185.87048
 02 07 11 16 12 30.0000000  0  8 06 15 17 18 21 23 26 29
   1673670.19649   1304153.40947         0.00041  20633189.79247  20633187.21049
  -6181858.77349  -4817033.63946         0.00041  21004565.73646  21004563.42749
  -3893826.52049  -3034152.60346         0.00041  20828958.70246  20828956.21949
  -9912713.19349  -7724187.99346         0.00041  20938678.62246  20938676.85649
  -5352881.40048  -4171071.82245         0.00041  23354876.12045  23354871.13848
   5652293.05549   4404379.67546         0.00041  21728057.13246  21728053.81749
  -4802864.57748  -3742488.38646         0.00041  21806425.77546  21806422.47248
  -1792768.44848  -1396962.99346         0.00041  22623185.54646  22623182.40748
 02 07 11 16 13 00.0000000  0  8 06 15 17 18 21 23 26 29
   1718523.22549   1339103.75947         0.00041  20641725.07347  20641722.17049
  -6216944.46349  -4844373.13446         0.00041  20997889.67546  20997886.62349
  -3912954.11649  -3049057.24646         0.00041  20825319.15246  20825316.63749
  -9961737.57249  -7762388.78846         0.00041  20929349.32646  20929347.79149
  -5429196.20448  -4230537.81945         0.00041  23340354.35445  23340348.52548
   5717697.90949   4455344.45246         0.00041  21740503.31946  21740500.50149
  -4799835.63748  -3740128.16546         0.00041  21807002.05146  21806998.92348
  -1771201.84648  -1380157.86446         0.00041  22627289.30546  22627286.42848
 02 07 11 16 13 30.0000000  0  8 06 15 17 18 21 23 26 29
   1763941.34449   1374494.43347         0.00041  20650367.96447  20650365.09949
  -6251769.42949  -4871509.47046         0.00041  20991262.59846  20991259.63749
  -3931842.89449  -3063775.79446         0.00041  20821724.45546  20821722.18349
 -10010252.53249  -7800192.63146         0.00041  20920117.13846  20920115.62149
  -5505182.53148  -4289747.89245         0.00041  23325894.44445  23325888.13848
   5783425.34649   4506560.58746         0.00041  21753010.13546  21753007.62849
  -4796077.36348  -3737199.64046         0.00041  21807716.93746  21807714.60648
  -1749013.76448  -1362868.44846         0.00041  22631511.77946  22631508.15248
 02 07 11 16 14 00.0000000  0  8 06 15 17 18 21 23 26 29
   1809758.31449   1410195.90447         0.00041  20659086.71247  20659083.60649
  -6286499.09249  -4898571.53446         0.00041  20984653.64946  20984650.46349
  -3950658.43449  -3078437.26746         0.00041  20818144.07146  20818141.64449
 -10058423.55949  -7837728.46446         0.00041  20910950.63646  20910949.01449
  -5581005.56348  -4348830.72645         0.00041  23311464.82045  23311458.51548
   5849307.49549   4557897.28646         0.00041  21765547.49246  21765544.66949
  -4791755.17548  -3733831.69046         0.00041  21808539.93446  21808537.25948
  -1726370.09148  -1345224.05346         0.00041  22635821.05046  22635817.39048
 02 07 11 16 14 30.0000000  0  8 06 15 17 18 21 23 26 29
   1856038.48849   1446258.30846         0.00041  20667893.52346  20667890.41749
  -6321068.09349  -4925508.41846         0.00041  20978075.52946  20978072.32849
  -3969335.42249  -3092990.77046         0.00041  20814590.26546  20814587.63849
 -10106185.16249  -7874945.28646         0.00041  20901861.56246  20901860.24849
  -5656599.46348  -4407735.02145         0.00041  23297079.42245  23297073.99248
   5915407.31449   4609403.59646         0.00041  21778125.65246  21778122.61849
  -4786803.65648  -3729973.35946         0.00041  21809481.03546  21809479.52648
  -1703206.49148  -1327174.52346         0.00041  22640228.59346  22640225.39848
 02 07 11 16 15 00.0000000  0  8 06 15 17 18 21 23 26 29
   1902796.70749   1482693.21846         0.00041  20676791.30846  20676788.60949
  -6355460.45249  -4952307.65246         0.00041  20971531.30446  20971528.24049
  -3987858.16449  -3107424.08946         0.00041  20811065.25746  20811062.25049
 -10153521.68649  -7911830.87246         0.00041  20892854.08246  20892852.27349
  -5731947.89648  -4466448.01845         0.00041  23282741.50045  23282736.03948
   5981737.99449   4661089.79846         0.00041  21790748.49746  21790745.38749
  -4781207.26648  -3725612.54646         0.00041  21810546.15646  21810544.12248
  -1679508.13048  -1308708.28746         0.00041  22644738.84346  22644735.50748
 02 07 11 16 15 30.0000000  0  8 06 15 17 18 21 23 26 29
   1950033.47749   1519501.02546         0.00041  20685780.06546  20685777.24149
  -6389674.96849  -4978968.30746         0.00041  20965020.28046  20965017.11349
  -4006225.10049  -3121735.99646         0.00041  20807570.01446  20807567.05649
 -10200431.54149  -7948383.97746         0.00041  20883927.09946  20883925.69449
  -5807049.04848  -4524968.34145         0.00041  23268450.46445  23268443.99948
   6048298.40349   4712955.00746         0.00041  21803414.22246  21803411.17449
  -4774964.59948  -3720748.12846         0.00041  21811734.49246  21811732.50948
  -1655274.42248  -1289824.89746         0.00041  22649350.47546  22649347.26948
 02 07 11 16 16 00.0000000  0  8 06 15 17 18 21 23 26 29
   1997759.48249   1556690.05246         0.00041  20694862.17946  20694859.28249
  -6423700.10449  -5005481.39646         0.00041  20958545.88046  20958542.84349
  -4024424.52149  -3135917.38046         0.00041  20804107.23446  20804104.03649
 -10246903.05649  -7984595.52646         0.00041  20875084.25346  20875082.85349
  -5881890.60748  -4583286.37445         0.00041  23254207.73445  23254201.60948
   6115097.85249   4765006.48846         0.00041  21816126.07146  21816122.99749
  -4768064.13248  -3715371.14546         0.00041  21813048.15146  21813045.19248
  -1630494.45148  -1270515.83446         0.00041  22654064.77546  22654062.19148
 02 07 11 16 16 30.0000000  0  8 06 15 17 18 21 23 26 29
   2045972.92749   1594258.91146         0.00041  20704037.15246  20704034.14449
  -6457536.77749  -5031847.63846         0.00041  20952106.55446  20952103.38949
  -4042457.50549  -3149969.06946         0.00041  20800675.75846  20800672.60849
 -10292937.18849  -8020466.25446         0.00041  20866324.18046  20866322.61049
  -5956473.38248  -4641402.76945         0.00041  23240016.01945  23240008.38448
   6182132.88049   4817241.54046         0.00041  21828881.96446  21828879.11249
  -4760506.89848  -3709482.38946         0.00041  21814486.04846  21814483.51948
  -1605170.27148  -1250782.70646         0.00041  22658883.86346  22658880.47148
 02 07 11 16 17 00.0000000  0  8 06 15 17 18 21 23 26 29
   2094663.25449   1632199.36546         0.00041  20713302.52246  20713299.49449
  -6491194.50249  -5058074.43646         0.00041  20945701.55046  20945698.51449
  -4060333.52749  -3163898.44546         0.00041  20797274.11446  20797270.94349
 -10338543.71049  -8056003.79146         0.00041  20857645.63946  20857643.73849
  -6030806.80848  -4699324.83745         0.00041  23225871.54345  23225863.35248
   6249391.54749   4869650.85646         0.00041  21841681.00446  21841678.19249
  -4752302.69248  -3703089.50046         0.00041  21816047.06246  21816045.11448
  -1579312.21748  -1230633.60846         0.00041  22663804.70946  22663800.58148
 02 07 11 16 17 30.0000000  0  8 06 15 17 18 21 23 26 29
   2143841.04649   1670519.65346         0.00041  20722660.94346  20722658.06249
  -6524661.81749  -5084152.85746         0.00041  20939332.82646  20939329.40449
  -4078041.23549  -3177696.66546         0.00041  20793904.26946  20793901.21449
 -10383711.06149  -8091199.10746         0.00041  20849050.39646  20849049.02649
  -6104878.77248  -4757043.16645         0.00041  23211775.54245  23211768.18748
   6316882.86449   4922241.45746         0.00041  21854524.38246  21854521.62049
  -4743440.12448  -3696183.59746         0.00041  21817734.07246  21817731.45748
  -1552909.68948  -1210060.22146         0.00041  22668829.36446  22668825.11248
 02 07 11 16 18 00.0000000  0  8 06 15 17 18 21 23 26 29
   2193492.76349   1709209.23246         0.00041  20732109.67346  20732106.58649
  -6557951.31949  -5110092.73046         0.00041  20932998.36346  20932995.28149
  -4095592.90749  -3191373.30446         0.00041  20790564.29346  20790561.44949
 -10428451.71149  -8126061.93046         0.00041  20840536.44646  20840535.45449
  -6178701.15748  -4814567.03845         0.00041  23197727.45645  23197721.08748
   6384591.95149   4975001.74946         0.00041  21867408.88646  21867406.47949
  -4733932.10648  -3688774.74846         0.00041  21819543.43346  21819540.21048
  -1525976.16548  -1189073.06746         0.00041  22673954.36846  22673950.98448
 02 07 11 16 18 30.0000000  0  8 06 15 17 18 21 23 26 29
   2243610.29549   1748261.78546         0.00041  20741646.44846  20741643.28449
  -6591069.89249  -5135899.40046         0.00041  20926696.13446  20926693.07849
  -4112995.49349  -3204933.76446         0.00041  20787252.52346  20787250.14749
 -10472772.47549  -8160597.57746         0.00041  20832102.29646  20832101.10049
  -6252281.06648  -4871901.97745         0.00041  23183725.28845  23183719.89848
   6452509.30349   5027924.32846         0.00041  21880333.41546  21880330.35849
  -4723785.81848  -3680868.56946         0.00041  21821473.90146  21821471.42448
  -1498519.60948  -1167678.35746         0.00041  22679179.41146  22679175.82648
 02 07 11 16 19 00.0000000  0  8 06 15 17 18 21 23 26 29
   2294199.24049   1787681.67846         0.00041  20751273.44246  20751270.48849
  -6624010.90849  -5161567.72446         0.00041  20920427.40546  20920424.24449
  -4130242.52449  -3218373.01346         0.00041  20783970.64846  20783967.95749
 -10516667.43249  -8194801.41946         0.00041  20823749.06146  20823747.88349
  -6325611.69848  -4929042.66545         0.00041  23169771.41345  23169764.48748
   6520638.90249   5081012.29246         0.00041  21893298.01746  21893294.88249
  -4712995.10248  -3672460.22846         0.00041  21823526.91146  21823524.59848
  -1470534.63948  -1145871.89346         0.00041  22684505.13446  22684501.18248
 02 07 11 16 19 30.0000000  0  8 06 15 17 18 21 23 26 29
   2345261.58749   1827470.44846         0.00041  20760990.21146  20760987.18349
  -6656771.35849  -5187095.35146         0.00041  20914193.73846  20914190.39549
  -4147330.72449  -3231688.50646         0.00041  20780719.18146  20780716.25449
 -10560133.34249  -8228670.93746         0.00041  20815477.80146  20815476.36849
  -6398689.45248  -4985986.30245         0.00041  23155864.95345  23155858.96848
   6588981.62248   5134266.32046         0.00041  21906303.03246  21906299.51448
  -4701557.10848  -3663547.51146         0.00041  21825703.93446  21825701.49148
  -1442019.09248  -1123652.00346         0.00041  22689931.22946  22689927.09648
 02 07 11 16 20 00.0000000  0  8 06 15 17 18 21 23 26 29
   2396812.13149   1867639.63446         0.00041  20770800.23446  20770797.07549
  -6689335.16249  -5212469.74646         0.00041  20907996.97646  20907993.65349
  -4164244.12549  -3244867.79846         0.00041  20777500.57446  20777497.43949
 -10603154.26849  -8262193.71346         0.00041  20807291.42746  20807289.84249
  -6471497.67048  -5042719.88446         0.00041  23142009.07046  23142004.06148
   6657550.94149   5187696.91746         0.00041  21919352.06946  21919348.37549
  -4689456.13248  -3654118.20246         0.00041  21828006.61146  21828004.00148
  -1412957.94248  -1101006.96746         0.00041  22695461.41646  22695457.19948
 02 07 11 16 20 30.0000000  0  8 06 15 17 18 21 23 26 29
   2448830.22349   1908173.14346         0.00041  20780698.98946  20780696.01649
  -6721721.72449  -5237706.01946         0.00041  20901833.83946  20901830.57149
  -4181002.12849  -3257925.99346         0.00041  20774311.56246  20774308.42549
 -10645750.21149  -8295385.33746         0.00041  20799185.62246  20799184.36649
  -6544055.99348  -5099258.74546         0.00041  23128202.27746  23128196.98848
   6726324.61949   5241286.74546         0.00041  21932439.02046  21932435.81449
  -4676712.27548  -3644187.93146         0.00041  21830431.99346  21830428.23448
  -1383371.78348  -1077952.83546         0.00041  22701091.16046  22701087.20748
 02 07 11 16 21 00.0000000  0  8 06 15 17 18 21 23 26 29
   2501320.03449   1949074.22746         0.00041  20790687.59946  20790684.62049
  -6753925.91649  -5262800.17946         0.00041  20895705.51946  20895702.36949
  -4197599.40249  -3270858.94246         0.00041  20771152.44246  20771150.29349
 -10687915.73749  -8328241.57146         0.00041  20791162.26746  20791160.60949
  -6616358.37048  -5155598.17546         0.00041  23114444.14846  23114438.19448
   6795305.66949   5295038.16246         0.00041  21945565.64846  21945562.82149
  -4663320.57448  -3633752.85246         0.00041  21832980.88646  21832977.71548
  -1353256.58448  -1054486.44946         0.00041  22706821.85746  22706817.82948
 02 07 11 16 21 30.0000000  0  8 06 15 17 18 21 23 26 29
   2554277.93249   1990340.05046         0.00041  20800765.04146  20800761.85949
  -6785950.11449  -5287754.09246         0.00041  20889611.39246  20889608.12449
  -4214038.30749  -3283668.48046         0.00041  20768024.71946  20768022.43149
 -10729653.51049  -8360764.49146         0.00041  20783219.63946  20783217.90349
  -6688406.69548  -5211739.66145         0.00041  23100734.09745  23100727.50848
   6864489.24849   5348947.39546         0.00041  21958731.02046  21958727.90749
  -4649283.83948  -3622815.15346         0.00041  21835651.43646  21835648.14948
  -1322615.71448  -1030610.45046         0.00041  22712652.98746  22712649.02448
 02 07 11 16 22 00.0000000  0  8 06 15 17 18 21 23 26 29
   2607698.30949   2031966.24446         0.00041  20810930.55146  20810927.16549
  -6817798.59149  -5312571.08046         0.00041  20883551.01146  20883547.98449
  -4230323.01649  -3296357.86846         0.00041  20764926.19946  20764923.26549
 -10770967.99449  -8392957.58346         0.00041  20775358.06046  20775356.02849
  -6760205.14148  -5267686.43945         0.00041  23087068.66845  23087064.21048
   6933868.43649   5403009.05146         0.00041  21971933.37746  21971930.42949
  -4634607.03148  -3611378.69146         0.00041  21838444.43146  21838441.13048
  -1291454.70348  -1006329.15346         0.00041  22718582.77546  22718578.33648
 02 07 11 16 22 30.0000000  0  8 06 15 17 18 21 23 26 29
   2661591.92149   2073961.19446         0.00041  20821186.36046  20821183.24249
  -6849459.37849  -5337241.81646         0.00041  20877525.96446  20877522.84849
  -4246441.72849  -3308917.91046         0.00041  20761859.02146  20761855.91049
 -10811847.72749  -8424811.90446         0.00041  20767578.74246  20767576.69849
  -6831742.11148  -5323429.45645         0.00041  23073456.85245  23073450.89348
   7003452.83649   5457230.61246         0.00041  21985175.49646  21985172.04049
  -4619278.83048  -3599434.65946         0.00041  21841361.85546  21841358.68448
  -1259762.92148   -981634.29146         0.00041  22724613.00146  22724609.01448
 02 07 11 16 23 00.0000000  0  8 06 15 17 18 21 23 26 29
   2715939.24449   2116309.68146         0.00041  20831528.52346  20831525.40949
  -6880950.65949  -5361780.47246         0.00041  20871533.51446  20871530.26149
  -4262412.75749  -3321362.87146         0.00041  20758819.69446  20758816.90349
 -10852311.13749  -8456341.82046         0.00041  20759878.71146  20759876.78549
  -6903035.23148  -5378982.43145         0.00041  23059890.70745  23059884.16648
   7073221.51849   5511595.76446         0.00041  21998451.46146  21998448.03349
  -4603318.15048  -3586997.79046         0.00041  21844398.83646  21844395.49548
  -1227559.88348   -956541.04246         0.00041  22730740.89246  22730737.80248
 02 07 11 16 23 30.0000000  0  7 06 15 17 18 21 23 26
   2770751.34449   2159020.32646         0.00041  20841958.85846  20841955.70149
  -6912260.18449  -5386177.49346         0.00041  20865575.66546  20865572.48049
  -4278223.59949  -3333683.01446         0.00041  20755811.15446  20755808.06649
 -10892346.08449  -8487537.86646         0.00041  20752260.52346  20752258.32249
  -6974072.11748  -5434335.77346         0.00041  23046373.10846  23046366.45748
   7143184.48149   5566112.31346         0.00041  22011765.24946  22011761.80549
  -4586713.28748  -3574058.94746         0.00041  21847558.69646  21847555.35548
 02 07 11 16 24 00.0000000  0  7 06 15 17 18 21 23 26
   2826092.31649   2202143.08346         0.00041  20852490.04146  20852486.88549
  -6943322.54349  -5410381.92046         0.00041  20859664.39546  20859660.94149
  -4293808.90649  -3345827.42546         0.00041  20752845.26746  20752842.17549
 -10931887.45349  -8518349.31446         0.00041  20744735.44646  20744733.86749
  -7044787.11948  -5489438.30546         0.00041  23032916.28846  23032909.39848
   7213404.52249   5620829.18146         0.00041  22025127.75946  22025124.64049
  -4569399.41048  -3560567.64646         0.00041  21850853.47346  21850850.25748
 02 07 11 16 24 30.0000000  0  7 06 15 17 18 21 23 26
   2881872.85049   2245608.35946         0.00041  20863104.90646  20863101.77949
  -6974225.67049  -5434462.27846         0.00041  20853784.03746  20853780.90949
  -4309256.46949  -3357864.49746         0.00041  20749905.83846  20749902.71249
 -10971023.55449  -8548844.96146         0.00041  20737288.29546  20737286.93349
  -7115267.98248  -5544358.38046         0.00041  23019503.76346  23019496.92448
   7283791.31849   5675675.98946         0.00041  22038521.69446  22038518.58449
  -4551465.14248  -3546592.90746         0.00041  21854266.30546  21854262.71848
 02 07 11 16 25 00.0000000  0  7 06 15 17 18 21 23 26
   2938107.43249   2289427.43346         0.00041  20873805.79346  20873802.57749
  -7004953.78649  -5458406.26046         0.00041  20847936.60746  20847933.40749
  -4324550.53149  -3369781.96446         0.00041  20746995.18646  20746992.13949
 -11009738.88049  -8579012.71846         0.00041  20729920.65946  20729920.08749
  -7185498.77648  -5599083.57346         0.00041  23006140.41546  23006132.22448
   7354358.16549   5730663.08846         0.00041  22051950.53346  22051947.42849
  -4532895.57348  -3532123.13246         0.00041  21857799.65346  21857795.92048
 02 07 11 16 25 30.0000000  0  7 06 15 17 18 21 23 26
   2994805.22249   2333607.44846         0.00041  20884595.15046  20884592.04249
  -7035496.25649  -5482205.58046         0.00041  20842124.32446  20842121.15549
  -4339680.16749  -3381571.30746         0.00041  20744116.33246  20744113.19049
 -11048023.46849  -8608844.85046         0.00041  20722635.88846  20722634.48949
  -7255468.43548  -5653605.28546         0.00041  22992824.81246  22992817.16148
   7425113.28349   5785796.88246         0.00041  22065414.60446  22065411.38049
  -4513680.83148  -3517150.61446         0.00041  21861455.54046  21861452.23048
 02 07 11 16 26 00.0000000  0  7 06 15 17 18 21 23 26
   3051975.56449   2378155.69746         0.00041  20895474.43346  20895471.25149
  -7065842.37749  -5505851.90446         0.00041  20836349.96946  20836346.96649
  -4354634.96649  -3393224.42246         0.00041  20741270.46946  20741267.40549
 -11085866.67949  -8638333.05346         0.00041  20715434.29846  20715432.57249
  -7325166.53348  -5707915.42346         0.00041  22979561.94646  22979554.02248
   7496064.81249   5841083.72646         0.00041  22078916.17546  22078912.98649
  -4493811.07548  -3501667.68946         0.00041  21865237.14846  21865233.97848
 02 07 11 16 26 30.0000000  0  7 06 15 17 18 21 23 26
   3109614.68349   2423069.21846         0.00041  20906442.95946  20906439.93249
  -7095994.46949  -5529347.03246         0.00041  20830612.26446  20830609.14049
  -4369417.10249  -3404742.98946         0.00041  20738457.68046  20738454.73649
 -11123271.50549  -8667479.66446         0.00041  20708316.02146  20708314.62749
  -7394595.26548  -5762015.65646         0.00041  22966349.60646  22966342.59048
   7567207.76749   5896519.73446         0.00041  22092454.74646  22092451.37649
  -4473289.52848  -3485676.87346         0.00041  21869143.07446  21869139.04948
 02 07 11 16 27 00.0000000  0  7 06 15 17 18 21 23 26
   3167698.52749   2468329.27546         0.00041  20917495.89446  20917492.72849
  -7125975.22749  -5552708.66246         0.00041  20824906.74646  20824903.68049
  -4384049.31149  -3416144.72946         0.00041  20735673.36446  20735670.39149
 -11160261.10749  -8696302.71646         0.00041  20701277.34346  20701275.89549
  -7463777.01148  -5815923.40146         0.00041  22953184.07246  22953178.19048
   7638517.19249   5952085.45546         0.00041  22106023.83746  22106020.42949
  -4452139.65948  -3469196.46546         0.00041  21873167.61846  21873163.96448
 02 07 11 16 27 30.0000000  0  7 06 15 17 18 21 23 26
   3226262.07049   2513963.12146         0.00041  20928640.40446  20928636.93649
  -7155748.23749  -5575908.40446         0.00041  20819241.37646  20819238.38549
  -4398494.87349  -3427401.03346         0.00041  20732924.51346  20732921.37249
 -11196799.23749  -8724773.97846         0.00041  20694324.01646  20694322.99749
  -7532675.39848  -5869610.36146         0.00041  22940073.41846  22940067.55648
   7710027.27749   6007807.53646         0.00041  22119632.01946  22119629.01949
  -4430325.83948  -3452198.69946         0.00041  21877318.10646  21877314.90948
 02 07 11 16 28 00.0000000  0  7 06 15 17 18 21 23 26
   3285303.96149   2559969.70746         0.00041  20939875.91946  20939872.67049
  -7185313.34949  -5598946.14646         0.00041  20813615.25946  20813612.33549
  -4412753.59849  -3438511.74246         0.00041  20730210.49746  20730208.11349
 -11232886.11249  -8752893.61346         0.00041  20687457.52546  20687456.05449
  -7601290.21348  -5923076.38046         0.00041  22927017.49046  22927010.66448
   7781735.56448   6063684.06646         0.00041  22133277.60046  22133274.38648
  -4407849.07248  -3434684.34246         0.00041  21881595.09746  21881591.94648
 02 07 11 16 28 30.0000000  0  7 06 15 17 18 21 23 26
   3344749.65549   2606290.94046         0.00041  20951187.53246  20951184.30949
  -7214743.55149  -5621878.76446         0.00041  20808014.55446  20808011.36049
  -4426898.49049  -3449533.74646         0.00041  20727519.41946  20727516.39149
 -11268595.49049  -8780719.09246         0.00041  20680662.11146  20680660.56049
  -7669694.02248  -5976377.98046         0.00041  22914000.11546  22913993.62448
   7853566.39948   6119656.08946         0.00041  22146946.57046  22146943.08948
  -4384783.19148  -3416710.92746         0.00041  21885984.79946  21885981.15948
 02 07 11 16 29 00.0000000  0  7 06 15 17 18 21 23 26
   3404646.10249   2652963.41646         0.00041  20962585.88846  20962582.59249
  -7243990.24549  -5644668.38846         0.00041  20802449.27046  20802446.10449
  -4440881.01149  -3460429.23046         0.00041  20724858.34546  20724855.26149
 -11303879.27449  -8808212.94346         0.00041  20673947.90246  20673946.36949
  -7737838.61548  -6029477.56046         0.00041  22901032.60546  22901025.14948
   7925565.81248   6175759.47146         0.00041  22160647.47746  22160644.04148
  -4361080.87748  -3398241.58546         0.00041  21890495.78446  21890491.86648
 02 07 11 16 29 30.0000000  0  7 06 15 17 18 21 23 26
   3465006.21849   2699997.20146         0.00041  20974072.35646  20974068.96149
  -7273039.04049  -5667303.80446         0.00041  20796921.69946  20796918.82549
  -4454686.75649  -3471186.95846         0.00041  20722230.91246  20722228.19849
 -11338723.64549  -8835364.39046         0.00041  20667317.11546  20667315.66749
  -7805709.24348  -6082363.68046         0.00041  22888115.59046  22888110.26548
   7997745.80448   6232003.56346         0.00041  22174383.29646  22174379.87048
  -4336728.87648  -3379265.99646         0.00041  21895129.94346  21895125.13748
 02 07 11 16 30 00.0000000  0  7 06 15 17 18 21 23 26
   3525823.14849   2747386.94346         0.00041  20985645.14446  20985641.69049
  -7301895.00849  -5689788.95946         0.00041  20791430.60746  20791427.58449
  -4468320.78849  -3481810.88646         0.00041  20719636.80946  20719634.19149
 -11373134.20849  -8862177.79746         0.00041  20660768.75046  20660767.69049
  -7873311.44148  -6135040.64146         0.00041  22875252.50446  22875245.60048
   8070098.72949   6288382.40946         0.00041  22188151.86846  22188148.65349
  -4311733.27248  -3359788.91146         0.00041  21899886.25746  21899881.75248
 02 07 11 16 30 30.0000000  0  7 06 15 17 18 21 23 26
   3587102.77449   2795137.21946         0.00041  20997306.23046  20997302.98849
  -7330550.79449  -5712118.13146         0.00041  20785977.30546  20785974.61249
  -4481775.71749  -3492295.25446         0.00041  20717076.52546  20717073.64649
 -11407104.11849  -8888647.83446         0.00041  20654304.69746  20654303.10449
  -7940637.70948  -6187502.60446         0.00041  22862440.48746  22862434.18448
   8142629.50349   6344899.83746         0.00041  22201953.75846  22201950.45749
  -4286087.79748  -3339805.44446         0.00041  21904766.37746  21904761.50948
 02 07 11 16 31 00.0000000  0  7 06 15 17 18 21 23 26
   3648828.28649   2843234.93146         0.00041  21009052.35446  21009049.12049
  -7359021.63649  -5734303.18946         0.00041  20780559.59546  20780556.59649
  -4495066.37049  -3502651.61846         0.00041  20714547.36446  20714544.32749
 -11440649.03549  -8914786.69946         0.00041  20647921.45446  20647919.81949
  -8007703.59548  -6239761.66646         0.00041  22849676.84746  22849672.44248
   8215320.60548   6401542.18946         0.00041  22215787.05446  22215783.27648
  -4259808.87848  -3319328.36246         0.00041  21909766.73746  21909763.01748
 02 07 11 16 31 30.0000000  0  7 06 15 17 18 21 23 26
   3710998.65349   2891679.29346         0.00041  21020883.16746  21020879.75749
  -7387306.81349  -5756343.58046         0.00041  20775177.16146  20775174.03549
  -4508192.28549  -3512879.62146         0.00041  20712049.44346  20712046.91749
 -11473769.08349  -8940594.50346         0.00041  20641618.91946  20641617.34349
  -8074507.76748  -6291816.79146         0.00041  22836965.27246  22836959.87048
   8288170.02448   6458307.90446         0.00041  22229649.70146  22229645.26248
  -4232897.03148  -3298358.09446         0.00041  21914887.66546  21914884.23148
 02 07 11 16 32 00.0000000  0  7 06 15 17 18 21 23 26
   3773616.02949   2940471.97846         0.00041  21032798.92346  21032795.46749
  -7415402.68949  -5778236.46646         0.00041  20769830.68846  20769827.63149
  -4521149.66749  -3522976.28646         0.00041  20709584.10146  20709581.07049
 -11506461.04449  -8966068.73246         0.00041  20635397.76146  20635396.16949
  -8141046.80848  -6343665.31846         0.00041  22824303.96846  22824297.32448
   8361178.92048   6515197.89646         0.00041  22243542.92146  22243538.72248
  -4205349.75148  -3276892.67946         0.00041  21920129.75046  21920126.29648
 02 07 11 16 32 30.0000000  0  7 06 15 17 18 21 23 26
   3836695.73449   2989624.91446         0.00041  21044802.62046  21044799.42149
  -7443291.91349  -5799968.33246         0.00041  20764523.53246  20764520.56049
  -4533921.26749  -3532928.19046         0.00041  20707153.72546  20707150.36649
 -11538708.48449  -8991196.57846         0.00041  20629260.66846  20629259.36349
  -8207303.96748  -6395294.20546         0.00041  22811695.39046  22811688.62648
   8434362.07248   6572223.66346         0.00041  22257468.48946  22257464.47248
  -4177151.24148  -3254919.80846         0.00041  21925496.04146  21925492.84048
 02 07 11 16 33 00.0000000  0  7 06 15 17 18 21 23 26
   3900223.57949   3039127.04446         0.00041  21056891.92846  21056888.33849
  -7470987.19449  -5821549.07946         0.00041  20759253.25546  20759250.15549
  -4546519.73449  -3542745.18146         0.00041  20704756.54046  20704753.44949
 -11570524.60249  -9015988.32546         0.00041  20623206.73346  20623205.27249
  -8273292.04048  -6446713.40946         0.00041  22799137.96446  22799131.48048
   8507704.36148   6629373.44346         0.00041  22271425.64246  22271421.81648
  -4148315.44248  -3232450.37346         0.00041  21930983.69846  21930979.08648
 02 07 11 16 33 30.0000000  0  7 06 15 17 18 21 23 26
   3964180.36649   3088963.41846         0.00041  21069063.13946  21069058.89549
  -7498506.01549  -5842992.32246         0.00041  20754016.72746  20754013.56749
  -4558962.23649  -3552440.63846         0.00041  20702388.59846  20702385.71149
 -11601927.70849  -9040458.24846         0.00041  20617230.71146  20617229.36049
  -8339028.42248  -6497936.46746         0.00041  22786628.05546  22786623.23448
   8581185.97748   6686631.79146         0.00041  22285408.88846  22285404.82948
  -4118860.97448  -3209498.84946         0.00041  21936589.03146  21936584.17848
 02 07 11 16 34 00.0000000  0  7 06 15 17 18 21 23 26
   4028582.12049   3139146.51846         0.00041  21081318.37146  21081314.26849
  -7525830.39549  -5864284.06146         0.00041  20748817.23446  20748814.33049
  -4571230.84149  -3562000.59346         0.00041  20700053.84346  20700050.79349
 -11632900.41449  -9064592.80046         0.00041  20611337.00446  20611335.67849
  -8404495.00248  -6548949.31746         0.00041  22774171.04946  22774165.51448
   8654822.31348   6744010.69546         0.00041  22299421.61646  22299417.98748
  -4088771.36848  -3186052.42246         0.00041  21942314.76246  21942310.04348
 02 07 11 16 34 30.0000000  0  7 06 15 17 18 21 23 26
   4093439.55649   3189684.69346         0.00041  21093660.05546  21093656.25049
  -7552948.00349  -5885414.66846         0.00041  20743656.82546  20743653.63649
  -4583313.12449  -3571415.36146         0.00041  20697754.54746  20697751.74349
 -11663431.05849  -9088382.88647         0.00041  20605527.16147  20605525.87949
  -8469679.34048  -6599742.23246         0.00041  22761766.67846  22761760.74048
   8728623.37948   6801517.96246         0.00041  22313466.13446  22313462.12648
  -4058035.59948  -3162102.48046         0.00041  21948163.01946  21948158.70548
 02 07 11 16 35 00.0000000  0  7 06 15 17 18 21 23 26
   4158742.28149   3240569.85146         0.00041  21106086.48946  21106082.88049
  -7579867.23449  -5906390.69446         0.00041  20738534.20046  20738531.06449
  -4595217.56549  -3580691.55646         0.00041  20695489.36246  20695486.33149
 -11693529.03949  -9111835.83447         0.00041  20599799.62647  20599798.32049
  -8534590.54848  -6650322.31946         0.00041  22749414.39046  22749408.27748
   8802577.94148   6859144.83346         0.00041  22327538.79446  22327535.42548
  -4026663.71748  -3137656.87746         0.00041  21954132.70446  21954129.68248
 02 07 11 16 35 30.0000000  0  7 06 15 17 18 21 23 26
   4224482.26349   3291795.73446         0.00041  21118596.71546  21118593.06349
  -7606594.33949  -5927217.00646         0.00041  20733447.99246  20733444.89149
  -4606950.56449  -3589834.16146         0.00041  20693256.52846  20693253.75549
 -11723201.49449  -9134957.19747         0.00041  20594153.31747  20594152.08849
  -8599234.63948  -6700694.26246         0.00041  22737110.65146  22737106.16848
   8876677.30648   6916884.55046         0.00041  22341639.49546  22341636.17348
  -3994663.53048  -3112721.68346         0.00041  21960222.00546  21960218.77448
 02 07 11 16 36 00.0000000  0  7 06 15 17 18 21 23 26
   4290657.28249   3343360.60046         0.00041  21131189.39146  21131185.72049
  -7633129.75249  -5947893.94546         0.00041  20728398.55546  20728395.78649
  -4618512.08749  -3598843.13846         0.00041  20691056.79546  20691053.66149
 -11752449.25449  -9157747.64646         0.00041  20588587.01746  20588585.68349
  -8663612.51348  -6750858.76346         0.00041  22724859.83546  22724855.08348
   8950918.81648   6974735.00846         0.00041  22355767.20046  22355763.72348
  -3962036.94648  -3087298.38046         0.00041  21966431.20546  21966427.72848
 02 07 11 16 36 30.0000000  0  7 06 15 17 18 21 23 26
   4357266.53549   3395263.82346         0.00041  21143864.84046  21143861.10449
  -7659472.38349  -5968420.65846         0.00041  20723385.78046  20723382.57049
  -4629901.25349  -3607717.81746         0.00041  20688889.60046  20688886.54149
 -11781272.39449  -9180207.22046         0.00041  20583102.84746  20583101.39949
  -8727723.38248  -6800815.18946         0.00041  22712662.12946  22712656.02048
   9025300.91648   7032695.03846         0.00041  22369921.63346  22369917.75748
  -3928784.40848  -3061387.32046         0.00041  21972759.22946  21972755.27248
 02 07 11 16 37 00.0000000  0  7 06 15 17 18 21 23 26
   4424320.14149   3447513.29746         0.00041  21156624.85946  21156621.07249
  -7685610.13149  -5988787.72146         0.00041  20718411.80646  20718408.54049
  -4641105.88449  -3616448.70346         0.00041  20686756.85546  20686754.03649
 -11809659.52849  -9202327.04547         0.00041  20577700.58547  20577699.24449
  -8791555.21848  -6850554.21346         0.00041  22700515.31746  22700509.73048
   9099833.32048   7090772.19046         0.00041  22384104.87446  22384100.47648
  -3894895.30348  -3034980.24546         0.00041  21979207.18446  21979203.74148
 02 07 11 16 37 30.0000000  0  7 06 15 17 18 21 23 26
   4491811.11249   3500103.57446         0.00041  21169467.85946  21169464.41749
  -7711548.06649  -6008999.08446         0.00041  20713476.30246  20713472.93549
  -4652130.79949  -3625039.54946         0.00041  20684659.03646  20684656.32649
 -11837616.65749  -9224111.79247         0.00041  20572380.63547  20572379.62649
  -8855113.58348  -6900080.13546         0.00041  22688419.65146  22688414.39048
   9174508.35148   7148960.47746         0.00041  22398314.67046  22398310.58448
  -3860376.57048  -3008082.55646         0.00041  21985776.36646  21985772.64748
 02 07 11 16 38 00.0000000  0  7 06 15 17 18 21 23 26
   4559735.45049   3553031.54046         0.00041  21182393.58546  21182390.16449
  -7737288.27049  -6029056.37046         0.00041  20708577.90446  20708575.05849
  -4662978.25949  -3633492.12446         0.00041  20682595.10146  20682591.93249
 -11865146.66749  -9245563.71947         0.00041  20567141.64047  20567140.19049
  -8918400.18148  -6949394.26646         0.00041  22676377.24046  22676370.79848
   9249321.46648   7207256.35546         0.00041  22412551.06646  22412547.76848
  -3825231.74248  -2980697.01446         0.00041  21992463.95346  21992460.47648
 02 07 11 16 38 30.0000000  0  7 06 15 17 18 21 23 26
   4628086.12649   3606291.71446         0.00041  21195400.62646  21195396.95849
  -7762835.99949  -6048963.68746         0.00041  20703716.26346  20703713.17049
  -4673653.26749  -3641810.32246         0.00041  20680563.44646  20680560.31349
 -11892255.48149  -9266687.45946         0.00041  20561983.18846  20561981.45349
  -8981420.74048  -6998501.10246         0.00041  22664384.22946  22664378.96548
   9324265.07948   7265653.92446         0.00041  22426811.75646  22426809.37148
  -3789467.71648  -2952828.97746         0.00041  21999270.38746  21999266.87648
 02 07 11 16 39 00.0000000  0  7 06 15 17 18 21 23 26
   4696868.99249   3659888.66646         0.00041  21208489.93546  21208486.07649
  -7788183.20349  -6068714.75146         0.00041  20698892.74646  20698890.11249
  -4684147.94249  -3649987.99446         0.00041  20678566.39246  20678563.42949
 -11918936.15049  -9287477.58347         0.00041  20556906.07347  20556904.10349
  -9044167.84748  -7047394.86746         0.00041  22652443.98446  22652439.24748
   9399344.71948   7324157.48246         0.00041  22441100.11146  22441096.99648
  -3753078.33448  -2924473.64046         0.00041  22006194.84246  22006191.66648
 02 07 11 16 39 30.0000000  0  7 06 15 17 18 21 23 26
   4766069.43449   3713810.99746         0.00041  21221658.05046  21221654.64549
  -7813342.43949  -6088319.33646         0.00041  20694105.32046  20694102.27649
  -4694474.71249  -3658034.83246         0.00041  20676601.39246  20676598.58549
 -11945202.33349  -9307944.72947         0.00041  20551907.65947  20551906.30949
  -9106654.42548  -7096085.62546         0.00041  22640552.95646  22640547.67248
   9474545.25548   7382755.23646         0.00041  22455410.71146  22455406.94048
  -3716077.97948  -2895642.21146         0.00041  22013235.71946  22013231.54848
 02 07 11 16 40 00.0000000  0  7 06 15 17 18 21 23 26
   4835700.26449   3768068.69046         0.00041  21234908.36446  21234904.84049
  -7838299.29149  -6107766.22746         0.00041  20689356.02746  20689352.85649
  -4704618.72449  -3665939.25946         0.00041  20674671.25046  20674668.16449
 -11971039.90149  -9328077.88547         0.00041  20546991.30247  20546989.88549
  -9168865.43248  -7144561.64646         0.00041  22628713.81446  22628709.14248
   9549878.95648   7441456.78446         0.00041  22469745.81446  22469742.01748
  -3678453.51448  -2866324.47446         0.00041  22020395.62546  22020391.60048
 02 07 11 16 40 30.0000000  0  7 06 15 17 18 21 23 26
   4905775.67649   3822672.81246         0.00041  21248243.47746  21248239.95749
  -7863037.36449  -6127042.64646         0.00041  20684648.89046  20684645.67449
  -4714563.60349  -3673688.51946         0.00041  20672778.77946  20672775.67149
 -11996433.57549  -9347865.15147         0.00041  20542158.59447  20542157.18249
  -9230785.11248  -7192810.66846         0.00041  22616930.64046  22616926.95048
   9625359.55348   7500272.79846         0.00041  22484109.88246  22484105.11148
  -3640190.57548  -2836509.22946         0.00041  22027677.47546  22027672.50948
 02 07 11 16 41 00.0000000  0  7 06 15 17 18 21 23 26
   4976274.91649   3877607.18946         0.00041  21261659.02946  21261655.44849
  -7887575.04149  -6146162.90146         0.00041  20679979.18146  20679976.05849
  -4724327.88549  -3681297.05146         0.00041  20670920.11746  20670917.80149
 -12021403.10849  -9367321.92747         0.00041  20537406.97547  20537405.36549
  -9292432.19348  -7240847.27146         0.00041  22605200.13146  22605195.67748
   9700966.05948   7559186.91846         0.00041  22498496.84946  22498492.46048
  -3601309.56248  -2806212.37246         0.00041  22035076.49346  22035071.71448
 02 07 11 16 41 30.0000000  0  7 06 15 17 18 21 23 26
   5047193.36749   3932868.22546         0.00041  21275154.37246  21275150.75949
  -7911914.86349  -6165128.98546         0.00041  20675347.28746  20675344.25549
  -4733914.18049  -3688766.88846         0.00041  20669096.39946  20669093.47449
 -12045952.15549  -9386451.05147         0.00041  20532735.79247  20532734.03549
  -9353810.53848  -7288674.47246         0.00041  22593520.84646  22593514.93148
   9776693.35748   7618195.14846         0.00041  22512907.27146  22512904.15848
  -3561815.12848  -2775437.53246         0.00041  22042591.40446  22042587.90848
 02 07 11 16 42 00.0000000  0  7 06 15 17 18 21 23 26
   5118535.35549   3988459.29246         0.00041  21288730.28546  21288726.28649
  -7936050.62049  -6183936.09446         0.00041  20670754.78846  20670751.61049
  -4743316.23949  -3696093.17846         0.00041  20667307.29946  20667304.23849
 -12070075.35149  -9405248.32547         0.00041  20528145.37347  20528143.99049
  -9414913.53148  -7336287.09946         0.00041  22581893.63546  22581887.20348
   9852545.27648   7677300.47746         0.00041  22527340.56346  22527337.73648
  -3521702.70048  -2744181.12246         0.00041  22050225.28346  22050221.07748
 02 07 11 16 42 30.0000000  0  7 06 15 17 18 21 23 26
   5190297.67749   4044377.88446         0.00041  21302386.48446  21302382.20349
  -7959983.26949  -6202584.89146         0.00041  20666200.22446  20666197.66549
  -4752534.78249  -3703276.47846         0.00041  20665552.54546  20665550.03749
 -12093774.77549  -9423715.41047         0.00041  20523635.74647  20523633.95149
  -9475742.75348  -7383686.38846         0.00041  22570317.27346  22570311.88148
   9928518.36648   7736500.22746         0.00041  22541797.98946  22541794.67948
  -3480975.31148  -2712445.52746         0.00041  22057975.04346  22057970.92448
 02 07 11 16 43 00.0000000  0  7 06 15 17 18 21 23 26
   5262467.08749   4100613.69846         0.00041  21316119.87446  21316116.11649
  -7983723.85749  -6221084.05046         0.00041  20661682.70146  20661679.79949
  -4761580.97249  -3710325.47846         0.00041  20663831.26846  20663828.23549
 -12117062.63449  -9441861.78747         0.00041  20519203.79047  20519202.70149
  -9536309.55948  -7430881.19746         0.00041  22558791.94946  22558786.01148
  10004599.19148   7795783.92546         0.00041  22556276.49846  22556272.38948
  -3439645.94148  -2680240.86146         0.00041  22065839.24346  22065835.44048
 02 07 11 16 43 30.0000000  0  7 06 15 17 18 21 23 26
   5335057.83349   4157177.83246         0.00041  21329933.47946  21329929.90149
  -8007256.27049  -6239420.99946         0.00041  20657204.81646  20657201.77949
  -4770438.24649  -3717227.26746         0.00041  20662145.84846  20662143.35949
 -12139923.41449  -9459675.38047         0.00041  20514853.30647  20514851.96449
  -9596597.98048  -7477859.11246         0.00041  22547318.78946  22547313.38348
  10080801.65448   7855162.41246         0.00041  22570777.08546  22570773.35448
  -3397700.18648  -2647555.88046         0.00041  22073820.61346  22073817.45848
 02 07 11 16 44 00.0000000  0  7 06 15 17 18 21 23 26
   5408066.00849   4214067.22246         0.00041  21343826.70746  21343822.75349
  -8030582.11849  -6257596.99646         0.00041  20652765.86746  20652763.01649
  -4779108.18449  -3723983.07046         0.00041  20660496.41846  20660493.80649
 -12162359.89449  -9477158.35047         0.00041  20510584.19047  20510582.75349
  -9656610.21048  -7524621.81846         0.00041  22535898.79346  22535893.98248
  10157121.59148   7914632.43946         0.00041  22585300.39046  22585297.29648
  -3355141.93948  -2614393.63846         0.00041  22081919.13846  22081916.44648
 02 07 11 16 44 30.0000000  0  7 06 15 17 18 21 23 26
   5481492.80249   4271282.81046         0.00041  21357799.37346  21357795.47649
  -8053697.93949  -6275609.32946         0.00041  20648367.09646  20648364.22549
  -4787587.49349  -3730590.33846         0.00041  20658882.69146  20658879.73649
 -12184369.80649  -9494308.92247         0.00041  20506395.34547  20506393.77849
  -9716343.02748  -7571166.77546         0.00041  22524533.11946  22524526.51148
  10233559.99448   7974194.77746         0.00041  22599846.67146  22599843.17548
  -3311969.82248  -2580753.06146         0.00041  22090135.31046  22090131.86948
 02 07 11 16 45 00.0000000  0  7 06 15 17 18 21 23 26
   5555326.63549   4328815.56346         0.00041  21371850.10946  21371845.91349
  -8076613.17249  -6293465.35946         0.00041  20644006.34446  20644003.61149
  -4795885.38049  -3737056.22846         0.00041  20657303.81446  20657300.85449
 -12205963.77649  -9511135.38047         0.00041  20502286.42347  20502285.20849
  -9775806.78448  -7617502.08846         0.00041  22513216.33546  22513210.44948
  10310104.95548   8033840.15046         0.00041  22614412.79446  22614408.77748
  -3268195.25448  -2546643.04346         0.00041  22098465.91246  22098461.47748
 02 07 11 16 45 30.0000000  0  7 06 15 17 18 21 23 26
   5629572.32549   4386669.25046         0.00041  21385977.85246  21385974.06249
  -8099320.64449  -6311159.50146         0.00041  20639685.45346  20639682.48549
  -4803994.84449  -3743375.29746         0.00041  20655760.55946  20655757.35249
 -12227135.83749  -9527633.07547         0.00041  20498257.42147  20498256.12849
  -9834994.41748  -7663622.23346         0.00041  22501953.62046  22501948.09748
  10386761.16548   8093572.20146         0.00041  22628999.03246  22628995.49448
  -3223813.37048  -2512059.79446         0.00041  22106910.40246  22106907.19948
 02 07 11 16 46 00.0000000  0  7 06 15 17 18 21 23 26
   5704231.75849   4444845.33946         0.00041  21400185.10546  21400181.47649
  -8121816.00249  -6328688.35646         0.00041  20635404.49746  20635401.36149
  -4811911.28949  -3749543.96446         0.00041  20654254.35746  20654251.22349
 -12247882.76849  -9543799.50247         0.00041  20494309.75447  20494308.47949
  -9893902.35148  -7709524.42646         0.00041  22490743.43546  22490738.95848
  10463530.53548   8153392.44146         0.00041  22643609.06646  22643604.84848
  -3178821.98448  -2477001.62146         0.00041  22115471.67346  22115469.58848
 02 07 11 16 46 30.0000000  0  7 06 15 17 18 21 23 26
   5779290.73549   4503332.75246         0.00041  21414468.99146  21414464.82949
  -8144111.37449  -6346061.38046         0.00041  20631162.12246  20631158.99349
  -4819646.70549  -3755571.56446         0.00041  20652782.38146  20652779.26949
 -12268217.78549  -9559644.95747         0.00041  20490440.11747  20490438.46549
  -9952542.98548  -7755218.35146         0.00041  22479584.41246  22479580.15848
  10540398.49948   8213289.49046         0.00041  22658236.28646  22658232.80648
  -3133235.32248  -2441479.60546         0.00041  22124145.99446  22124144.09848
 02 07 11 16 47 00.0000000  0  7 06 15 17 18 21 23 26
   5854743.26449   4562126.82546         0.00041  21428827.58646  21428822.77149
  -8166210.62149  -6363281.58546         0.00041  20626956.72546  20626953.91649
  -4827204.88249  -3761461.05346         0.00041  20651344.06146  20651341.01649
 -12288145.93749  -9575173.37447         0.00041  20486647.79347  20486646.41149
 -10010920.57948  -7800707.32346         0.00041  22468475.75946  22468471.04948
  10617358.77948   8273258.47946         0.00041  22672881.18146  22672877.60448
  -3087059.46548  -2405498.45746         0.00041  22132933.66846  22132930.62048
 02 07 11 16 47 30.0000000  0  7 06 15 17 18 21 23 26
   5930588.56449   4621226.96046         0.00041  21443260.25346  21443255.72449
  -8188111.84749  -6380347.49146         0.00041  20622788.97946  20622786.03549
  -4834584.22549  -3767211.19846         0.00041  20649939.64246  20649937.01449
 -12307666.82449  -9590384.44247         0.00041  20482932.93447  20482931.57749
 -10069034.27348  -7845990.64246         0.00041  22457416.65346  22457411.83448
  10694410.50548   8333298.71546         0.00041  22687543.59246  22687540.48548
  -3040295.00048  -2369058.65346         0.00041  22141832.68246  22141829.53248
 02 07 11 16 48 00.0000000  0  7 06 15 17 18 21 23 26
   6006852.04649   4680652.94446         0.00041  21457772.95946  21457768.65949
  -8209787.41149  -6397237.55046         0.00041  20618664.39146  20618661.19049
  -4841756.74349  -3772800.18146         0.00041  20648575.00146  20648571.78649
 -12326754.17549  -9605257.68347         0.00041  20479300.69547  20479299.57149
 -10126856.98748  -7891047.22146         0.00041  22446413.31246  22446408.91948
  10771579.00948   8393429.96746         0.00041  22702227.81546  22702224.32848
  -2992916.43848  -2332140.33346         0.00041  22150849.37046  22150845.28648
 02 07 11 16 48 30.0000000  0  7 06 15 17 18 21 23 26
   6083531.57949   4740403.11946         0.00041  21472364.58546  21472360.29149
  -8231237.25649  -6413951.72346         0.00041  20614582.63346  20614579.57149
  -4848722.42049  -3778227.99246         0.00041  20647248.94146  20647246.12449
 -12345408.69149  -9619793.64847         0.00041  20475750.74247  20475749.60049
 -10184388.74948  -7935877.11046         0.00041  22435465.51446  22435460.64448
  10848862.29548   8453650.64746         0.00041  22716935.24746  22716930.74648
  -2944925.94748  -2294745.18646         0.00041  22159981.98646  22159978.78248
 02 07 11 16 49 00.0000000  0  7 06 15 17 18 21 23 26
   6160596.97449   4800453.96746         0.00041  21487029.79146  21487025.58649
  -8252489.03749  -6430511.55446         0.00041  20610538.65746  20610535.50249
  -4855508.84549  -3783516.12046         0.00041  20645957.29246  20645954.80049
 -12363659.37049  -9634014.93047         0.00041  20472277.81047  20472276.74149
 -10241658.03048  -7980502.47446         0.00041  22424567.24346  22424562.64448
  10926230.06848   8513937.19546         0.00041  22731658.03146  22731653.97048
  -2896353.53848  -2256896.61046         0.00041  22169225.32346  22169221.93348
 02 07 11 16 49 30.0000000  0  7 06 15 17 18 21 23 26
   6238064.63949   4860818.28546         0.00041  21501771.27746  21501767.37949
  -8273523.79249  -6446902.27346         0.00041  20606536.03546  20606532.87849
  -4862096.84049  -3788649.63146         0.00041  20644704.01446  20644700.81649
 -12381488.78349  -9647907.95447         0.00041  20468885.31047  20468884.06949
 -10298646.42848  -8024908.93946         0.00041  22413723.17246  22413718.02248
  11003698.77548   8574302.30146         0.00041  22746400.26546  22746395.60048
  -2847182.71148  -2218581.72046         0.00041  22178581.34246  22178577.77048
 02 07 11 16 50 00.0000000  0  7 06 15 17 18 21 23 26
   6315933.75049   4921495.40446         0.00041  21516589.70746  21516585.10449
  -8294340.00649  -6463122.69946         0.00041  20602574.70246  20602571.77549
  -4868485.06649  -3793627.48346         0.00041  20643488.77146  20643485.70549
 -12398896.64049  -9661472.49647         0.00041  20465572.50847  20465571.25749
 -10355353.37248  -8069096.10046         0.00041  22402932.07846  22402926.88448
  11081267.56948   8634745.47546         0.00041  22761160.84446  22761156.64048
  -2797414.41648  -2179801.28846         0.00041  22188051.89746  22188048.91348
 02 07 11 16 50 30.0000000  0  7 06 15 17 18 21 23 26
   6394197.71049   4982480.20846         0.00041  21531482.63046  21531478.38949
  -8314942.00249  -6479176.20846         0.00041  20598654.22846  20598651.18449
  -4874677.63449  -3798452.86946         0.00041  20642309.61446  20642307.19549
 -12415888.81549  -9674713.14247         0.00041  20462338.59047  20462337.43549
 -10411783.40048  -8113067.48946         0.00041  22392193.67646  22392188.75648
  11158929.74348   8695261.40146         0.00041  22775940.05446  22775935.40148
  -2747055.29848  -2140560.45746         0.00041  22197635.34146  22197632.11448
 02 07 11 16 51 00.0000000  0  7 06 15 17 18 21 23 26
   6472841.02849   5043760.60946         0.00041  21546447.58646  21546444.31249
  -8335342.93449  -6495073.05146         0.00041  20594772.24546  20594769.17249
  -4880687.44149  -3803135.84846         0.00041  20641166.47146  20641163.57349
 -12432479.32749  -9687640.81147         0.00041  20459181.76247  20459180.32049
 -10467949.94148  -8156833.57546         0.00041  22381505.45946  22381501.30948
  11236669.81848   8755838.03246         0.00041  22790733.61046  22790728.89948
  -2696120.87148  -2100871.33246         0.00041  22207327.35446  22207324.51748
 02 07 11 16 51 30.0000000  0  7 06 15 17 18 21 23 26
   6551876.84949   5105346.86046         0.00041  21561487.60646  21561484.07549
  -8355526.96749  -6510800.88346         0.00041  20590930.99446  20590927.82249
  -4886498.86849  -3807664.25246         0.00041  20640060.83246  20640057.64449
 -12448654.02749  -9700244.46747         0.00041  20456104.06647  20456102.51049
 -10523838.23648  -8200382.84146         0.00041  22370869.68146  22370865.77148
  11314501.07048   8816485.69546         0.00041  22805543.47746  22805539.90748
  -2644597.72248  -2060723.48246         0.00041  22217132.50546  22217129.41848
 02 07 11 16 52 00.0000000  0  7 06 15 17 18 21 23 26
   6631297.16849   5167232.72746         0.00041  21576601.04946  21576597.83249
  -8375499.51549  -6526363.92346         0.00041  20587130.21646  20587127.49449
  -4892117.24049  -3812042.21646         0.00041  20638991.54446  20638988.51349
 -12464419.60049  -9712529.32247         0.00041  20453103.83647  20453102.53649
 -10579454.50848  -8243720.15046         0.00041  22360285.97346  22360281.46848
  11392415.60348   8877198.25846         0.00041  22820370.39746  22820366.15048
  -2592494.18548  -2020123.37646         0.00041  22227047.34246  22227043.34648
 02 07 11 16 52 30.0000000  0  7 06 15 17 18 21 23 26
   6711097.17149   5229414.44846         0.00041  21591786.95346  21591783.05649
  -8395262.85149  -6541763.93146         0.00041  20583369.71646  20583366.90849
  -4897544.79749  -3816271.49546         0.00041  20637958.68346  20637955.91549
 -12479779.83349  -9724498.31847         0.00041  20450180.65047  20450179.73249
 -10634801.70548  -8286847.78746         0.00041  22349754.40146  22349749.06348
  11470408.74248   8937972.05946         0.00041  22835211.71246  22835207.56448
  -2539814.92548  -1979074.65146         0.00041  22237071.79146  22237068.47748
 02 07 11 16 53 00.0000000  0  8 03 06 15 17 18 21 23 26
        -0.70258        -0.05254         0.00051  24143051.99454  24143048.82158
   6791293.39049   5291904.90446         0.00041  21607048.43746  21607043.64049
  -8414798.11449  -6556986.23146         0.00041  20579651.92746  20579648.85549
  -4902762.47949  -3820337.23946         0.00041  20636966.11546  20636963.14749
 -12494717.16049  -9736137.77847         0.00041  20447337.96947  20447337.10249
 -10689861.43748  -8329751.41446         0.00041  22339277.44446  22339271.09648
  11548497.13448   8998820.10146         0.00041  22850071.20446  22850067.58248
  -2486543.52248  -1937564.52346         0.00041  22247208.71646  22247205.54248
 02 07 11 16 53 30.0000000  0  8 03 06 15 17 18 21 23 26
    -96680.25548    -75334.73944         0.00041  24124656.98944  24124651.09448
   6871880.42848   5354699.88646         0.00041  21622383.47346  21622379.04148
  -8434108.18749  -6572033.04746         0.00041  20575977.69146  20575975.10749
  -4907773.29249  -3824241.78846         0.00041  20636012.45546  20636009.51249
 -12509236.16049  -9747451.27547         0.00041  20444575.18447  20444574.10149
 -10744637.06448  -8372433.67346         0.00041  22328853.40546  22328847.54748
  11626675.36648   9059738.15346         0.00041  22864948.23946  22864944.97448
  -2432685.53348  -1895597.29546         0.00041  22257457.74046  22257454.47348
 02 07 11 16 54 00.0000000  0  8 03 06 15 17 18 21 23 26
   -193171.95748   -150523.01744         0.00041  24106293.09144  24106287.76748
   6952845.37748   5417789.33846         0.00041  21637790.02546  21637786.15748
  -8453203.45049  -6586912.47146         0.00041  20572343.77546  20572340.55949
  -4912587.15049  -3827992.86146         0.00041  20635096.25446  20635093.29449
 -12523348.24649  -9758447.70947         0.00041  20441890.17847  20441888.56749
 -10799139.89948  -8414903.35746         0.00041  22318481.69146  22318476.47448
  11704930.80748   9120716.36246         0.00041  22879840.37646  22879836.88948
  -2378253.84148  -1853183.02146         0.00041  22267816.49846  22267812.05548
 02 07 11 16 54 30.0000000  0  8 03 06 15 17 18 21 23 26
   -289479.12148   -225567.50944         0.00041  24087968.07044  24087961.17648
   7034180.62748   5481167.34446         0.00041  21653268.38546  21653263.88148
  -8472088.70549  -6601628.25046         0.00041  20568750.29546  20568747.22349
  -4917209.08749  -3831594.37746         0.00041  20634216.78946  20634213.60649
 -12537059.79549  -9769132.04447         0.00041  20439281.06447  20439279.71249
 -10853375.94348  -8457165.14546         0.00041  22308160.53646  22308156.13948
  11783256.06748   9181748.97846         0.00041  22894744.52346  22894741.60148
  -2323255.98348  -1810327.59246         0.00041  22278282.30846  22278278.37348
 02 07 11 16 55 00.0000000  0  8 03 06 15 17 18 21 23 26
   -385583.62148   -300454.08744         0.00041  24069678.93644  24069673.92548
   7115899.81748   5544844.53846         0.00041  21668818.94546  21668814.27348
  -8490747.78749  -6616167.80347         0.00041  20565199.72947  20565196.73349
  -4921622.89649  -3835033.72346         0.00041  20633376.86646  20633373.95549
 -12550356.18949  -9779492.88247         0.00041  20436750.79147  20436749.52449
 -10907329.61748  -8499206.90546         0.00041  22297893.52646  22297889.06248
  11861664.91948   9242846.72846         0.00041  22909665.80846  22909661.86548
  -2267678.46248  -1767020.46246         0.00041  22288858.29046  22288854.54948
 02 07 11 16 55 30.0000000  0  8 03 06 15 17 18 21 23 26
   -481497.59248   -375192.14844         0.00041  24051427.91744  24051422.03248
   7197986.44849   5608808.02846         0.00041  21684439.97046  21684435.87149
  -8509194.78049  -6630542.10547         0.00041  20561689.37947  20561686.30449
  -4925842.43149  -3838321.68546         0.00041  20632573.88446  20632570.84249
 -12563253.03249  -9789542.37847         0.00041  20434296.37047  20434295.28049
 -10961015.53148  -8541040.03746         0.00041  22287677.27846  22287672.78548
  11940141.10048   9303996.94746         0.00041  22924599.41346  22924594.65848
  -2211538.02348  -1723274.66946         0.00041  22299540.63246  22299537.47248
 02 07 11 16 56 00.0000000  0  8 03 06 15 17 18 21 23 26
   -577197.72248   -449763.59944         0.00041  24033215.65744  24033210.02248
   7280459.35949   5673072.51246         0.00041  21700133.73746  21700129.93849
  -8527407.99349  -6644734.24047         0.00041  20558223.48747  20558220.45749
  -4929846.08949  -3841441.43546         0.00041  20631811.71246  20631809.34549
 -12575730.07349  -9799264.74347         0.00041  20431921.77047  20431920.86249
 -11014412.60148  -8582648.09646         0.00041  22277516.46546  22277511.74248
  12018703.84948   9365214.61846         0.00041  22939550.64546  22939544.33548
  -2154815.72148  -1679075.51046         0.00041  22310334.68446  22310332.31548
 02 07 11 16 56 30.0000000  0  8 03 06 15 17 18 21 23 26
   -672696.40148   -524178.14044         0.00041  24015045.86044  24015038.18248
   7363301.84248   5737624.98846         0.00041  21715898.68346  21715893.88748
  -8545401.51149  -6658755.17346         0.00041  20554799.37546  20554796.28649
  -4933647.75649  -3844403.78946         0.00041  20631088.79946  20631085.83249
 -12587802.94649  -9808672.17447         0.00041  20429624.50847  20429623.43549
 -11067535.73548  -8624042.68946         0.00041  22267406.88746  22267402.14648
  12097336.72448   9426486.92046         0.00041  22954514.17646  22954507.95948
  -2097528.38748  -1634436.06746         0.00041  22321236.61446  22321232.95348
 02 07 11 16 57 00.0000000  0  8 03 06 15 17 18 21 23 26
   -767987.14648   -598430.65144         0.00041  23996911.10644  23996904.43748
   7446516.10449   5802467.15546         0.00041  21731734.09346  21731729.57449
  -8563170.47249  -6672601.11846         0.00041  20551417.91046  20551414.83249
  -4937242.52049  -3847204.92246         0.00041  20630404.59346  20630401.82849
 -12599468.32349  -9817762.07947         0.00041  20427404.81847  20427403.66849
 -11120380.96348  -8665220.74046         0.00041  22257350.87346  22257345.93548
  12176042.01248   9487815.66446         0.00041  22969490.09746  22969485.58348
  -2039674.02748  -1589354.75646         0.00041  22332246.92646  22332242.45048
 02 07 11 16 57 30.0000000  0  8 03 06 15 17 18 21 23 26
   -863083.22548   -672531.43144         0.00041  23978813.12744  23978808.44948
   7530084.48848   5867585.25846         0.00041  21747636.45146  21747631.56748
  -8580729.91749  -6686283.79946         0.00041  20548076.52546  20548073.58449
  -4940645.39849  -3849856.53646         0.00041  20629757.05846  20629754.04349
 -12610742.86949  -9826547.44847         0.00041  20425258.94647  20425257.72249
 -11172964.52348  -8706194.89446         0.00041  22247345.11346  22247339.96848
  12254802.40448   9549187.33046         0.00041  22984477.70046  22984473.84948
  -1981270.40848  -1543845.46246         0.00041  22343360.67946  22343355.98548
 02 07 11 16 58 00.0000000  0  8 03 06 15 17 18 21 23 26
   -957972.25648   -746470.87444         0.00041  23960758.37344  23960751.83548
   7614014.85748   5932985.43546         0.00041  21763608.22846  21763602.83848
  -8598069.25349  -6699794.97146         0.00041  20544776.99346  20544773.83549
  -4943845.68349  -3852350.28346         0.00041  20629148.41046  20629145.41249
 -12621617.36549  -9835021.09347         0.00041  20423190.01247  20423188.84749
 -11225276.18449  -8746957.17946         0.00041  22237389.99946  22237385.82849
  12333626.12248   9610608.33446         0.00041  22999477.30146  22999473.30348
  -1922309.82748  -1497902.15946         0.00041  22354579.68446  22354575.13848
 02 07 11 16 58 30.0000000  0  8 03 06 15 17 18 21 23 26
  -1052657.17248   -820251.26344         0.00041  23942736.96244  23942733.56048
   7698299.86748   5998661.94446         0.00041  21779646.81246  21779642.25448
  -8615193.44049  -6713138.49946         0.00041  20541518.29546  20541515.47249
  -4946848.16649  -3854689.89346         0.00041  20628576.89546  20628573.86049
 -12632098.39649  -9843188.13947         0.00041  20421195.39547  20421194.27649
 -11277321.59749  -8787511.99246         0.00041  22227486.02246  22227481.59749
  12412506.11748   9672073.20746         0.00041  23014488.09146  23014483.70948
  -1862799.84248  -1451530.76146         0.00041  22365904.04446  22365899.95148
 02 07 11 16 59 00.0000000  0  8 03 06 15 17 18 21 23 26
  -1147134.38248   -893869.80844         0.00041  23924760.33844  23924756.02448
   7782938.27448   6064613.82146         0.00041  21795753.53346  21795748.44348
  -8632100.69949  -6726312.97846         0.00041  20538300.97646  20538298.34449
  -4949651.12749  -3856874.02946         0.00041  20628043.53646  20628040.35849
 -12642185.58349  -9851048.28947         0.00041  20419276.03447  20419274.73249
 -11329100.29848  -8827858.98946         0.00041  22217632.61046  22217627.86548
  12491441.64448   9733581.34646         0.00041  23029508.55846  23029503.85148
  -1802741.73548  -1404732.26546         0.00041  22377333.17346  22377329.09848
 02 07 11 16 59 30.0000000  0  8 03 06 15 17 18 21 23 26
  -1241373.22448   -967302.62244         0.00041  23906825.70644  23906822.14548
   7867956.61148   6130861.75546         0.00041  21811931.70346  21811926.65148
  -8648761.76749  -6739295.62746         0.00041  20535130.58846  20535127.46849
  -4952225.29449  -3858879.88146         0.00041  20627553.87146  20627550.89149
 -12651851.40749  -9858580.10047         0.00041  20417436.83247  20417435.35749
 -11380583.92449  -8867976.05646         0.00041  22207835.57646  22207831.04649
  12570459.58248   9795153.72046         0.00041  23044545.37446  23044541.18348
  -1742109.16348  -1357486.12546         0.00041  22388871.79546  22388867.66448
 02 07 11 17 00 00.0000000  0  8 03 06 15 17 18 21 23 26
  -1335380.97848  -1040555.34844         0.00041  23888941.24544  23888932.80648
   7953343.00448   6197396.47946         0.00041  21828180.65946  21828175.76048
  -8665185.79749  -6752093.56046         0.00041  20532005.36146  20532002.25949
  -4954579.53349  -3860714.36246         0.00041  20627105.68146  20627102.88649
 -12661106.75549  -9865792.06147         0.00041  20415675.34447  20415674.04549
 -11431781.90349  -8907870.53946         0.00041  22198092.80646  22198088.80049
  12649548.38848   9856781.31746         0.00041  23059596.27346  23059591.69448
  -1680914.13348  -1309801.69546         0.00041  22400516.45746  22400512.12248
 02 07 11 17 00 30.0000000  0  8 03 06 15 17 18 21 23 26
  -1429150.95048  -1113622.77444         0.00041  23871095.25344  23871087.06248
   8039099.75648   6264219.79146         0.00041  21844499.61946  21844494.33748
  -8681367.53149  -6764702.69346         0.00041  20528925.43746  20528922.94349
  -4956708.92449  -3862373.64146         0.00041  20626700.29446  20626697.35649
 -12669947.89149  -9872681.25447         0.00041  20413993.23947  20413991.85849
 -11482690.64749  -8947539.63746         0.00041  22188405.52846  22188400.88649
  12728710.88348   9918466.32546         0.00041  23074659.78046  23074656.16748
  -1619154.48948  -1261677.28446         0.00041  22412267.85246  22412264.44648
 02 07 11 17 01 00.0000000  0  8 03 06 15 17 18 21 23 26
  -1522703.58648  -1186520.83644         0.00041  23853292.48344  23853285.89648
   8125201.79948   6331312.15946         0.00041  21860884.64346  21860879.42548
  -8697329.38849  -6777140.49946         0.00041  20525888.40546  20525885.42949
  -4958635.50349  -3863874.88546         0.00041  20626333.78446  20626330.78149
 -12678399.10549  -9879266.62247         0.00041  20412385.05447  20412383.32449
 -11533333.08849  -8987001.24046         0.00041  22178768.67446  22178763.88349
  12807922.47048   9980189.55945         0.00041  23089732.77145  23089729.05048
  -1556855.52448  -1213132.64046         0.00041  22424122.51146  22424119.86448
 02 07 11 17 01 30.0000000  0  8 03 06 15 17 18 21 23 26
  -1616049.97048  -1259258.22044         0.00041  23835529.22044  23835523.26848
   8211633.58848   6398661.47346         0.00041  21877331.82846  21877327.01448
  -8713084.00149  -6789416.83246         0.00041  20522890.56946  20522887.40449
  -4960372.06649  -3865228.06246         0.00041  20626003.59546  20626000.41849
 -12686474.78149  -9885559.35947         0.00041  20410847.98947  20410846.57749
 -11583722.72349  -9026265.85246         0.00041  22169179.57846  22169175.74549
  12887167.88248  10041939.16545         0.00041  23104812.36845  23104808.52648
  -1494032.97148  -1164180.01246         0.00041  22436078.23446  22436075.20348
 02 07 11 17 02 00.0000000  0  8 03 06 15 17 18 21 23 26
  -1709166.91448  -1331816.84344         0.00041  23817809.94244  23817803.26248
   8298413.80148   6466282.28146         0.00041  21893845.79346  21893840.69848
  -8728610.02849  -6801515.03747         0.00041  20519935.99247  20519933.32349
  -4961897.16049  -3866416.46046         0.00041  20625713.11646  20625710.22049
 -12694155.04049  -9891543.97647         0.00041  20409386.31047  20409385.05849
 -11633839.21049  -9065317.59946         0.00041  22159642.44446  22159638.63349
  12966466.33948  10103730.10545         0.00041  23119903.00545  23119898.96248
  -1430668.46348  -1114805.08146         0.00041  22448135.98646  22448132.81548
 02 07 11 17 02 30.0000000  0  8 03 06 15 17 18 21 23 26
  -1802046.71748  -1404190.66044         0.00041  23800133.60244  23800129.29548
   8385545.44848   6534176.94746         0.00041  21910426.89046  21910421.45248
  -8743901.69849  -6813430.61947         0.00041  20517026.03547  20517022.98949
  -4963204.58049  -3867435.24346         0.00041  20625464.38946  20625461.32949
 -12701435.74549  -9897217.24947         0.00041  20408001.18547  20407999.93449
 -11683677.48849  -9104152.57146         0.00041  22150158.46246  22150154.66649
  13045821.54748  10165565.27745         0.00041  23135003.43645  23135000.30448
  -1366759.14248  -1065005.63146         0.00041  22460297.83946  22460293.83548
 02 07 11 17 03 00.0000000  0  8 03 06 15 17 18 21 23 26
  -1894692.57148  -1476382.14844         0.00041  23782506.71044  23782500.79948
   8473020.89348   6602339.49546         0.00041  21927072.48246  21927067.34648
  -8758963.60049  -6825167.16647         0.00041  20514159.75647  20514156.91149
  -4964299.12649  -3868288.16046         0.00041  20625256.23646  20625253.37849
 -12708323.11649  -9902584.02647         0.00041  20406690.57047  20406689.25349
 -11733243.17449  -9142775.14046         0.00041  22140726.67646  22140722.48749
  13125226.39848  10227439.10446         0.00041  23150115.06246  23150111.23948
  -1302312.68648  -1014787.63846         0.00041  22472561.76446  22472557.22648
 02 07 11 17 03 30.0000000  0  8 03 06 15 17 18 21 23 26
  -1987099.98348  -1548387.91444         0.00041  23764920.10244  23764916.87748
   8560840.11948   6670769.92046         0.00041  21943785.10446  21943778.56548
  -8773793.02049  -6836722.55946         0.00041  20511337.71946  20511334.98449
  -4965178.03549  -3868973.05046         0.00041  20625088.58746  20625086.00249
 -12714816.47049  -9907643.77847         0.00041  20405454.83147  20405453.49249
 -11782535.11149  -9181184.37946         0.00041  22131346.38746  22131342.72349
  13204681.21348  10289351.88246         0.00041  23165234.81646  23165229.96948
  -1237329.48848   -964151.39446         0.00041  22484927.58646  22484923.80448
 02 07 11 17 04 00.0000000  0  8 03 06 15 17 18 21 23 26
  -2079267.92948  -1620207.01144         0.00041  23747382.89744  23747375.90348
   8648999.29548   6739465.23546         0.00041  21960561.74146  21960555.23448
  -8788391.07049  -6848097.66046         0.00041  20508559.88646  20508556.71249
  -4965842.19649  -3869490.60146         0.00041  20624962.47646  20624959.55949
 -12720918.26849  -9912398.42547         0.00041  20404293.81647  20404292.66849
 -11831554.58849  -9219381.33046         0.00041  22122017.75246  22122014.21249
  13284182.66948  10351300.99845         0.00041  23180363.63445  23180358.31048
  -1171813.64748   -913100.10546         0.00041  22497394.07646  22497391.72148
 02 07 11 17 04 30.0000000  0  7 03 06 15 17 18 21 23
  -2171214.21848  -1691853.35244         0.00041  23729887.29044  23729879.56248
   8737476.26648   6808408.18446         0.00041  21977396.86346  21977392.59048
  -8802776.90049  -6859307.39746         0.00041  20505822.31446  20505819.63749
  -4966310.67249  -3869855.66846         0.00041  20624873.62646  20624870.41649
 -12726649.60849  -9916864.40247         0.00041  20403203.27747  20403201.88749
 -11880321.79948  -9257381.69246         0.00041  22112738.28546  22112733.56548
  13363709.54348  10413269.93745         0.00041  23195497.06345  23195492.23748
 02 07 11 17 05 00.0000000  0  7 03 06 15 17 18 21 23
  -2262907.30348  -1763302.46744         0.00041  23712436.11044  23712430.76248
   8826297.72748   6877619.56846         0.00041  21994299.17046  21994294.44448
  -8816920.72149  -6870328.55546         0.00041  20503130.91346  20503127.90649
  -4966553.93449  -3870045.23746         0.00041  20624827.03246  20624823.88049
 -12731982.75649  -9921020.10647         0.00041  20402188.18947  20402186.86549
 -11928808.66749  -9295163.61646         0.00041  22103511.64846  22103507.54049
  13443289.09948  10475279.91446         0.00041  23210641.60046  23210636.44948
 02 07 11 17 05 30.0000000  0  8 03 06 14 15 17 18 21 23
  -2354318.99448  -1834532.33744         0.00041  23695041.34944  23695035.22848
   8915487.24648   6947117.75346         0.00041  22011271.82246  22011266.83348
         0.13558         1.55454         0.00051  25260764.21454  25260754.53458
  -8830796.31949  -6881140.72046         0.00041  20500490.39446  20500487.37349
  -4966545.43449  -3870038.63446         0.00041  20624828.43246  20624825.42649
 -12736892.65049  -9924846.00647         0.00041  20401254.25347  20401253.02649
 -11976989.41148  -9332706.99346         0.00041  22094343.16446  22094338.62448
  13522945.47948  10537349.74646         0.00041  23225798.66146  23225793.98348
 02 07 11 17 06 00.0000000  0  8 03 06 14 15 17 18 21 23
  -2445487.22348  -1905572.50644         0.00041  23677691.71944  23677685.31748
   9005002.34548   7016869.64046         0.00041  22028306.06046  22028301.18848
   -113090.91948    -88121.50244         0.00041  25239244.30544  25239233.88048
  -8844442.91849  -6891774.43346         0.00041  20497893.61046  20497890.72649
  -4966324.53549  -3869866.53746         0.00041  20624871.06246  20624867.99749
 -12741420.98449  -9928374.58447         0.00041  20400392.28347  20400391.14249
 -12024904.94648  -9370043.70046         0.00041  22085224.93646  22085220.35648
  13602636.63448  10599446.68245         0.00041  23240964.12245  23240958.02748
 02 07 11 17 06 30.0000000  0  8 03 06 14 15 17 18 21 23
  -2536415.32148  -1976425.51544         0.00041  23660387.06244  23660382.80548
   9094835.11948   7086869.06246         0.00041  22045401.39946  22045396.02548
   -226258.98448   -176304.51344         0.00041  25217707.11744  25217698.67848
  -8857865.62749  -6902233.69846         0.00041  20495339.45146  20495336.25049
  -4965896.25349  -3869532.82946         0.00041  20624952.48046  20624949.40349
 -12745574.45049  -9931611.05647         0.00041  20399601.79647  20399600.67949
 -12072561.21048  -9407178.38246         0.00041  22076155.77846  22076151.29948
  13682355.38048  10661565.11945         0.00041  23256133.81745  23256128.16548
 02 07 11 17 07 00.0000000  0  8 03 06 14 15 17 18 21 23
  -2627093.31348  -2047083.59344         0.00041  23643131.57544  23643127.54548
   9184990.85848   7157120.15446         0.00041  22062556.72846  22062552.02148
   -339494.01348         0.00041         0.00041         0.00041  25196150.76148
  -8871056.27649  -6912512.14346         0.00041  20492829.61146  20492826.49449
  -4965252.16249  -3869030.96046         0.00041  20625074.88246  20625071.73449
 -12749346.74249  -9934550.51147         0.00041  20398883.96747  20398882.72949
 -12119950.57148  -9444105.09946         0.00041  22067138.09346  22067133.16648
  13762107.77848  10723709.77845         0.00041  23271308.90045  23271305.07148
 02 07 11 17 07 30.0000000  0  8 03 06 14 15 17 18 21 23
  -2717509.56648  -2117537.71944         0.00041  23625928.03044  23625922.04148
   9275476.45548   7227628.26446         0.00041  22079775.52046  22079771.05848
   -452784.36348   -352818.06441         0.00041         0.00041  25174593.49548
  -8884004.97349  -6922602.04646         0.00041  20490364.96446  20490362.27749
  -4964382.48649  -3868353.30446         0.00041  20625240.81946  20625237.77349
 -12752729.44649  -9937186.39047         0.00041  20398240.08747  20398238.99749
 -12167064.31649  -9480817.04146         0.00041  22058172.83646  22058168.48349
  13841901.55248  10785886.65145         0.00041  23286493.11345  23286490.05148
 02 07 11 17 08 00.0000000  0  8 03 06 14 15 17 18 21 23
  -2807636.44048  -2187766.42645         0.00041  23608776.39245  23608772.22148
   9366314.75248   7298411.21046         0.00041  22097062.57646  22097057.44848
   -566102.81548   -441118.19041         0.00041         0.00041  25153030.66848
  -8896686.07049  -6932483.42946         0.00041  20487951.95246  20487949.09049
  -4963261.22649  -3867479.61546         0.00041  20625454.11046  20625451.01849
 -12755698.90249  -9939500.25747         0.00041  20397675.21647  20397674.13049
 -12213877.98149  -9517295.14846         0.00041  22049264.42346  22049260.47449
  13921759.96148  10848113.89745         0.00041  23301690.15945  23301685.74248
 02 07 11 17 08 30.0000000  0  7 03 06 15 17 18 21 23
  -2897517.51948  -2257803.63144         0.00041  23591673.89944  23591669.20648
   9457457.51748   7369431.41046         0.00041  22114406.83346  22114401.08448
  -8909144.88849  -6942191.61746         0.00041  20485581.26546  20485578.44249
  -4961933.43949  -3866445.00646         0.00041  20625706.62546  20625703.32649
 -12758301.95849  -9941528.62247         0.00041  20397179.71047  20397178.61249
 -12260437.75049  -9553575.43846         0.00041  22040403.67746  22040400.38549
  14001635.75348  10910354.71345         0.00041  23316889.46745  23316885.33048
 02 07 11 17 09 00.0000000  0  8 03 06 14 15 17 18 21 23
  -2987148.71748  -2327646.07244         0.00041  23574617.33244  23574611.92148
   9548904.47848   7440688.65146         0.00041  22131808.00346  22131802.57448
         0.03658         0.00051         0.00051         0.00051  25109862.16858
  -8921378.41449  -6951724.25246         0.00041  20483253.30746  20483250.61549
  -4960396.30549  -3865247.27046         0.00041  20625999.14846  20625996.29549
 -12760537.60149  -9943270.68747         0.00041  20396754.21147  20396753.10049
 -12306741.86449  -9589656.51246         0.00041  22031592.45046  22031589.26949
  14081529.35448  10972609.42545         0.00041  23332093.72845  23332089.23148
 02 07 11 17 09 30.0000000  0  8 03 06 14 15 17 18 21 23
  -3076504.28248  -2397273.68344         0.00041  23557613.99044  23557608.71348
   9640676.44448   7512199.12846         0.00041  22149271.84146  22149266.96248
   -113498.91547         0.00041         0.00041         0.00041  25088262.54947
  -8933362.80349  -6961062.76346         0.00041  20480972.65746  20480969.72649
  -4958626.13349  -3863867.94146         0.00041  20626335.68546  20626332.85149
 -12762384.17749  -9944709.58547         0.00041  20396402.77747  20396401.70749
 -12352767.95049  -9625520.93846         0.00041  22022834.21346  22022830.15849
  14161462.37748  11034894.83645         0.00041  23347305.75845  23347300.56148
 02 07 11 17 10 00.0000000  0  8 03 06 14 15 17 18 21 23
  -3165579.71148  -2466683.09145         0.00041  23540661.97245  23540657.04648
   9732773.23448   7583962.73546         0.00041  22166798.51846  22166792.02048
   -227035.12547         0.00041         0.00041         0.00041  25066658.13747
  -8945095.41049  -6970205.06546         0.00041  20478739.80946  20478737.25549
  -4956620.05249  -3862304.78446         0.00041  20626717.47546  20626714.30149
 -12763840.72249  -9945844.56547         0.00041  20396125.82147  20396124.67949
 -12398514.44549  -9661167.49846         0.00041  22014128.47546  22014124.61749
  14241435.33348  11097211.35045         0.00041  23362523.70345  23362518.54048
 02 07 11 17 10 30.0000000  0  8 03 06 14 15 17 18 21 23
  -3254390.00248  -2535885.83245         0.00041  23523765.37545  23523757.47348
   9825175.03748   7655964.00946         0.00041  22184381.71446  22184375.46048
   -340624.05047         0.00041         0.00041         0.00041  25045044.03447
  -8956592.81449  -6979164.10046         0.00041  20476552.55146  20476549.45349
  -4954394.82449  -3860570.86546         0.00041  20627141.21946  20627138.49049
 -12764925.95649  -9946690.20847         0.00041  20395919.37247  20395918.07049
 -12443999.16849  -9696610.10146         0.00041  22005473.36046  22005469.19349
  14321429.09048  11159544.06445         0.00041  23377746.48945  23377741.36348
 02 07 11 17 11 00.0000000  0  8 03 06 14 15 17 18 21 23
  -3342920.63148  -2604870.69744         0.00041  23506915.78744  23506909.89248
   9917891.55048   7728210.51646         0.00041  22202024.15246  22202018.81348
   -454250.79547         0.00041         0.00041         0.00041  25023419.85847
  -8967842.24249  -6987929.89746         0.00041  20474411.90846  20474408.78049
  -4951937.49849  -3858656.08646         0.00041  20627608.44946  20627605.58949
 -12765628.81549  -9947237.89947         0.00041  20395785.61147  20395784.38949
 -12489209.86449  -9731839.14746         0.00041  21996870.33046  21996865.37949
  14401454.33548  11221901.32145         0.00041  23392974.36745  23392969.90548
 02 07 11 17 11 30.0000000  0  8 03 06 14 15 17 18 21 23
  -3431166.65748  -2673633.81544         0.00041  23490124.39844  23490116.68548
  10010923.28048   7800702.64546         0.00041  22219728.29346  22219722.47748
   -567910.54047         0.00041         0.00041         0.00041  25001791.54347
  -8978840.38349  -6996499.88846         0.00041  20472318.73246  20472315.72549
  -4949244.38549  -3856557.58046         0.00041  20628121.36146  20628118.20349
 -12765947.75549  -9947486.43247         0.00041  20395724.86547  20395723.89649
 -12534144.37349  -9766852.98546         0.00041  21988319.42146  21988314.67549
  14481512.47748  11284284.19945         0.00041  23408207.98945  23408203.92148
 02 07 11 17 12 00.0000000  0  8 03 06 14 15 17 18 21 23
  -3519150.32748  -2742192.50744         0.00041  23473379.92044  23473371.48048
  10104243.32348   7873419.42846         0.00041  22237486.84146  22237480.71348
   -681625.49448   -531136.85141         0.00041         0.00041  24980153.42148
  -8989610.66549  -7004892.33246         0.00041  20470269.32046  20470266.15949
  -4946339.34049  -3854293.92646         0.00041  20628674.24046  20628671.18949
 -12765908.76749  -9947456.05847         0.00041  20395732.34047  20395731.14449
 -12578827.73149  -9801671.14046         0.00041  21979816.33346  21979812.14149
  14561577.27948  11346672.27445         0.00041  23423446.48445  23423439.20848
 02 07 11 17 12 30.0000000  0  8 03 06 14 15 17 18 21 23
  -3606840.49348  -2810522.45544         0.00041  23456691.61544  23456686.66348
  10197878.05848   7946381.44346         0.00041  22255305.02546  22255299.09348
   -795364.34748   -619764.65441         0.00041         0.00041  24958509.86348
  -9000123.99849  -7013084.55246         0.00041  20468268.59446  20468265.75549
  -4943193.01649  -3851842.27346         0.00041  20629272.81046  20629269.68549
 -12765484.07749  -9947125.13347         0.00041  20395813.33347  20395812.03449
 -12623231.89849  -9836271.73646         0.00041  21971367.14946  21971361.76349
  14641676.12548  11409086.87445         0.00041  23438688.05545  23438681.61148
 02 07 11 17 13 00.0000000  0  8 03 06 14 15 17 18 21 23
  -3694236.13848  -2878622.87644         0.00041  23440063.37244  23440057.24548
  10291823.69448   8019585.71746         0.00041  22273182.42846  22273176.46648
   -909126.41748         0.00041         0.00041         0.00041  24936861.34448
  -9010380.83949  -7021076.91147         0.00041  20466316.95447  20466313.88149
  -4939805.84949  -3849202.95446         0.00041  20629917.74946  20629914.68349
 -12764676.43249  -9946495.81047         0.00041  20395966.99947  20395965.33849
 -12667358.92349  -9870656.37546         0.00041  21962969.61446  21962965.13949
  14721806.09348  11471525.72345         0.00041  23453937.06145  23453930.04248
 02 07 11 17 13 30.0000000  0  8 03 06 14 15 17 18 21 23
  -3781355.76848  -2946508.22844         0.00041  23423484.07544  23423479.35348
  10386056.83248   8093014.00046         0.00041  22291114.28046  22291108.86248
  -1022929.83848   -797088.50444         0.00041  24915210.92944  24915206.35248
  -9020401.60149  -7028885.31746         0.00041  20464409.93146  20464406.86149
  -4936198.15349  -3846391.79546         0.00041  20630604.08746  20630601.15149
 -12763508.15049  -9945585.47447         0.00041  20396189.13547  20396187.81349
 -12711230.03049  -9904841.60546         0.00041  21954620.53346  21954616.73649
  14801944.63548  11533971.25945         0.00041  23469185.37345  23469180.96348
 02 07 11 17 14 00.0000000  0  8 03 06 14 15 17 18 21 23
  -3868190.48748  -3014171.57644         0.00041  23406958.72144  23406954.36648
  10480581.96348   8166669.82946         0.00041  22309101.81046  22309096.55948
  -1136765.63648         0.00041         0.00041         0.00041  24893543.91848
  -9030178.73249  -7036503.87846         0.00041  20462549.62646  20462546.51449
  -4932362.08449  -3843402.67846         0.00041  20631334.09146  20631330.91649
 -12761973.51449  -9944389.66547         0.00041  20396481.60847  20396480.29949
 -12754838.98649  -9938822.55046         0.00041  21946321.98446  21946318.40849
  14882097.04148  11596427.59245         0.00041  23484437.48745  23484433.47148
 02 07 11 17 14 30.0000000  0  8 03 06 14 15 17 18 21 23
  -3954751.69248  -3081621.88144         0.00041  23390486.18844  23390481.37948
  10575382.38648   8240540.16046         0.00041  22327141.82646  22327135.87848
  -1250645.61048   -974529.44941         0.00041         0.00041  24871872.98648
  -9039725.70549  -7043943.08047         0.00041  20460732.88247  20460730.01349
  -4928311.28649  -3840246.23646         0.00041  20632105.08746  20632101.91049
 -12760087.80849  -9942920.29747         0.00041  20396840.15147  20396838.83749
 -12798199.82449  -9972610.18046         0.00041  21938070.67146  21938067.37049
  14962247.80648  11658882.64345         0.00041  23499689.15845  23499685.59748
 02 07 11 17 15 00.0000000  0  7 03 14 15 17 18 21 23
  -4041019.52248  -3148843.54545         0.00041  23374071.07845  23374065.72048
  -1364549.77848  -1063286.00541         0.00041         0.00041  24850197.66748
  -9049024.10049  -7051188.60546         0.00041  20458963.31046  20458960.44449
  -4924027.11849  -3836907.93846         0.00041  20632920.31946  20632917.40849
 -12757834.93649  -9941164.82647         0.00041  20397269.14047  20397267.50949
 -12841296.03649 -10006191.59346         0.00041  21929870.36146  21929865.80149
  15042413.10448  11721349.02845         0.00041  23514944.55245  23514939.56048
 02 07 11 17 15 30.0000000  0  7 03 14 15 17 18 21 23
  -4126950.15848  -3215802.41045         0.00041  23357718.74145  23357714.87948
  -1478434.48048  -1152027.26644         0.00041  24828536.48644  24828525.81248
  -9058031.77949  -7058207.58846         0.00041  20457249.22546  20457246.40249
  -4919467.79249  -3833355.23746         0.00041  20633787.88046  20633785.01249
 -12755174.55349  -9939091.81547         0.00041  20397775.21747  20397773.90749
 -12884086.89449 -10039535.06646         0.00041  21921727.04446  21921723.44349
  15122632.84348  11783857.82945         0.00041  23530211.47645  23530204.86848
 02 07 11 17 16 00.0000000  0  7 03 14 15 17 18 21 23
  -4212580.42648  -3282527.23745         0.00041  23341425.03445  23341420.02348
  -1592336.24748         0.00041         0.00041         0.00041  24806851.75348
  -9066787.14349  -7065029.96646         0.00041  20455583.08346  20455580.26849
  -4914671.19749  -3829617.65546         0.00041  20634700.59746  20634697.55349
 -12752147.30449  -9936732.92147         0.00041  20398351.50647  20398350.26049
 -12926611.62349 -10072671.17746         0.00041  21913635.19746  21913630.55649
  15202866.44148  11846377.43745         0.00041  23545478.16045  23545472.88548
 02 07 11 17 16 30.0000000  0  7 03 14 15 17 18 21 23
  -4297903.15448  -3349012.38945         0.00041  23325189.09345  23325182.41648
  -1706248.06348  -1329544.28841         0.00041         0.00041  24785175.24448
  -9075284.80749  -7071651.53946         0.00041  20453966.06246  20453963.01949
  -4909632.02049  -3825691.04046         0.00041  20635659.41946  20635656.22049
 -12748749.46649  -9934085.25847         0.00041  20398997.80847  20398996.56249
 -12968866.03949 -10105596.64346         0.00041  21905594.57946  21905590.08049
  15283117.36648  11908910.53145         0.00041  23560749.88145  23560744.68348
 02 07 11 17 17 00.0000000  0  7 03 14 15 17 18 21 23
  -4382947.92848  -3415281.02545         0.00041  23309003.34045  23308998.61248
  -1820199.11248         0.00041         0.00041         0.00041  24763490.68048
  -9083555.68149  -7078096.38746         0.00041  20452392.33046  20452389.16849
  -4904381.17949  -3821599.50046         0.00041  20636658.49146  20636655.37549
 -12745014.30449  -9931174.75347         0.00041  20399708.27647  20399707.19149
 -13010882.58149 -10138336.76846         0.00041  21897598.68146  21897594.98549
  15363352.43248  11971431.26445         0.00041  23576018.31145  23576013.54948
 02 07 11 17 17 30.0000000  0  7 03 14 15 17 18 21 23
  -4467675.87948  -3481302.81345         0.00041  23292881.09745  23292875.47548
  -1934150.84848         0.00041         0.00041         0.00041  24741805.85148
  -9091562.88749  -7084335.77746         0.00041  20450868.51746  20450865.40349
  -4898881.73249  -3817314.24546         0.00041  20637705.48446  20637702.50049
 -12740906.88149  -9927974.17347         0.00041  20400490.19447  20400489.06649
 -13052625.23849 -10170863.46746         0.00041  21889655.24246  21889651.10649
  15443606.51848  12033966.78245         0.00041  23591290.77345  23591285.70548
 02 07 11 17 18 00.0000000  0  7 03 14 15 17 18 21 23
  -4552080.16048  -3547072.29145         0.00041  23276819.08945  23276813.82648
  -2048344.66747         0.00041         0.00041         0.00041  24720117.78647
  -9099301.16949  -7090365.62046         0.00041  20449395.98046  20449393.06149
  -4893128.39349  -3812831.15346         0.00041  20638800.09646  20638796.93449
 -12736424.04749  -9924481.06347         0.00041  20401342.96247  20401342.05449
 -13094090.48149 -10203174.01146         0.00041  21881764.24046  21881760.62249
  15523882.60248  12096519.45145         0.00041  23606566.93945  23606561.21648
 02 07 11 17 18 30.0000000  0  7 03 14 15 17 18 21 23
  -4636187.39748  -3612610.33445         0.00041  23260814.62145  23260809.10748
  -2162518.55648         0.00041         0.00041         0.00041  24698433.24948
  -9106798.98549  -7096208.08346         0.00041  20447969.19046  20447966.34149
  -4887149.25249  -3808172.10746         0.00041  20639938.10946  20639935.05549
 -12731596.01649  -9920718.96747         0.00041  20402262.13947  20402261.08449
 -13135307.56549 -10235291.18546         0.00041  21873921.22146  21873916.94649
  15604150.27648  12159065.60245         0.00041  23621841.40145  23621835.85348
 02 07 11 17 19 00.0000000  0  7 03 14 15 17 18 21 23
  -4719972.87948  -3677897.71244         0.00041  23244871.46544  23244864.95448
  -2276480.25448         0.00041         0.00041         0.00041  24676748.48148
  -9114032.84149  -7101844.85847         0.00041  20446592.75047  20446589.62349
  -4880921.08149  -3803319.01046         0.00041  20641123.33046  20641120.21149
 -12726401.50149  -9916671.29547         0.00041  20403250.55547  20403249.43549
 -13176254.58549 -10267197.92646         0.00041  21866129.54746  21866125.35849
  15684430.78648  12221621.75445         0.00041  23637117.72945  23637113.35548
 02 07 11 17 19 30.0000000  0  6 03 15 17 18 21 23
  -4803436.14548  -3742933.99645         0.00041  23228987.52745  23228981.91948
  -9121003.66549  -7107276.68047         0.00041  20445266.21947  20445263.00649
  -4874444.74849  -3798272.54346         0.00041  20642355.90246  20642352.88149
 -12720843.50949  -9912340.39947         0.00041  20404308.33447  20404307.09249
 -13216934.07749 -10298896.18446         0.00041  21858388.49046  21858383.81349
  15764720.96548  12284185.42045         0.00041  23652396.56745  23652391.99548
 02 07 11 17 20 00.0000000  0  6 03 15 17 18 21 23
  -4886499.22148  -3807658.37845         0.00041  23213181.08745  23213175.74348
  -9127635.06149  -7112444.00947         0.00041  20444004.23147  20444001.56749
  -4867643.85749  -3792973.17046         0.00041  20643649.81646  20643646.63249
 -12714847.99049  -9907668.57547         0.00041  20405448.88347  20405447.79349
 -13257270.95949 -10330327.49246         0.00041  21850712.27046  21850708.40549
  15845095.04348  12346814.46145         0.00041  23667691.71645  23667685.60948
 02 07 11 17 20 30.0000000  0  6 03 15 17 18 21 23
  -4968923.76148  -3871885.18845         0.00041  23197498.03845  23197490.66648
  -9133690.49749  -7117162.54547         0.00041  20442852.42947  20442849.28349
  -4860281.57449  -3787236.34746         0.00041  20645051.00746  20645047.80549
 -12708180.31549  -9902472.99047         0.00041  20406717.83647  20406716.93049
 -13297029.66949 -10361308.26946         0.00041  21843146.14146  21843142.48149
  15925787.72548  12409691.79545         0.00041  23683046.45945  23683040.62748
 02 07 11 17 21 00.0000000  0  6 03 15 17 18 21 23
  -5051203.79948  -3935999.46745         0.00041  23181836.97345  23181832.78948
  -9139665.51449  -7121818.41947         0.00041  20441715.12147  20441712.05849
  -4852853.54549  -3781448.29346         0.00041  20646464.58946  20646461.38249
 -12701338.23649  -9897141.50647         0.00041  20408019.81147  20408018.57049
 -13336707.03149 -10392225.66746         0.00041  21835595.70946  21835592.00349
  16006301.18148  12472429.44545         0.00041  23698368.19845  23698362.92048
 02 07 11 17 21 30.0000000  0  8 03 09 14 15 17 18 21 23
  -5133519.54748  -4000141.55345         0.00041  23166175.32345  23166168.24548
        -0.63158         0.00051         0.00051         0.00051  24992506.77258
        -0.27958        -0.12051         0.00051         0.00051  24568436.48258
  -9145742.04249  -7126553.38146         0.00041  20440558.35446  20440555.48649
  -4845541.87149  -3775750.89746         0.00041  20647855.78946  20647852.63249
 -12694505.83549  -9891817.56747         0.00041  20409320.14447  20409318.77049
 -13376486.61049 -10423222.70346         0.00041  21828026.43146  21828022.41649
  16086451.43348  12534884.08445         0.00041  23713620.08945  23713616.06748
 02 07 11 17 22 00.0000000  0  8 03 09 14 15 17 18 21 23
  -5215542.42348  -4064055.42245         0.00041  23150564.79645  23150561.42748
    -73016.46448         0.00041         0.00041         0.00041  24978611.76948
   -114100.66348    -88909.42144         0.00041  24546733.07044  24546721.65248
  -9151593.32549  -7131112.83446         0.00041  20439445.07346  20439442.15649
  -4838019.17049  -3769889.07046         0.00041  20649287.51146  20649284.06749
 -12687358.10349  -9886247.91347         0.00041  20410680.48947  20410678.87449
 -13416042.48349 -10454045.42746         0.00041  21820498.37046  21820494.97349
  16166563.46148  12597308.93445         0.00041  23728863.80345  23728860.42948
 02 07 11 17 22 30.0000000  0  8 03 09 14 15 17 18 21 23
  -5297240.46748  -4127716.22045         0.00041  23135018.18745  23135014.55448
   -145977.18348         0.00041         0.00041         0.00041  24964727.56748
   -228192.92448   -177812.35344         0.00041  24525019.81344  24525009.63648
  -9157188.65449  -7135472.84146         0.00041  20438380.45646  20438377.28349
  -4830255.07949  -3763839.14146         0.00041  20650764.73146  20650761.51949
 -12679866.60449  -9880410.39347         0.00041  20412105.57347  20412104.56749
 -13455345.68449 -10484671.26146         0.00041  21813019.33646  21813015.93249
  16246665.58448  12659726.07145         0.00041  23744107.40945  23744102.53248
 02 07 11 17 23 00.0000000  0  8 03 09 14 15 17 18 21 23
  -5378553.70348  -4191077.09645         0.00041  23119547.49845  23119540.88148
   -218822.18348         0.00041         0.00041         0.00041  24950865.19248
   -342216.75848   -266661.96944         0.00041  24503323.92844  24503312.75848
  -9162469.64849  -7139587.91646         0.00041  20437375.22946  20437372.02749
  -4822191.01349  -3757555.46046         0.00041  20652299.30146  20652296.18049
 -12671975.03749  -9874261.13347         0.00041  20413607.62647  20413606.17049
 -13494339.64349 -10515056.12346         0.00041  21805599.52146  21805595.46249
  16326814.16348  12722179.43644         0.00041  23759358.32344  23759354.45948
 02 07 11 17 23 30.0000000  0  8 03 09 14 15 17 18 21 23
  -5459487.87948  -4254142.60345         0.00041  23104144.05645  23104139.37748
   -291556.26347         0.00041         0.00041         0.00041  24937024.21747
   -456177.78048         0.00041         0.00041         0.00041  24481628.16148
  -9167443.58549  -7143463.71946         0.00041  20436428.92046  20436426.16949
  -4813834.33849  -3751043.66746         0.00041  20653888.94446  20653886.47649
 -12663692.79949  -9867807.45646         0.00041  20415183.54046  20415182.38249
 -13533032.48749 -10545206.34346         0.00041  21798236.42146  21798232.71749
  16406999.96048  12784661.76545         0.00041  23774617.99145  23774614.11748
 02 07 11 17 24 00.0000000  0  8 03 09 14 15 17 18 21 23
  -5540060.95848  -4316926.82645         0.00041  23088810.34145  23088806.77148
   -364196.87347         0.00041         0.00041         0.00041  24923201.65847
   -570093.94048   -444228.38644         0.00041  24459958.30544  24459951.45948
  -9172130.17649  -7147115.62146         0.00041  20435537.26146  20435534.30549
  -4805204.63349  -3744319.40446         0.00041  20655531.74646  20655528.95149
 -12655041.77149  -9861066.38647         0.00041  20416829.79247  20416828.50349
 -13571445.20949 -10575138.29946         0.00041  21790925.74446  21790922.39849
  16487201.16448  12847156.11245         0.00041  23789880.32745  23789876.41048
 02 07 11 17 24 30.0000000  0  8 03 09 14 15 17 18 21 23
  -5620257.99848  -4379418.00845         0.00041  23073551.10545  23073546.12348
   -436728.34647         0.00041         0.00041         0.00041  24909399.55647
   -683950.28348   -532947.48644         0.00041  24438295.17144  24438285.98748
  -9176516.00449  -7150533.16947         0.00041  20434702.65747  20434699.54149
  -4796288.39949  -3737371.68746         0.00041  20657228.22546  20657225.36749
 -12646010.61749  -9854029.14047         0.00041  20418548.44447  20418547.04049
 -13609566.07049 -10604842.81646         0.00041  21783672.39246  21783668.38249
  16567429.19148  12909671.35745         0.00041  23805147.01045  23805142.42748
 02 07 11 17 25 00.0000000  0  8 03 09 14 15 17 18 21 23
  -5700123.59448  -4441650.88145         0.00041  23058352.72245  23058347.86448
   -509194.50847         0.00041         0.00041         0.00041  24895609.00347
   -797790.97848   -621654.40844         0.00041  24416631.21744  24416623.02648
  -9180646.91949  -7153752.07847         0.00041  20433916.72347  20433913.57049
  -4787131.43349  -3730236.40246         0.00041  20658970.82046  20658967.85649
 -12636647.54049  -9846733.24347         0.00041  20420330.47147  20420329.18749
 -13647442.38849 -10634356.79846         0.00041  21776463.95446  21776460.28149
  16647636.15948  12972170.21244         0.00041  23820409.22344  23820406.01948
 02 07 11 17 25 30.0000000  0  8 03 09 14 15 17 18 21 23
  -5779598.56848  -4503579.38245         0.00041  23043227.73145  23043224.55848
   -581535.76548         0.00041         0.00041         0.00041  24881840.84148
   -911557.04748   -710303.20844         0.00041  24394981.92944  24394972.99448
  -9184465.52249  -7156727.62447         0.00041  20433190.08947  20433186.97449
  -4777676.51149  -3722868.94646         0.00041  20660770.17246  20660767.57549
 -12626897.28349  -9839135.64747         0.00041  20422185.75647  20422184.30049
 -13685018.27049 -10663636.66346         0.00041  21769314.38946  21769310.05149
  16727877.35748  13034695.71744         0.00041  23835680.59744  23835675.81648
 02 07 11 17 26 00.0000000  0  8 03 09 14 15 17 18 21 23
  -5858687.12448  -4565206.83145         0.00041  23028178.88645  23028173.98948
   -653755.58847         0.00041         0.00041         0.00041  24868097.57447
  -1025252.19348   -798896.70641         0.00041         0.00041  24373335.45048
  -9187977.38849  -7159464.14647         0.00041  20432521.75147  20432518.56649
  -4767929.05249  -3715273.54246         0.00041  20662625.09446  20662622.34349
 -12616767.59449  -9831242.39747         0.00041  20424113.29447  20424112.09449
 -13722300.39349 -10692687.63446         0.00041  21762219.03746  21762215.56449
  16808145.30948  13097242.07345         0.00041  23850955.12745  23850949.11848
 02 07 11 17 26 30.0000000  0  7 03 14 15 17 18 21 23
  -5937461.73348  -4626589.56845         0.00041  23013189.14345  23013184.24848
  -1138948.79148   -887491.34841         0.00041         0.00041  24351700.26048
  -9191256.53949  -7162019.34347         0.00041  20431897.86547  20431894.76149
  -4757963.17049  -3707507.94246         0.00041  20664521.53646  20664518.44449
 -12606334.45749  -9823112.68947         0.00041  20426098.50347  20426097.29749
 -13759364.43549 -10721568.67346         0.00041  21755166.07846  21755162.61849
  16888363.87048  13159749.94245         0.00041  23866221.20845  23866214.67048
 02 07 11 17 27 00.0000000  0  7 03 14 15 17 18 21 23
  -6015896.17248  -4687707.30846         0.00041  22998263.26846  22998259.33748
  -1252620.30448   -976066.48244         0.00041  24330079.33544  24330071.58948
  -9194278.20049  -7164373.88847         0.00041  20431322.62847  20431319.58449
  -4747753.93349  -3699552.71046         0.00041  20666464.64346  20666460.91749
 -12595575.62749  -9814729.19747         0.00041  20428146.01947  20428144.83449
 -13796186.81349 -10750261.39846         0.00041  21748158.98946  21748155.81549
  16968555.83448  13222237.07544         0.00041  23881482.69244  23881474.50148
 02 07 11 17 27 30.0000000  0  7 03 14 15 17 18 21 23
  -6093968.10448  -4748542.51845         0.00041  22983407.67945  22983402.34248
  -1366244.32448  -1064604.56644         0.00041  24308459.38644  24308449.20948
  -9197021.66749  -7166511.66047         0.00041  20430800.74947  20430797.63749
  -4737280.48349  -3691391.59046         0.00041  20668457.42846  20668454.04049
 -12584472.33349  -9806077.28247         0.00041  20430258.80247  20430257.86449
 -13832748.36149 -10778750.88846         0.00041  21741201.70946  21741197.96949
  17048740.03148  13284718.14844         0.00041  23896737.46944  23896733.77048
 02 07 11 17 28 00.0000000  0  7 03 14 15 17 18 21 23
  -6171667.87248  -4809087.74545         0.00041  22968621.79245  22968615.91248
  -1479810.80348  -1153097.82744         0.00041  24286843.22744  24286836.54348
  -9199478.71249  -7168426.24647         0.00041  20430333.17747  20430330.17149
  -4726534.61349  -3683018.20446         0.00041  20670502.41946  20670499.23749
 -12573018.39949  -9797152.14147         0.00041  20432438.10047  20432437.34749
 -13869042.20449 -10807031.75346         0.00041  21734296.19546  21734291.38449
  17128922.70548  13347198.01144         0.00041  23911995.93544  23911991.15648
 02 07 11 17 28 30.0000000  0  7 03 14 15 17 18 21 23
  -6249000.09048  -4869346.60846         0.00041  22953904.61946  22953899.94748
  -1593324.40248  -1241549.88044         0.00041  24265246.73644  24265235.56748
  -9201655.55349  -7170122.49146         0.00041  20429918.63946  20429915.58049
  -4715522.41149  -3674437.28446         0.00041  20672597.84446  20672594.62649
 -12561222.51149  -9787960.54347         0.00041  20434683.18547  20434682.20449
 -13905076.19849 -10835110.16546         0.00041  21727438.19446  21727435.07649
  17209095.55448  13409670.23445         0.00041  23927253.41245  23927248.16848
 02 07 11 17 29 00.0000000  0  8 03 09 14 15 17 18 21 23
  -6325961.58248  -4929316.57146         0.00041  22939259.17546  22939255.13248
        -0.52857         0.00051         0.00051         0.00051  24785973.26657
  -1706781.62348  -1329958.02044         0.00041  24243651.69544  24243645.43048
  -9203550.45749  -7171599.04046         0.00041  20429558.21846  20429555.03449
  -4704242.18849  -3665647.51846         0.00041  20674744.39946  20674741.37749
 -12549084.95349  -9778502.70847         0.00041  20436993.16147  20436992.02649
 -13940850.13349 -10862985.91946         0.00041  21720631.20746  21720626.61549
  17289258.51748  13472134.77645         0.00041  23942508.53945  23942502.71148
 02 07 11 17 29 30.0000000  0  8 03 09 14 15 17 18 21 23
  -6402532.67348  -4988982.31045         0.00041  22924687.15545  22924682.43148
    -71535.17747         0.00041         0.00041         0.00041  24772360.27747
  -1820162.70548  -1418306.77644         0.00041  24222077.32044  24222069.44748
  -9205145.23149  -7172841.73046         0.00041  20429254.87646  20429251.78249
  -4692675.78249  -3656634.75346         0.00041  20676945.61146  20676942.48049
 -12536589.76149  -9768766.20547         0.00041  20439370.78747  20439369.43049
 -13976346.87449 -10890645.69446         0.00041  21713875.52746  21713872.36449
  17369427.75748  13534604.18845         0.00041  23957765.52345  23957757.92448
 02 07 11 17 30 00.0000000  0  8 03 09 14 15 17 18 21 23
  -6478742.31648  -5048366.37545         0.00041  22910186.21445  22910180.63648
   -142967.22547         0.00041         0.00041         0.00041  24758766.06847
  -1933496.34148  -1506618.58141         0.00041         0.00041  24200501.91648
  -9206470.58149  -7173874.47346         0.00041  20429002.55046  20428999.56749
  -4680853.59249  -3647422.68446         0.00041  20679195.32946  20679192.15149
 -12523769.84849  -9758776.67047         0.00041  20441810.11447  20441809.02249
 -14011598.57349 -10918114.52946         0.00041  21707167.46946  21707163.58949
  17449570.85648  13597053.23345         0.00041  23973014.84045  23973009.86348
 02 07 11 17 30 30.0000000  0  8 03 09 14 15 17 18 21 23
  -6554601.14648  -5107477.08745         0.00041  22895750.72645  22895744.92348
   -214306.23447         0.00041         0.00041         0.00041  24745191.34847
  -2046792.66148  -1594901.28344         0.00041  24178950.17944  24178943.06648
  -9207538.58249  -7174706.69046         0.00041  20428799.28846  20428796.09949
  -4668787.67549  -3638020.69646         0.00041  20681491.06346  20681488.05549
 -12510639.23249  -9748545.02647         0.00041  20444308.80747  20444307.57549
 -14046619.10049 -10945403.21846         0.00041  21700503.13346  21700499.90649
  17529673.62748  13659470.85945         0.00041  23988258.96645  23988253.05648
 02 07 11 17 31 00.0000000  0  8 03 09 14 15 17 18 21 23
  -6630109.35648  -5166314.61845         0.00041  22881381.94445  22881376.67248
   -285551.68947         0.00041         0.00041         0.00041  24731634.34247
  -2160052.05248  -1683155.17944         0.00041  24157401.87344  24157391.69748
  -9208351.01049  -7175339.75746         0.00041  20428644.48746  20428641.72149
  -4656479.87749  -3628430.22346         0.00041  20683833.11946  20683830.30649
 -12497202.07149  -9738074.51647         0.00041  20446866.24047  20446864.82849
 -14081411.41449 -10972514.09746         0.00041  21693882.36346  21693878.97549
  17609732.40548  13721854.21745         0.00041  24003494.24445  24003487.62048
 02 07 11 17 31 30.0000000  0  8 03 09 14 15 17 18 21 23
  -6705222.57148  -5224844.32745         0.00041  22867088.04745  22867081.77748
   -356658.16248         0.00041         0.00041         0.00041  24718103.91348
  -2273229.36448  -1771345.14344         0.00041  24135860.32944  24135854.92448
  -9208864.49149  -7175739.88346         0.00041  20428546.99346  20428543.97249
  -4643886.88549  -3618617.51846         0.00041  20686229.63746  20686226.58349
 -12483417.36349  -9727333.19547         0.00041  20449489.06747  20449487.65249
 -14115934.06849 -10999414.83246         0.00041  21687313.11246  21687308.92949
  17689788.59348  13784235.52645         0.00041  24018728.05345  24018721.87748
 02 07 11 17 32 00.0000000  0  8 03 09 14 15 17 18 21 23
  -6779945.50248  -5283069.93045         0.00041  22852868.65745  22852863.77748
   -427629.75148         0.00041         0.00041         0.00041  24704596.37848
  -2386329.12648  -1859474.66944         0.00041  24114340.09044  24114331.40248
  -9209085.21749  -7175911.89546         0.00041  20428505.06946  20428502.26749
  -4631014.72249  -3608587.28446         0.00041  20688679.34146  20688676.26549
 -12469293.34349  -9716327.47347         0.00041  20452176.93247  20452175.40149
 -14150194.20049 -11026111.01846         0.00041  21680793.49746  21680790.01549
  17769834.14848  13846608.55945         0.00041  24033962.39345  24033954.46648
 02 07 11 17 32 30.0000000  0  8 03 09 14 15 17 18 21 23
  -6854290.50948  -5341001.08445         0.00041  22838721.33445  22838717.40148
   -498477.94448   -388422.58644         0.00041  24691120.24044  24691114.62448
  -2499363.65648  -1947553.35844         0.00041  24092832.23944  24092821.31848
  -9209027.10749  -7175866.63746         0.00041  20428516.20946  20428513.32549
  -4617877.36849  -3598350.42346         0.00041  20691179.12846  20691176.13649
 -12454846.11549  -9705069.90147         0.00041  20454925.72447  20454924.64649
 -14184207.44149 -11052614.81246         0.00041  21674321.04746  21674317.27849
  17849853.10448  13908960.87745         0.00041  24049185.96145  24049181.86348
 02 07 11 17 33 00.0000000  0  8 03 09 14 15 17 18 21 23
  -6928255.20748  -5398635.82045         0.00041  22824648.79445  22824642.90148
   -569199.60848         0.00041         0.00041         0.00041  24677656.93848
  -2612330.35148  -2035579.19644         0.00041  24071334.18244  24071325.24648
  -9208689.43449  -7175603.52947         0.00041  20428580.61247  20428577.60949
  -4604473.88449  -3587906.17846         0.00041  20693729.95046  20693726.92649
 -12440077.49349  -9693561.89947         0.00041  20457736.50347  20457735.26849
 -14217974.55149 -11078926.82046         0.00041  21667895.13746  21667891.66849
  17929844.46148  13971291.66645         0.00041  24064407.46645  24064403.89248
 02 07 11 17 33 30.0000000  0  8 03 09 14 15 17 18 21 23
  -7001842.46648  -5455976.45245         0.00041  22810643.97045  22810638.42548
   -639796.43748   -498540.76941         0.00041         0.00041  24664221.64548
  -2725231.32948  -2123553.84544         0.00041  24049848.30144  24049839.86248
  -9208076.20549  -7175125.70047         0.00041  20428697.04547  20428693.86849
  -4590808.36249  -3577257.74046         0.00041  20696330.13646  20696327.09549
 -12424993.46349  -9681808.12047         0.00041  20460606.84047  20460605.54349
 -14251500.95849 -11105051.26646         0.00041  21661515.20146  21661511.49949
  18009802.39448  14033596.43544         0.00041  24079622.33744  24079619.43048
 02 07 11 17 34 00.0000000  0  8 03 09 14 15 17 18 21 23
  -7075053.02948  -5513023.60445         0.00041  22796710.84745  22796706.62048
   -710268.75448   -553454.21441         0.00041         0.00041  24650811.51948
  -2838067.57848  -2211478.00544         0.00041  24028376.40944  24028367.22548
  -9207189.75649  -7174434.96347         0.00041  20428866.02947  20428862.89349
  -4576883.20349  -3566406.99546         0.00041  20698980.38046  20698977.26049
 -12409598.64649  -9669812.17247         0.00041  20463536.42247  20463535.13449
 -14284790.99349 -11130991.52646         0.00041  21655180.27446  21655176.93949
  18089722.63248  14095871.83044         0.00041  24094830.22844  24094826.93348
 02 07 11 17 34 30.0000000  0  8 03 09 14 15 17 18 21 23
  -7147866.05948  -5569760.98245         0.00041  22782857.40145  22782850.87248
   -780594.86848         0.00041         0.00041         0.00041  24637428.31648
  -2950817.53648  -2299334.96244         0.00041  24006920.27644  24006912.08548
  -9206010.59749  -7173516.14346         0.00041  20429090.11246  20429087.04649
  -4562678.80749  -3555338.66346         0.00041  20701683.25446  20701679.93849
 -12393875.67449  -9657560.52247         0.00041  20466528.22647  20466526.93149
 -14317826.36649 -11156733.35246         0.00041  21648894.34646  21648890.51649
  18169622.71648  14158131.57344         0.00041  24110035.86944  24110031.09748
 02 07 11 17 35 00.0000000  0  8 03 09 14 15 17 18 21 23
  -7220293.27448  -5626197.69746         0.00041  22769074.53446  22769068.40748
   -850785.19248   -662947.41344         0.00041  24624081.81944  24624072.13948
  -3063492.64248  -2387133.58544         0.00041  23985482.76244  23985471.09648
  -9204551.77849  -7172379.40747         0.00041  20429367.87147  20429365.00549
  -4548208.09749  -3544062.80146         0.00041  20704437.06946  20704433.47049
 -12377839.93149  -9645065.15246         0.00041  20469579.69946  20469578.37149
 -14350621.21849 -11182287.75546         0.00041  21642653.89546  21642650.54649
  18249487.89248  14220364.10244         0.00041  24125236.38644  24125229.57248
 02 07 11 17 35 30.0000000  0  8 03 09 14 15 17 18 21 23
  -7292308.81748  -5682313.63746         0.00041  22755369.02846  22755364.90748
   -920813.30448   -717514.70941         0.00041         0.00041  24610745.66748
  -3176067.28248  -2474853.91044         0.00041  23964055.74644  23964048.39048
  -9202789.24949  -7171006.01746         0.00041  20429703.26046  20429700.12049
  -4533446.96349  -3532560.64446         0.00041  20707245.76346  20707242.60249
 -12361469.64249  -9632309.09846         0.00041  20472695.04246  20472693.81949
 -14383153.35949 -11207637.44946         0.00041  21636462.58646  21636459.32549
  18329340.51248  14282586.84644         0.00041  24140428.00744  24140424.17648
 02 07 11 17 36 00.0000000  0  8 03 09 14 15 17 18 21 23
  -7363907.08348  -5738104.46045         0.00041  22741743.29745  22741740.11348
   -990672.30048         0.00041         0.00041         0.00041  24597451.05348
  -3288534.81148  -2562490.80844         0.00041  23942654.10144  23942646.49348
  -9200718.59149  -7169392.53046         0.00041  20430097.23846  20430094.06049
  -4518391.03449  -3520828.78246         0.00041  20710111.13546  20710107.94049
 -12344762.57149  -9619290.61646         0.00041  20475874.18246  20475873.02649
 -14415419.99649 -11232780.25446         0.00041  21630322.99446  21630319.11649
  18409182.93348  14344801.56744         0.00041  24155625.41344  24155617.82048
 02 07 11 17 36 30.0000000  0  8 03 09 14 15 17 18 21 23
  -7435138.21348  -5793609.21845         0.00041  22728188.96145  22728184.09548
  -1060411.37448         0.00041         0.00041         0.00041  24584180.64748
  -3400945.08448  -2650083.08044         0.00041  23921262.96344  23921255.75248
  -9198390.92949  -7167578.78247         0.00041  20430540.27147  20430537.18749
  -4503091.58749  -3508907.16746         0.00041  20713022.79746  20713019.43349
 -12327772.26849  -9606051.43546         0.00041  20479107.44046  20479105.90249
 -14447474.16349 -11257757.49446         0.00041  21624222.96146  21624219.36549
  18488962.13948  14406967.06944         0.00041  24170803.40244  24170800.32948
 02 07 11 17 37 00.0000000  0  8 03 09 14 15 17 18 21 23
  -7505981.22748  -5848811.51345         0.00041  22714708.17745  22714703.18748
  -1130009.14048         0.00041         0.00041         0.00041  24570936.93748
  -3513277.00648  -2737614.27444         0.00041  23899886.89744  23899880.57048
  -9195786.67449  -7165549.51446         0.00041  20431035.78946  20431032.79649
  -4487529.25749  -3496780.69946         0.00041  20715983.72546  20715980.76149
 -12310481.45949  -9592578.09346         0.00041  20482397.48946  20482396.72149
 -14479297.79549 -11282555.10346         0.00041  21618166.58946  21618163.26349
  18568695.65348  14469096.97044         0.00041  24185978.55344  24185974.71148
 02 07 11 17 37 30.0000000  0  8 03 09 14 15 17 18 21 23
  -7576410.73748  -5903691.61346         0.00041  22701306.29846  22701301.83048
  -1199439.01248         0.00041         0.00041         0.00041  24557724.67948
  -3625504.68348  -2825064.23544         0.00041  23878528.98144  23878524.12448
  -9192882.14949  -7163286.26546         0.00041  20431588.49246  20431585.38449
  -4471679.88649  -3484430.56446         0.00041  20718999.94846  20718996.67949
 -12292868.40749  -9578853.64947         0.00041  20485749.46947  20485748.30349
 -14510868.45549 -11307155.59446         0.00041  21612158.54546  21612155.29649
  18648405.75948  14531208.57244         0.00041  24201149.69044  24201142.05348
 02 07 11 17 38 00.0000000  0  8 03 09 14 15 17 18 21 23
  -7646431.20248  -5958252.99046         0.00041  22687981.11946  22687977.86348
  -1268704.45248   -988598.23441         0.00041         0.00041  24544544.35548
  -3737632.29248  -2912436.25744         0.00041  23857196.08344  23857186.65148
  -9189683.25549  -7160793.63746         0.00041  20432197.34146  20432194.21549
  -4455549.17249  -3471861.20846         0.00041  20722069.55546  20722066.10449
 -12274941.28949  -9564884.47947         0.00041  20489161.29247  20489159.89549
 -14542192.91849 -11331564.23946         0.00041  21606198.36746  21606194.94449
  18728084.67148  14593295.92744         0.00041  24216311.52644  24216303.33548
 02 07 11 17 38 30.0000000  0  8 03 09 14 15 17 18 21 23
  -7716038.40948  -6012492.31346         0.00041  22674735.70346  22674731.56848
  -1337800.39048         0.00041         0.00041         0.00041  24531396.11948
  -3849654.98248  -2999726.52544         0.00041  23835878.46744  23835869.03548
  -9186187.18749  -7158069.45146         0.00041  20432862.44546  20432859.75449
  -4439134.33849  -3459070.46646         0.00041  20725193.26346  20725190.07949
 -12256699.27549  -9550669.94047         0.00041  20492632.56847  20492631.09249
 -14573270.27749 -11355780.33046         0.00041  21600284.39446  21600281.26649
  18807733.71148  14655360.02244         0.00041  24231469.87244  24231458.70348
 02 07 11 17 39 00.0000000  0  8 03 09 14 15 17 18 21 23
  -7785218.18148  -6066398.57546         0.00041  22661571.98446  22661567.08648
  -1406711.61248  -1096135.97141         0.00041         0.00041  24518282.57848
  -3961558.50748  -3086923.95444         0.00041  23814579.26844  23814573.42248
  -9182380.93549  -7155103.56747         0.00041  20433586.96147  20433584.01849
  -4422422.71049  -3446048.44246         0.00041  20728373.33246  20728370.69849
 -12238131.83549  -9536201.81947         0.00041  20496165.75047  20496164.49049
 -14604089.66249 -11379795.41146         0.00041  21594419.47046  21594415.80749
  18887363.75148  14717409.28244         0.00041  24246618.97444  24246613.57848
 02 07 11 17 39 30.0000000  0  8 03 09 14 15 17 18 21 23
  -7853990.74248  -6119987.54846         0.00041  22648483.70846  22648479.79048
  -1475457.50448  -1149704.12744         0.00041  24505205.33744  24505201.11848
  -4073362.70248  -3174043.93444         0.00041  23793301.38844  23793296.51248
  -9178286.21849  -7151912.90047         0.00041  20434366.18347  20434363.41349
  -4405435.56049  -3432811.73746         0.00041  20731605.88146  20731602.77749
 -12219263.10649  -9521498.92247         0.00041  20499756.17947  20499755.00149
 -14634673.82049 -11403627.18946         0.00041  21588599.65146  21588595.95249
  18966951.62048  14779425.66844         0.00041  24261764.28244  24261758.71048
 02 07 11 17 40 00.0000000  0  8 03 09 14 15 17 18 21 23
  -7922371.00948  -6173270.85046         0.00041  22635472.67846  22635468.46448
  -1544051.71148         0.00041         0.00041         0.00041  24492147.94248
  -4185081.70148  -3261097.57644         0.00041  23772048.98344  23772037.81348
  -9173919.02649  -7148509.91546         0.00041  20435197.31246  20435194.25849
  -4388189.03049  -3419372.92946         0.00041  20734888.01046  20734884.90549
 -12200111.29049  -9506575.44347         0.00041  20503400.55747  20503399.38749
 -14665040.20849 -11427289.28246         0.00041  21582821.05046  21582817.53049
  19046479.49948  14841395.32444         0.00041  24276899.48444  24276892.08848
 02 07 11 17 40 30.0000000  0  8 03 09 14 15 17 18 21 23
  -7990358.04148  -6226247.70346         0.00041  22622534.90346  22622530.62848
  -1612492.36348         0.00041         0.00041         0.00041  24479124.15548
  -4296714.09148  -3348083.71644         0.00041  23750803.00844  23750795.21948
  -9169279.65349  -7144894.83646         0.00041  20436080.15046  20436077.13449
  -4370683.45849  -3405732.25446         0.00041  20738218.95546  20738215.73449
 -12180678.88449  -9491433.32247         0.00041  20507098.83547  20507097.42049
 -14695190.73549 -11450783.17346         0.00041  21577083.39346  21577079.73549
  19125945.30348  14903316.58745         0.00041  24292020.95845  24292014.94848
 02 07 11 17 41 00.0000000  0  8 03 09 14 15 17 18 21 23
  -8057878.53248  -6278861.04046         0.00041  22609685.61346  22609681.52748
  -1680705.30548         0.00041         0.00041         0.00041  24466143.60748
  -4408186.27348  -3434945.00844         0.00041  23729590.61544  23729582.17648
  -9164296.28449  -7141011.70746         0.00041  20437028.40246  20437025.39149
  -4352847.06749  -3391833.80246         0.00041  20741613.15946  20741609.99649
 -12160896.26949  -9476018.31247         0.00041  20510862.89147  20510861.74449
 -14725055.12949 -11474054.10046         0.00041  21571400.59146  21571397.46249
  19205419.12348  14965244.13245         0.00041  24307144.26145  24307139.07448
 02 07 11 17 41 30.0000000  0  8 03 09 14 15 17 18 21 23
  -8124967.10048  -6331137.82346         0.00041  22596918.15946  22596914.45248
  -1748723.95948         0.00041         0.00041         0.00041  24453199.01348
  -4519532.45648  -3521708.14344         0.00041  23708402.17144  23708393.98048
  -9159004.81149  -7136888.49946         0.00041  20438035.28946  20438032.03749
  -4334715.66049  -3377705.46746         0.00041  20745063.75646  20745060.54849
 -12140801.54149  -9460360.09647         0.00041  20514686.98347  20514685.60249
 -14754670.93449 -11497131.32646         0.00041  21565764.70346  21565761.60849
  19284863.25848  15027148.52445         0.00041  24322261.46845  24322256.69048
 02 07 11 17 42 00.0000000  0  8 03 09 14 15 17 18 21 23
  -8191649.14948  -6383097.80846         0.00041  22584229.10746  22584225.52648
  -1816572.82048  -1415507.66241         0.00041         0.00041  24440287.02348
  -4630777.68848  -3608392.58945         0.00041  23687233.19845  23687225.78748
  -9153432.01349  -7132546.07046         0.00041  20439095.74246  20439092.80349
  -4316316.06049  -3363368.15446         0.00041  20748564.71846  20748561.49549
 -12120423.90649  -9444481.42947         0.00041  20518564.72947  20518563.53049
 -14784066.58949 -11520037.01346         0.00041  21560171.27546  21560167.64749
  19364249.21948  15089007.62645         0.00041  24337370.17645  24337362.31948
 02 07 11 17 42 30.0000000  0  8 03 09 14 15 17 18 21 23
  -8257917.21348  -6434735.20646         0.00041  22571619.01946  22571615.10448
  -1884243.29648         0.00041         0.00041         0.00041  24427410.52248
  -4741913.89548  -3694992.11745         0.00041  23666082.77745  23666076.90348
  -9147571.79049  -7127979.67446         0.00041  20440210.88346  20440207.69549
  -4297641.91149  -3348816.91246         0.00041  20752118.52946  20752114.99949
 -12099759.34949  -9428379.18946         0.00041  20522496.72546  20522495.45249
 -14813237.91149 -11542767.88246         0.00041  21554619.73946  21554616.37849
  19443581.55548  15150824.90345         0.00041  24352467.91745  24352459.23048
 02 07 11 17 43 00.0000000  0  8 03 09 14 15 17 18 21 23
  -8323751.13148  -6486034.33245         0.00041  22559089.69045  22559086.84848
  -1951714.12648  -1520812.28441         0.00041         0.00041  24414570.20148
  -4852920.29448  -3781490.45445         0.00041  23644960.39845  23644952.20648
  -9141405.07749  -7123174.45646         0.00041  20441384.53346  20441381.56949
  -4278674.31249  -3334037.01046         0.00041  20755727.65846  20755724.62649
 -12078791.06749  -9412040.27947         0.00041  20526487.41647  20526486.00249
 -14842167.52649 -11565310.41446         0.00041  21549114.72446  21549111.45949
  19522877.45048  15212613.80945         0.00041  24367553.53745  24367549.74248
 02 07 11 17 43 30.0000000  0  8 03 09 14 15 17 18 21 23
  -8389156.39448  -6536999.44345         0.00041  22546644.74245  22546640.28348
  -2018990.06248  -1573234.93344         0.00041  24401779.26744  24401768.09748
  -4963801.95348  -3867891.60145         0.00041  23623859.33045  23623851.95348
  -9134938.27249  -7118135.40446         0.00041  20442615.29046  20442612.12049
  -4259420.01049  -3319033.70046         0.00041  20759391.66246  20759388.80949
 -12057528.11949  -9395471.76646         0.00041  20530533.28546  20530531.89249
 -14870862.99949 -11587670.49046         0.00041  21543654.38646  21543650.08449
  19602128.60148  15274367.82244         0.00041  24382636.63844  24382630.81048
 02 07 11 17 44 00.0000000  0  8 03 09 14 15 17 18 21 23
  -8454127.85748  -6587626.47446         0.00041  22534281.81146  22534277.32348
  -2086064.62348         0.00041         0.00041         0.00041  24389005.32548
  -5074553.32648  -3954191.22345         0.00041  23602783.85345  23602775.66248
  -9128167.88349  -7112859.78847         0.00041  20443903.30847  20443900.05749
  -4239875.21049  -3303804.02146         0.00041  20763111.48446  20763108.12849
 -12035968.95849  -9378672.43746         0.00041  20534636.02146  20534634.54249
 -14899322.61549 -11609846.78646         0.00041  21538238.26446  21538235.07149
  19681337.15048  15336088.65244         0.00041  24397707.55044  24397702.36548
 02 07 11 17 44 30.0000000  0  8 03 09 14 15 17 18 21 23
  -8518678.24748  -6637925.43146         0.00041  22521997.42846  22521994.26448
  -2152949.79448         0.00041         0.00041         0.00041  24376277.64348
  -5185186.69648  -4040398.88345         0.00041  23581731.38545  23581723.19448
  -9121108.04949  -7107358.63547         0.00041  20445246.92047  20445243.64749
  -4220053.90849  -3288358.89046         0.00041  20766883.30846  20766879.87949
 -12014129.92549  -9361655.02846         0.00041  20538791.78146  20538790.42449
 -14927561.76149 -11631851.28746         0.00041  21532864.73846  21532861.24549
  19760487.41948  15397764.04544         0.00041  24412770.73444  24412765.12048
 02 07 11 17 45 00.0000000  0  8 03 09 14 15 17 18 21 23
  -8582817.46348  -6687904.00545         0.00041  22509791.89545  22509788.16248
  -2219653.89648  -1729595.80344         0.00041  24363592.42144  24363583.73348
  -5295711.16848  -4126521.70844         0.00041  23560698.39344  23560689.95348
  -9113769.66349  -7101640.41947         0.00041  20446643.35247  20446640.27249
  -4199967.13949  -3272706.89746         0.00041  20770705.53446  20770702.30949
 -11992024.27449  -9344429.86546         0.00041  20542998.39546  20542996.90249
 -14955592.97349 -11653693.76146         0.00041  21527530.34546  21527526.99549
  19839566.63148  15459384.08444         0.00041  24427818.79344  24427814.10448
 02 07 11 17 45 30.0000000  0  8 03 09 14 15 17 18 21 23
  -8646509.60648  -6737534.20845         0.00041  22497673.15145  22497667.44948
  -2286140.19248         0.00041         0.00041         0.00041  24350931.60848
  -5406090.64548  -4212531.51845         0.00041  23539695.70045  23539686.26848
  -9106118.29049  -7095678.32147         0.00041  20448099.39047  20448096.22349
  -4179580.24949  -3256821.03846         0.00041  20774585.20446  20774582.01249
 -11969619.61749  -9326971.71546         0.00041  20547262.08546  20547260.63149
 -14983382.95749 -11675348.27546         0.00041  21522241.72046  21522238.50649
  19918607.94248  15520974.58744         0.00041  24442859.91444  24442855.25348
 02 07 11 17 46 00.0000000  0  8 03 09 14 15 17 18 21 23
  -8709709.85948  -6786781.07746         0.00041  22485646.57046  22485642.44448
  -2352362.60748         0.00041         0.00041         0.00041  24338328.76748
  -5516279.26648  -4298392.64544         0.00041  23518725.60944  23518719.95948
  -9098109.98049  -7089438.10047         0.00041  20449623.51547  20449620.52849
  -4158849.47349  -3240667.22046         0.00041  20778530.65746  20778526.95949
 -11946874.49249  -9309248.27146         0.00041  20551590.11446  20551589.00549
 -15010890.03749 -11696782.33046         0.00041  21517007.77046  21517004.18449
  19997653.36748  15582568.30544         0.00041  24457903.51644  24457895.78148
 02 07 11 17 46 30.0000000  0  8 03 09 14 15 17 18 21 23
  -8772481.66248  -6835694.09045         0.00041  22473702.13645  22473696.15248
  -2418383.52548  -1884449.44341         0.00041         0.00041  24325766.09148
  -5626340.13548  -4384154.18344         0.00041  23497782.55444  23497775.08948
  -9089809.49649  -7082970.20847         0.00041  20451202.78447  20451200.07449
  -4137839.55149  -3224295.89646         0.00041  20782528.13646  20782524.97649
 -11923855.95249  -9291311.76946         0.00041  20555970.56746  20555969.32949
 -15038180.38249 -11718047.51446         0.00041  21511814.50746  21511811.27349
  20076636.61448  15644113.56244         0.00041  24472935.03844  24472926.35148
 02 07 11 17 47 00.0000000  0  8 03 09 14 15 17 18 21 23
  -8834815.16248  -6884265.59345         0.00041  22461838.06745  22461834.32048
  -2484192.18348         0.00041         0.00041         0.00041  24313241.68848
  -5736263.02948  -4469808.21844         0.00041  23476865.36644  23476857.17448
  -9081208.58949  -7076268.22346         0.00041  20452839.59446  20452836.46349
  -4116541.87549  -3207700.34446         0.00041  20786581.09346  20786578.04149
 -11900557.49449  -9273157.15147         0.00041  20560404.09047  20560403.00949
 -15065246.96849 -11739138.33846         0.00041  21506663.53046  21506660.43949
  20155564.57448  15705615.74244         0.00041  24487953.23244  24487946.69448
 02 07 11 17 47 30.0000000  0  8 03 09 14 15 17 18 21 23
  -8896702.51148  -6932489.47245         0.00041  22450061.82245  22450058.74748
  -2549779.63647         0.00041         0.00041         0.00041  24300760.15947
  -5846039.45548  -4555348.11845         0.00041  23455972.32345  23455967.80148
  -9072300.42149  -7069326.81446         0.00041  20454534.91646  20454532.04749
  -4094949.86349  -3190875.44246         0.00041  20790690.05046  20790686.89249
 -11876974.61849  -9254780.91147         0.00041  20564891.90447  20564890.44249
 -15092084.18249 -11760050.43046         0.00041  21501556.54246  21501553.32949
  20234442.40448  15767078.83844         0.00041  24502960.94644  24502956.70348
 02 07 11 17 48 00.0000000  0  7 03 14 15 17 18 21 23
  -8958146.13548  -6980367.55546         0.00041  22438370.73446  22438365.78848
  -5955670.94648  -4640775.08945         0.00041  23435112.33345  23435105.35248
  -9063088.31049  -7062148.56246         0.00041  20456287.79246  20456284.78249
  -4073066.84149  -3173823.78446         0.00041  20794854.34346  20794850.92249
 -11853113.17849  -9236187.60947         0.00041  20569432.64747  20569431.51749
 -15118697.59149 -11780788.13346         0.00041  21496492.03846  21496489.39749
  20313264.98648  15828498.93041         0.00041         0.00041  24517956.84748
 02 07 11 17 48 30.0000000  0  7 03 14 15 17 18 21 23
  -9019153.66948  -7027905.82546         0.00041  22426760.01946  22426756.69448
  -6065164.74948  -4726094.78844         0.00041  23414275.23644  23414267.35648
  -9053581.25949  -7054740.48546         0.00041  20458096.83246  20458093.73149
  -4050901.83949  -3156552.38746         0.00041  20799072.15646  20799068.74849
 -11828984.21249  -9217385.84147         0.00041  20574024.08347  20574023.08749
 -15145097.43349 -11801359.42446         0.00041  21491468.25146  21491465.11549
  20392021.99048  15889867.89841         0.00041         0.00041  24532942.47648
 02 07 11 17 49 00.0000000  0  8 03 09 14 15 17 18 21 23
  -9079679.86348  -7075069.03246         0.00041  22415241.97746  22415237.15748
        -0.28258         0.00051         0.00051         0.00051  24263574.24058
  -6174474.70848  -4811271.23545         0.00041  23393475.38545  23393466.44948
  -9043735.16849  -7047068.22846         0.00041  20459970.73846  20459967.68949
  -4028410.71649  -3139026.85646         0.00041  20803352.26546  20803348.66749
 -11804545.96749  -9198343.06947         0.00041  20578674.76047  20578673.49049
 -15171241.70449 -11821731.56846         0.00041  21486493.81146  21486490.52049
  20470755.90448  15951218.84744         0.00041  24547932.46144  24547925.06548
 02 07 11 17 49 30.0000000  0  8 03 09 14 15 17 18 21 23
  -9139742.68848  -7121871.17646         0.00041  22403813.17746  22403809.17548
    -64650.75248    -50375.95341         0.00041         0.00041  24251270.88048
  -6283618.52748  -4896318.20745         0.00041  23372704.65445  23372698.61748
  -9033569.26849  -7039146.76746         0.00041  20461905.03946  20461901.98749
  -4005612.60949  -3121262.14146         0.00041  20807690.68846  20807687.01049
 -11779819.74549  -9179075.89947         0.00041  20583379.98947  20583378.60449
 -15197150.87449 -11841920.50846         0.00041  21481563.94846  21481559.65549
  20549445.95148  16012535.67944         0.00041  24562910.32444  24562899.89848
 02 07 11 17 50 00.0000000  0  8 03 09 14 15 17 18 21 23
  -9199364.97748  -7168330.07746         0.00041  22392467.15846  22392463.77048
   -129079.71348         0.00041         0.00041         0.00041  24239010.85448
  -6392618.32448  -4981252.96045         0.00041  23351961.53845  23351956.89148
  -9023107.50649  -7030994.76946         0.00041  20463895.92446  20463892.80749
  -3982531.60349  -3103276.98946         0.00041  20812082.55646  20812079.36249
 -11754831.89749  -9159604.86647         0.00041  20588134.97347  20588133.61149
 -15222850.61049 -11861946.25646         0.00041  21476672.74246  21476669.54249
  20628066.71948  16073798.45744         0.00041  24577864.82444  24577861.56848
 02 07 11 17 50 30.0000000  0  8 03 09 14 15 17 18 21 23
  -9258551.98248  -7214449.76446         0.00041  22381204.67346  22381199.92448
   -193291.01848         0.00041         0.00041         0.00041  24226791.55548
  -6501478.62548  -5066079.01345         0.00041  23331247.97545  23331240.79748
  -9012356.11049  -7022617.08746         0.00041  20465941.95446  20465938.77349
  -3959173.84249  -3085076.17946         0.00041  20816527.16946  20816524.09449
 -11729590.61949  -9139936.34947         0.00041  20592938.23447  20592936.87049
 -15248348.25349 -11881814.54146         0.00041  21471820.82646  21471817.52549
  20706610.49648  16135001.29144         0.00041  24592811.05044  24592807.22348
 02 07 11 17 51 00.0000000  0  8 03 09 14 15 17 18 21 23
  -9317280.58848  -7260212.23646         0.00041  22370028.37746  22370023.64448
   -257260.51748         0.00041         0.00041         0.00041  24214620.25948
  -6610175.55648  -5150777.79245         0.00041  23310563.09645  23310555.78148
  -9001293.32549  -7013996.76846         0.00041  20468047.21746  20468044.00049
  -3935517.23949  -3066642.52046         0.00041  20821029.30246  20821026.07949
 -11704076.48349  -9120055.22246         0.00041  20597793.27546  20597792.12149
 -15273623.90249 -11901509.83746         0.00041  21467011.09146  21467007.65849
  20785097.51948  16196159.89244         0.00041  24607752.99344  24607743.06448
 02 07 11 17 51 30.0000000  0  8 03 09 14 15 17 18 21 23
  -9375519.91048  -7305593.49346         0.00041  22358944.97246  22358941.61448
   -320955.95048   -250093.58641         0.00041         0.00041  24202498.28648
  -6718677.73248  -5235324.80645         0.00041  23289915.38245  23289907.88848
  -8989889.24749  -7005110.50246         0.00041  20470217.29646  20470214.19049
  -3911532.26949  -3047952.99046         0.00041  20825593.66246  20825590.00249
 -11678261.86549  -9099939.95346         0.00041  20602705.74946  20602704.60949
 -15298649.68149 -11921010.43146         0.00041  21462248.97346  21462245.80949
  20863555.94848  16257296.17044         0.00041  24622679.25344  24622673.29848
 02 07 11 17 52 00.0000000  0  8 03 09 14 15 17 18 21 23
  -9433286.65248  -7350606.51146         0.00041  22347952.87246  22347948.76648
   -384392.75448         0.00041         0.00041         0.00041  24190427.42548
  -6827000.86848  -5319732.31745         0.00041  23269301.43045  23269294.08248
  -8978161.62449  -6995972.12547         0.00041  20472449.12747  20472445.76949
  -3887236.74649  -3029021.45746         0.00041  20830216.24446  20830212.99049
 -11652166.63449  -9079606.02546         0.00041  20607671.18646  20607670.09649
 -15323444.80549 -11940331.29646         0.00041  21457530.15946  21457526.99849
  20941966.78548  16318395.43844         0.00041  24637601.10344  24637595.23648
 02 07 11 17 52 30.0000000  0  8 03 09 14 15 17 18 21 23
  -9490597.83948  -7395264.53546         0.00041  22337046.67346  22337043.09648
   -447586.83148         0.00041         0.00041         0.00041  24178401.43248
  -6935161.52548  -5404013.22145         0.00041  23248719.04245  23248712.17648
  -8966128.45149  -6986595.65747         0.00041  20474738.97147  20474735.80849
  -3862648.86149  -3009862.11246         0.00041  20834895.75146  20834892.55449
 -11625811.02949  -9059069.20946         0.00041  20612686.88546  20612685.47749
 -15348028.67749 -11959487.54346         0.00041  21452852.47046  21452849.33949
  21020310.35248  16379442.22444         0.00041  24652511.79844  24652503.11148
 02 07 11 17 53 00.0000000  0  8 03 09 14 15 17 18 21 23
  -9547448.98148  -7439564.09346         0.00041  22326228.41146  22326225.21248
   -510532.67448         0.00041         0.00041         0.00041  24166423.01148
  -7043154.68648  -5488163.58945         0.00041  23228169.29045  23228162.08348
  -8953786.66849  -6976978.71147         0.00041  20477087.54247  20477084.47449
  -3837765.12549  -2990472.24446         0.00041  20839631.11746  20839628.05249
 -11599194.32249  -9038328.94046         0.00041  20617751.88846  20617750.40649
 -15372399.36649 -11978477.67546         0.00041  21448214.37646  21448211.00449
  21098588.54048  16440438.10144         0.00041  24667409.21644  24667398.79148
 02 07 11 17 53 30.0000000  0  8 03 09 14 15 17 18 21 23
  -9603816.81048  -7483487.02646         0.00041  22315502.63246  22315498.30248
   -573205.54348         0.00041         0.00041         0.00041  24154497.38248
  -7150956.13348  -5572164.57945         0.00041  23207654.36345  23207649.23748
  -8941114.01649  -6967103.94647         0.00041  20479499.11847  20479495.91649
  -3812563.29049  -2970834.50746         0.00041  20844426.63246  20844423.46549
 -11572296.00449  -9017369.23746         0.00041  20622870.31646  20622869.05949
 -15396536.94449 -11997286.16546         0.00041  21443621.40046  21443617.80749
  21176822.07948  16501399.16144         0.00041  24682290.97444  24682287.31148
 02 07 11 17 54 00.0000000  0  8 03 09 14 15 17 18 21 23
  -9659696.34648  -7527029.47646         0.00041  22304868.19146  22304864.61648
   -635599.32548         0.00041         0.00041         0.00041  24142623.85448
  -7258559.93548  -5656011.54945         0.00041  23187178.48045  23187172.68348
  -8928106.66949  -6956968.37546         0.00041  20481974.26146  20481971.04249
  -3787039.51349  -2950945.90146         0.00041  20849283.93746  20849280.72349
 -11545114.77149  -8996189.07746         0.00041  20628042.42846  20628041.35149
 -15420438.23249 -12015910.54046         0.00041  21439073.03346  21439069.48549
  21255013.60448  16562327.50344         0.00041  24697173.01444  24697165.83548
 02 07 11 17 54 30.0000000  0  8 03 09 14 15 17 18 21 23
  -9715114.25148  -7570212.24346         0.00041  22294322.30446  22294319.07648
   -697739.34248         0.00041         0.00041         0.00041  24130798.98548
  -7365992.15848  -5739724.84145         0.00041  23166733.93645  23166728.62648
  -8914791.88349  -6946593.24447         0.00041  20484508.17947  20484504.97749
  -3761221.48349  -2930827.99346         0.00041  20854197.15746  20854194.04749
 -11517680.29749  -8974811.58246         0.00041  20633263.25146  20633262.11649
 -15444133.07049 -12034374.04446         0.00041  21434564.01446  21434560.32549
  21333133.98848  16623200.40944         0.00041  24712041.22144  24712032.03748
 02 07 11 17 55 00.0000000  0  8 03 09 14 15 17 18 21 23
  -9770064.60048  -7613030.66546         0.00041  22283865.22046  22283861.27748
   -759618.33947         0.00041         0.00041         0.00041  24119024.63047
  -7473246.10848  -5823299.23545         0.00041  23146324.44245  23146317.03848
  -8901165.08249  -6935974.99047         0.00041  20487101.26947  20487098.16649
  -3735104.32649  -2910477.01046         0.00041  20859167.03646  20859163.51049
 -11489989.89549  -8953234.66346         0.00041  20638532.93846  20638531.30249
 -15467617.93349 -12052673.94046         0.00041  21430095.11646  21430091.97749
  21411186.66948  16684020.56144         0.00041  24726891.34144  24726884.64848
 02 07 11 17 55 30.0000000  0  7 03 14 15 17 18 21 23
  -9824529.50948  -7655470.82146         0.00041  22273501.42446  22273498.18948
  -7580303.15048  -5906720.16245         0.00041  23125955.75545  23125945.08148
  -8887209.52449  -6925100.55546         0.00041  20489756.78546  20489753.62249
  -3708671.16349  -2889879.79046         0.00041  20864197.17446  20864193.74049
 -11462028.88449  -8931446.88146         0.00041  20643853.63246  20643852.10249
 -15490877.19349 -12070798.02946         0.00041  21425669.44146  21425665.43049
  21489187.07448  16744799.94944         0.00041  24741735.58744  24741728.24248
 02 07 11 17 56 00.0000000  0  7 03 14 15 17 18 21 23
  -9878526.38048  -7697546.28346         0.00041  22263226.20846  22263222.58248
  -7687179.75348  -5990000.50045         0.00041  23105615.15045  23105607.34948
  -8872943.31249  -6913984.04746         0.00041  20492471.57846  20492468.49049
  -3681940.38349  -2869050.66246         0.00041  20869283.99946  20869280.83049
 -11433817.66349  -8909464.12446         0.00041  20649221.86546  20649220.62749
 -15513930.86249 -12088761.92646         0.00041  21421282.21646  21421279.16649
  21567115.43348  16805523.20044         0.00041  24756563.25344  24756557.60948
 02 07 11 17 56 30.0000000  0  7 03 14 15 17 18 21 23
  -9932047.13748  -7739250.72146         0.00041  22253040.62146  22253036.45448
  -7793867.05148  -6073133.32345         0.00041  23085312.16445  23085306.30948
  -8858359.50949  -6902620.06846         0.00041  20495246.80246  20495243.62349
  -3654904.88349  -2847984.08746         0.00041  20874428.72546  20874425.34449
 -11405351.49749  -8887282.70646         0.00041  20654638.84446  20654637.50549
 -15536773.78749 -12106561.59646         0.00041  21416935.04246  21416931.43549
  21644977.34848  16866194.68344         0.00041  24771380.09444  24771373.22048
 02 07 11 17 57 00.0000000  0  7 03 14 15 17 18 21 23
  -9985103.24148  -7780593.11746         0.00041  22242944.85046  22242941.31348
  -7900375.85348  -6156127.05745         0.00041  23065044.77245  23065038.35448
  -8843470.56749  -6891018.31446         0.00041  20498079.75446  20498076.79949
  -3627577.29949  -2826689.90646         0.00041  20879629.32746  20879625.90049
 -11376644.99849  -8864914.01546         0.00041  20660101.87746  20660100.53749
 -15559419.95249 -12124207.94046         0.00041  21412625.94746  21412622.66749
  21722759.17748  16926803.82744         0.00041  24786181.04544  24786175.60948
 02 07 11 17 57 30.0000000  0  7 03 14 15 17 18 21 23
 -10037668.06948  -7821552.70646         0.00041  22232943.17646  22232939.24248
  -8006678.83248  -6238960.41445         0.00041  23044814.92245  23044809.73648
  -8828251.15749  -6879159.04946         0.00041  20500976.00446  20500972.79449
  -3599932.06049  -2805148.20946         0.00041  20884889.23246  20884886.04949
 -11347675.03049  -8842340.03046         0.00041  20665614.59846  20665613.17949
 -15581845.21349 -12141682.15646         0.00041  21408358.48846  21408355.09549
  21800485.06448  16987369.33244         0.00041  24800977.85844  24800966.19248
 02 07 11 17 58 00.0000000  0  7 03 14 15 17 18 21 23
 -10089715.89748  -7862109.41546         0.00041  22223038.25046  22223033.43748
  -8112749.06348  -6321612.37845         0.00041  23024628.15845  23024624.78348
  -8812676.10649  -6867022.67446         0.00041  20503940.16746  20503936.98249
  -3571944.15549  -2783339.49446         0.00041  20890215.63346  20890211.85849
 -11318418.52049  -8819542.76546         0.00041  20671181.90146  20671180.59549
 -15604026.65849 -12158966.37746         0.00041  21404137.71346  21404134.81849
  21878178.76048  17047909.75044         0.00041  24815756.89544  24815751.55548
 02 07 11 17 58 30.0000000  0  7 03 14 15 17 18 21 23
 -10141276.46148  -7902286.42646         0.00041  22213226.29146  22213222.82648
  -8218615.47348  -6404105.53845         0.00041  23004486.18045  23004477.98848
  -8796776.35749  -6854633.28946         0.00041  20506965.67546  20506962.59249
  -3543644.54849  -2761287.89646         0.00041  20895601.25746  20895597.22649
 -11288908.41049  -8796547.88547         0.00041  20676797.75047  20676796.55549
 -15625996.34649 -12176085.60046         0.00041  21399956.62646  21399953.18049
  21955808.00748  17108399.88644         0.00041  24830530.37944  24830524.90548
 02 07 11 17 59 00.0000000  0  8 03 09 14 15 17 18 21 23
 -10192346.55548  -7942081.27946         0.00041  22203508.05146  22203504.96848
        -0.86957         0.00051         0.00051         0.00051  24026730.78457
  -8324274.07248  -6486436.75445         0.00041  22984377.98745  22984371.16948
  -8780549.58649  -6841989.07446         0.00041  20510053.60746  20510050.40049
  -3515030.90249  -2738991.59546         0.00041  20901046.11246  20901042.28249
 -11259144.51649  -8773355.25946         0.00041  20682461.24746  20682459.92049
 -15647752.96749 -12193038.77946         0.00041  21395816.65046  21395813.39149
  22033373.67348  17168840.55844         0.00041  24845289.63544  24845284.64048
 02 07 11 17 59 30.0000000  0  7 03 14 15 17 18 21 23
 -10242949.83848  -7981512.38646         0.00041  22193878.37246  22193875.07048
  -8429747.68148  -6568623.81645         0.00041  22964306.61245  22964300.90748
  -8764020.39849  -6829109.21846         0.00041  20513199.37846  20513196.04049
  -3486127.76149  -2716469.72046         0.00041  20906546.60546  20906542.46649
 -11229153.61449  -8749985.74746         0.00041  20688168.44246  20688166.90149
 -15669323.46049 -12209846.93146         0.00041  21391711.58946  21391708.55649
  22110849.95148  17229211.50444         0.00041  24860035.48044  24860027.28948
 02 07 11 18 00 00.0000000  0  7 03 14 15 17 18 21 23
 -10293036.36848  -8020540.80646         0.00041  22184347.59446  22184343.20148
  -8534985.46048  -6650627.10945         0.00041  22944280.74145  22944274.95948
  -8747139.64449  -6815955.41746         0.00041  20516411.61546  20516408.44249
  -3456886.37049  -2693684.26946         0.00041  20912110.46346  20912106.72749
 -11198889.03649  -8726402.97546         0.00041  20693927.63046  20693926.15949
 -15690660.38149 -12226473.08546         0.00041  21387651.45946  21387648.29649
  22188284.48448         0.00041         0.00041         0.00041  24874761.81848
 02 07 11 18 00 30.0000000  0  7 03 14 15 17 18 21 23
 -10342626.79648  -8059182.64646         0.00041  22174910.57346  22174906.40348
  -8640007.15348  -6732462.00745         0.00041  22924294.83245  22924289.26448
  -8729929.10949  -6802544.63446         0.00041  20519686.16646  20519683.22749
  -3427328.09549  -2670651.89646         0.00041  20917735.84146  20917731.61649
 -11168374.29949  -8702625.27246         0.00041  20699734.09146  20699732.54949
 -15711786.27849 -12242934.79246         0.00041  21383631.13546  21383627.99449
  22265654.46148  17349838.15544         0.00041  24889495.28044  24889485.84748
 02 07 11 18 01 00.0000000  0  7 03 14 15 17 18 21 23
 -10391729.57348  -8097444.53746         0.00041  22165566.51046  22165563.31448
  -8744820.19648  -6814134.34345         0.00041  22904349.71745  22904344.22948
  -8712397.77149  -6788883.87046         0.00041  20523022.69646  20523019.47949
  -3397462.11649  -2647379.75446         0.00041  20923418.82146  20923415.14249
 -11137620.54349  -8678661.31746         0.00041  20705586.38046  20705585.17449
 -15732711.83049 -12259240.38946         0.00041  21379649.15146  21379645.69649
  22342949.62848  17410068.02141         0.00041         0.00041  24904194.97748
 02 07 11 18 01 30.0000000  0  7 03 14 15 17 18 21 23
 -10440313.72348  -8135302.31746         0.00041  22156320.93846  22156317.41548
  -8849392.69348  -6895619.25045         0.00041  22884450.33245  22884445.42748
  -8694515.72649  -6774949.83846         0.00041  20526425.68646  20526422.47249
  -3367258.70749  -2623844.68746         0.00041  20929166.00646  20929162.64849
 -11106600.00949  -8654489.48046         0.00041  20711489.67846  20711488.08249
 -15753409.07849 -12275368.09046         0.00041  21375710.43646  21375707.46049
  22420198.53548  17470261.83844         0.00041  24918898.33944  24918893.96848
 02 07 11 18 02 00.0000000  0  7 03 14 15 17 18 21 23
 -10488369.39148  -8172748.27046         0.00041  22147176.97646  22147172.18048
  -8953713.64048  -6976908.11945         0.00041  22864597.66645  22864593.11648
  -8676273.80749  -6760735.39246         0.00041  20529896.68946  20529893.48349
  -3336708.73249  -2600039.56746         0.00041  20934979.71846  20934976.62549
 -11075305.79849  -8630104.38846         0.00041  20717444.76846  20717443.38049
 -15773870.33049 -12291311.89546         0.00041  21371817.03946  21371813.63349
  22497409.06848  17530425.76044         0.00041  24933591.96644  24933586.09148
 02 07 11 18 02 30.0000000  0  7 03 14 15 17 18 21 23
 -10535939.95148  -8209816.21746         0.00041  22138124.57446  22138120.35048
  -9057825.65348  -7058034.17845         0.00041  22844786.66945  22844780.52348
  -8657716.53549  -6746275.20646         0.00041  20533428.19546  20533425.02149
  -3305856.53249  -2575998.93746         0.00041  20940850.79746  20940847.46849
 -11043784.11049  -8605542.03846         0.00041  20723443.17246  20723441.64649
 -15794141.20649 -12307107.37046         0.00041  21367959.15746  21367956.05849
  22574535.53148  17590524.11841         0.00041         0.00041  24948264.46248
 02 07 11 18 03 00.0000000  0  7 03 14 15 17 18 21 23
 -10583035.91048  -8246514.34546         0.00041  22129162.28046  22129158.09748
  -9161738.57848  -7139005.10945         0.00041  22825012.09445  22825006.83448
  -8638855.43849  -6731578.27346         0.00041  20537017.36946  20537014.10349
  -3274713.75149  -2551731.88646         0.00041  20946777.09146  20946773.68149
 -11012048.82149  -8580813.25246         0.00041  20729482.06646  20729480.70949
 -15814235.24449 -12322765.03246         0.00041  21364135.79246  21364132.25249
  22651565.30948  17650547.17941         0.00041         0.00041  24962923.24048
 02 07 11 18 03 30.0000000  0  7 03 14 15 17 18 21 23
 -10629636.53448  -8282826.50046         0.00041  22120293.92746  22120290.63848
  -9265430.43948  -7219803.80345         0.00041  22805280.24245  22805275.30448
  -8619670.48249  -6716628.97946         0.00041  20540668.18146  20540664.90049
  -3243260.40649  -2527222.83846         0.00041  20952762.47146  20952759.15649
 -10980081.69949  -8555903.80746         0.00041  20735565.31746  20735564.00549
 -15834133.51049 -12338270.15446         0.00041  21360348.70446  21360345.76849
  22728517.30148         0.00041         0.00041         0.00041  24977566.22048
 02 07 11 18 04 00.0000000  0  7 03 14 15 17 18 21 23
 -10675737.03648  -8318748.96846         0.00041  22111521.08746  22111517.82148
  -9368895.37948  -7300425.67345         0.00041  22785592.25045  22785585.90848
  -8600157.62949  -6701424.18346         0.00041  20544381.43146  20544378.03849
  -3211492.37949  -2502468.57646         0.00041  20958807.90946  20958804.59649
 -10947881.20049  -8530812.51446         0.00041  20741692.85046  20741691.17949
 -15853833.14249 -12353620.49546         0.00041  21356600.52546  21356596.89849
  22805394.41447  17770413.70541         0.00041         0.00041  24992193.29747
 02 07 11 18 04 30.0000000  0  7 03 14 15 17 18 21 23
 -10721322.82648  -8354270.34546         0.00041  22102847.28346  22102842.79748
  -9472117.65148  -7380858.44845         0.00041  22765948.19145  22765942.88948
  -8580303.16349  -6685953.19646         0.00041  20548159.65746  20548156.26749
  -3179395.84049  -2477458.34046         0.00041  20964915.98146  20964912.09149
 -10915435.24549  -8505529.96146         0.00041  20747867.02546  20747865.74549
 -15873321.97449 -12368806.57346         0.00041  21352891.61146  21352888.44549
  22882209.16048  17830269.16941         0.00041         0.00041  25006811.28048
 02 07 11 18 05 00.0000000  0  7 03 14 15 17 18 21 23
 -10766383.38348  -8389382.41946         0.00041  22094272.37346  22094268.17848
  -9575086.10148  -7461093.44946         0.00041  22746354.53646  22746348.99548
  -8560097.56449  -6670208.60446         0.00041  20552004.79746  20552001.17949
  -3146961.47549  -2452184.85846         0.00041  20971087.59346  20971084.34849
 -10882736.49449  -8480050.42346         0.00041  20754089.11146  20754088.20949
 -15892592.77349 -12383822.76246         0.00041  21349224.35646  21349221.13749
  22958969.89548  17890082.60841         0.00041         0.00041  25021421.96848
 02 07 11 18 05 30.0000000  0  7 03 14 15 17 18 21 23
 -10810921.15448  -8424087.16346         0.00041  22085796.80746  22085793.68148
  -9677801.73548  -7541131.44446         0.00041  22726808.36946  22726803.33948
  -8539543.85249  -6654192.75046         0.00041  20555915.80346  20555912.60749
  -3114192.40549  -2426650.57446         0.00041  20977323.59846  20977320.11949
 -10849789.99049  -8454377.83846         0.00041  20760358.62846  20760357.76949
 -15911649.49449 -12398672.13646         0.00041  21345598.60646  21345594.96849
  23035672.50848  17949850.72741         0.00041         0.00041  25036019.01848
 02 07 11 18 06 00.0000000  0  7 03 14 15 17 18 21 23
 -10854950.75948  -8458395.93746         0.00041  22077418.05246  22077414.34348
  -9780278.29848  -7620983.18546         0.00041  22707306.92946  22707301.97848
  -8518657.41049  -6637917.61846         0.00041  20559890.12546  20559886.88949
  -3081103.87149  -2400867.43146         0.00041  20983619.46246  20983616.44649
 -10816613.05449  -8428525.68246         0.00041  20766672.50846  20766671.31349
 -15930509.00649 -12413367.84046         0.00041  21342009.42546  21342006.21949
  23112300.39448         0.00041         0.00041         0.00041  25050598.13948
 02 07 11 18 06 30.0000000  0  7 03 14 15 17 18 21 23
 -10898476.41148  -8492312.02746         0.00041  22069134.44746  22069131.22148
  -9882518.96348  -7700651.09846         0.00041  22687850.55946  22687846.02548
  -8497443.14049  -6621387.03846         0.00041  20563927.28046  20563924.02549
  -3047701.19449  -2374839.32546         0.00041  20989975.43246  20989972.79949
 -10783212.95649  -8402499.66346         0.00041  20773028.15146  20773026.84249
 -15949178.36549 -12427915.37446         0.00041  21338457.00146  21338453.38549
  23188847.41048         0.00041         0.00041         0.00041  25065164.55248
 02 07 11 18 07 00.0000000  0  7 03 14 15 17 18 21 23
 -10941500.25448  -8525837.09046         0.00041  22060947.51846  22060944.03448
  -9984524.82748  -7780136.05146         0.00041  22668440.01346  22668435.16148
  -8475904.25249  -6604603.51946         0.00041  20568026.22946  20568023.12649
  -3013986.98949  -2348568.58346         0.00041  20996391.97246  20996388.48749
 -10749594.51749  -8376303.49146         0.00041  20779425.50546  20779424.21649
 -15967662.04549 -12442318.22246         0.00041  21334939.39246  21334936.30449
  23265309.68448  18128788.43241         0.00041         0.00041  25079715.64448
 02 07 11 18 07 30.0000000  0  7 03 14 15 17 18 21 23
 -10984008.24348  -8558960.17446         0.00041  22052859.33346  22052855.60548
 -10086280.40348  -7859425.99146         0.00041  22649076.33546  22649071.64448
  -8454027.28349  -6587556.56446         0.00041  20572189.24946  20572186.05849
  -2979948.03549  -2322044.77246         0.00041  21002869.91546  21002865.63649
 -10715746.23449  -8349928.21346         0.00041  20785866.71046  20785865.16449
 -15985946.97049 -12456566.20846         0.00041  21331459.69946  21331456.56749
  23341699.50848         0.00041         0.00041         0.00041  25094252.44048
 02 07 11 18 08 00.0000000  0  7 03 14 15 17 18 21 23
 -11026004.31048  -8591684.35946         0.00041  22044867.71046  22044864.55248
 -10187788.58048  -7938523.15346         0.00041  22629760.69746  22629755.39548
  -8431816.89949  -6570249.80246         0.00041  20576415.79946  20576412.44849
  -2945589.14049  -2295271.66046         0.00041  21009408.38246  21009404.03749
 -10681674.78149  -8323379.04146         0.00041  20792350.46346  20792348.98249
 -16004039.82249 -12470664.50546         0.00041  21328016.97346  21328013.93449
  23418011.22048         0.00041         0.00041         0.00041  25108773.05948
 02 07 11 18 08 30.0000000  0  7 03 14 15 17 18 21 23
 -11067492.00448  -8624012.42746         0.00041  22036972.76346  22036970.14548
 -10289052.24148  -8017429.78746         0.00041  22610489.63946  22610485.22548
  -8409277.32449  -6552686.52946         0.00041  20580705.01046  20580701.81749
  -2910914.77049  -2268252.72946         0.00041  21016006.92946  21016002.64449
 -10647386.63749  -8296661.01346         0.00041  20798875.05646  20798874.00849
 -16021946.65849 -12484617.87746         0.00041  21324608.67546  21324606.15549
  23494239.28348         0.00041         0.00041         0.00041  25123278.50348
 02 07 11 18 09 00.0000000  0  7 03 14 15 17 18 21 23
 -11108445.87448  -8655924.51946         0.00041  22029179.78646  22029176.06948
 -10390044.34348  -8096124.80546         0.00041  22591271.30246  22591266.89248
  -8386383.64849  -6534847.34046         0.00041  20585061.28146  20585058.05949
  -2875899.91149  -2240968.48046         0.00041  21022669.69946  21022666.06349
 -10612858.88749  -8269756.27846         0.00041  20805445.66346  20805444.17949
 -16039643.48449 -12498407.59946         0.00041  21321241.70746  21321238.52249
  23570407.63747         0.00041         0.00041         0.00041  25137772.64247
 02 07 11 18 09 30.0000000  0  7 03 14 15 17 18 21 23
 -11148852.58848  -8687410.23446         0.00041  22021491.03946  22021487.21948
 -10490750.45648  -8174596.99946         0.00041  22572107.82746  22572102.86748
  -8363123.28049  -6516722.41346         0.00041  20589487.68646  20589484.41949
  -2840532.19449  -2213409.28046         0.00041  21029399.81246  21029396.00349
 -10578080.85049  -8242656.52346         0.00041  20812063.72346  20812062.23149
 -16057119.92449 -12512025.58746         0.00041  21317915.61846  21317912.95649
  23646527.76947         0.00041         0.00041         0.00041  25152260.21547
 02 07 11 18 10 00.0000000  0  6 03 14 15 17 18 21
 -11188726.78348  -8718481.01346         0.00041  22013903.68946  22013899.82748
 -10591184.21848  -8252856.97646         0.00041  22552995.58646  22552991.28748
  -8339511.96549  -6498324.01946         0.00041  20593980.72246  20593977.48849
  -2804826.92949  -2185587.04946         0.00041  21036194.70546  21036190.89349
 -10543069.72349  -8215375.13546         0.00041  20818726.35446  20818724.63449
 -16074392.30149 -12525484.57946         0.00041  21314629.11546  21314626.76049
 02 07 11 18 10 30.0000000  0  6 03 14 15 17 18 21
 -11228098.08548  -8749159.92046         0.00041  22006410.67446  22006407.29448
 -10691373.76448  -8330926.66146         0.00041  22533931.46046  22533925.14448
  -8315579.69949  -6479675.53346         0.00041  20598535.07246  20598532.03349
  -2768814.17349  -2157525.22746         0.00041  21043047.72746  21043043.69949
 -10507857.85449  -8187937.32346         0.00041  20825426.82646  20825425.07049
 -16091492.30449 -12538809.24546         0.00041  21311374.96146  21311371.98749
 02 07 11 18 11 00.0000000  0  6 03 14 15 17 18 21
 -11266941.35348  -8779427.38446         0.00041  21999019.33246  21999015.67948
 -10791293.14648  -8408785.80746         0.00041  22514916.23546  22514911.01348
  -8291301.94449  -6460757.84246         0.00041  20603154.99246  20603151.84249
  -2732469.70748  -2129204.92446         0.00041  21049963.36646  21049959.50848
 -10472422.72749  -8160325.54446         0.00041  20832170.12546  20832168.19749
 -16108396.99149 -12551981.72646         0.00041  21308158.38346  21308155.44449
 02 07 11 18 11 30.0000000  0  6 03 14 15 17 18 21
 -11305238.10548  -8809268.97846         0.00041  21991731.85746  21991727.80448
 -10890922.47648  -8486418.97446         0.00041  22495957.88146  22495952.68948
  -8266660.87949  -6441557.04846         0.00041  20607844.06146  20607840.85049
  -2695775.69848  -2100612.24846         0.00041  21056945.76446  21056942.34448
 -10436748.14149  -8132527.17346         0.00041  20838958.42746  20838956.96749
 -16125089.64349 -12564988.97846         0.00041  21304981.80746  21304978.79949
 02 07 11 18 12 00.0000000  0  6 03 14 15 17 18 21
 -11343002.41248  -8838695.69546         0.00041  21984545.16746  21984540.83348
 -10990274.75248  -8563836.24046         0.00041  22477050.70146  22477046.83448
  -8241671.31049  -6422084.69946         0.00041  20612599.55846  20612596.24449
  -2658747.21948  -2071758.93646         0.00041  21063992.87146  21063988.26348
 -10400851.25549  -8104555.59146         0.00041  20845789.44646  20845787.95749
 -16141586.50849 -12577843.67046         0.00041  21301842.54246  21301839.38549
 02 07 11 18 12 30.0000000  0  6 03 14 15 17 18 21
 -11380241.71148  -8867713.32146         0.00041  21977458.17546  21977454.39348
 -11089356.00248  -8641042.31946         0.00041  22458195.92746  22458192.04548
  -8216341.23649  -6402347.03046         0.00041  20617419.81446  20617416.81849
  -2621392.18448  -2042651.17546         0.00041  21071101.53746  21071097.09548
 -10364741.48949  -8076418.13546         0.00041  20852661.12346  20852659.79149
 -16157896.99149 -12590553.12546         0.00041  21298739.06446  21298736.27049
 02 07 11 18 13 00.0000000  0  6 03 14 15 17 18 21
 -11416944.88348  -8896313.18546         0.00041  21970473.18846  21970470.74148
 -11188153.98448  -8718027.67046         0.00041  22439395.36346  22439391.11548
  -8190660.15549  -6382335.83746         0.00041  20622306.63046  20622303.43249
  -2583699.91249  -2013280.64746         0.00041  21078273.95846  21078269.98649
 -10328410.22149  -8048108.08046         0.00041  20859574.42946  20859573.21749
 -16174012.26649 -12603110.46946         0.00041  21295672.20346  21295669.01649
 02 07 11 18 13 30.0000000  0  6 03 14 15 17 18 21
 -11453130.58848  -8924509.84146         0.00041  21963587.98446  21963584.88748
 -11286686.06248  -8794805.81546         0.00041  22420645.47846  22420641.09248
  -8164647.27749  -6362066.10746         0.00041  20627256.90046  20627253.21649
  -2545689.94448  -1983662.55146         0.00041  21085507.04646  21085502.89948
 -10291879.02549  -8019642.24046         0.00041  20866526.12846  20866524.83149
 -16189952.85849 -12615531.69146         0.00041  21292639.14146  21292636.28749
 02 07 11 18 14 00.0000000  0  6 03 14 15 17 18 21
 -11488795.70548  -8952300.82546         0.00041  21956801.42646  21956797.52148
 -11384947.70648  -8871373.23546         0.00041  22401947.34346  22401942.38448
  -8138299.95249  -6341535.76046         0.00041  20632270.73246  20632267.52549
  -2507359.65449  -1953794.85146         0.00041  21092800.94346  21092797.34149
 -10255147.01949  -7991019.92146         0.00041  20873516.03146  20873514.89449
 -16205717.74949 -12627816.00946         0.00041  21289638.95446  21289635.80849
 02 07 11 18 14 30.0000000  0  6 03 14 15 17 18 21
 -11523932.29748  -8979679.95146         0.00041  21950115.01546  21950110.98148
 -11482929.69348  -8947722.74246         0.00041  22383300.52946  22383296.59948
  -8111610.73349  -6320739.00746         0.00041  20637349.62346  20637346.15849
  -2468701.70848  -1923671.83946         0.00041  21100157.75946  21100153.38748
 -10218208.55949  -7962236.72746         0.00041  20880545.39646  20880543.94849
 -16221300.62149 -12639958.48546         0.00041  21286673.79446  21286670.72149
 02 07 11 18 15 00.0000000  0  6 03 14 15 17 18 21
 -11558536.80348  -9006644.49346         0.00041  21943529.77846  21943526.47148
 -11580627.38548  -9023850.72646         0.00041  22364709.86646  22364705.37248
  -8084577.02549  -6299673.81446         0.00041  20642493.81746  20642490.58049
  -2429713.05948  -1893291.14346         0.00041  21107577.49346  21107572.75448
 -10181062.31349  -7933291.61946         0.00041  20887614.12446  20887612.83449
 -16236699.97049 -12651957.95846         0.00041  21283742.81046  21283740.18849
 02 07 11 18 15 30.0000000  0  6 03 14 15 17 18 21
 -11592593.24148  -9033181.96946         0.00041  21937049.03446  21937045.61448
 -11678023.02448  -9099743.34146         0.00041  22346176.55346  22346171.40748
  -8057183.04749  -6278327.89046         0.00041  20647706.69346  20647703.49749
  -2390378.24148  -1862640.69046         0.00041  21115062.22746  21115057.93048
 -10143694.69349  -7904174.01146         0.00041  20894724.77546  20894723.37949
 -16251901.32549 -12663803.14946         0.00041  21280850.87446  21280847.06549
 02 07 11 18 16 00.0000000  0  6 03 14 15 17 18 21
 -11626097.81048  -9059289.40746         0.00041  21930673.57946  21930670.32948
 -11775111.86348  -9175396.87446         0.00041  22327701.23546  22327696.01148
  -8029425.75149  -6256698.87246         0.00041  20652989.21946  20652985.55649
  -2350694.44348  -1831718.30146         0.00041  21122613.81946  21122609.67148
 -10106104.45549  -7874882.93446         0.00041  20901878.14646  20901876.56549
 -16266902.90349 -12675492.67546         0.00041  21277995.00746  21277992.53049
 02 07 11 18 16 30.0000000  0  6 03 14 15 17 18 21
 -11659061.01948  -9084975.00246         0.00041  21924401.23046  21924397.17148
 -11871902.95348  -9250818.40446         0.00041  22309282.44546  22309277.48548
  -8001316.01049  -6234795.21346         0.00041  20658338.17046  20658334.28949
  -2310672.49648  -1800532.42646         0.00041  21130229.45946  21130225.49448
 -10068304.45149  -7845428.40746         0.00041  20909071.05946  20909069.39249
 -16281717.18849 -12687036.26046         0.00041  21275176.47946  21275173.43049
 02 07 11 18 17 00.0000000  0  6 03 14 15 17 18 21
 -11691488.50848  -9110243.14646         0.00041  21918230.74746  21918226.18648
 -11968400.46248  -9326011.16046         0.00041  22290919.27946  22290914.77248
  -7972859.62549  -6212621.43846         0.00041  20663753.52746  20663749.28149
  -2270318.36348  -1769087.71246         0.00041  21137908.77146  21137904.60148
 -10030302.19249  -7815816.28546         0.00041  20916302.52746  20916301.21649
 -16296351.64449 -12698439.71646         0.00041  21272391.25946  21272388.38049
 02 07 11 18 17 30.0000000  0  6 03 14 15 17 18 21
 -11723379.14048  -9135092.96246         0.00041  21912162.77446  21912158.06348
 -12064602.09448  -9400973.36746         0.00041  22272612.71646  22272608.17648
  -7944056.42749  -6190177.42646         0.00041  20669234.48046  20669230.57649
  -2229631.71948  -1737383.90446         0.00041  21145651.26646  21145647.35548
  -9992099.08149  -7786047.65446         0.00041  20923572.26046  20923571.13249
 -16310806.97249 -12709703.59746         0.00041  21269640.81946  21269637.52349
 02 07 11 18 18 00.0000000  0  6 03 14 15 17 18 21
 -11754744.21648  -9159533.24946         0.00041  21906193.36146  21906189.56448
 -12160517.83248  -9475712.80746         0.00041  22254360.64646  22254355.93448
  -7914918.33849  -6167472.45646         0.00041  20674778.73746  20674775.17449
  -2188624.41549  -1705430.23446         0.00041  21153454.61846  21153450.98449
  -9953708.86049  -7756133.22846         0.00041  20930877.79546  20930876.42049
 -16325096.02949 -12720837.91446         0.00041  21266921.70846  21266918.66249
 02 07 11 18 18 30.0000000  0  6 03 14 15 17 18 21
 -11785579.57648  -9183560.78546         0.00041  21900325.02646  21900321.36848
 -12256141.73248  -9550224.84046         0.00041  22236163.49846  22236159.10948
  -7885441.22049  -6144503.30546         0.00041  20680388.36046  20680384.85649
  -2147292.88248  -1673223.90046         0.00041  21161320.59746  21161315.79048
  -9915129.28249  -7726071.24846         0.00041  20938219.51046  20938218.14149
 -16339216.66849 -12731841.00246         0.00041  21264234.48746  21264231.27449
 02 07 11 18 19 00.0000000  0  6 03 14 15 17 18 21
 -11815840.67548  -9207140.84346         0.00041  21894566.71046  21894563.03348
 -12351428.06048  -9624473.82746         0.00041  22218030.52546  22218026.67848
  -7855580.93749  -6121235.58446         0.00041  20686070.60246  20686067.35949
  -2105593.01848  -1640730.56546         0.00041  21169255.79346  21169251.34448
  -9876318.12149  -7695828.80946         0.00041  20945605.09246  20945603.53149
 -16353125.88149 -12742679.34246         0.00041  21261587.82146  21261584.66949
 02 07 11 18 19 30.0000000  0  6 03 14 15 17 18 21
 -11845535.75848  -9230279.86046         0.00041  21888916.00946  21888912.84248
 -12446383.70848  -9698465.12446         0.00041  22199961.73246  22199957.30948
  -7825346.38949  -6097676.24246         0.00041  20691824.09146  20691820.57649
  -2063533.50848  -1607956.98746         0.00041  21177259.11746  21177255.03048
  -9837285.93249  -7665414.14046         0.00041  20953032.95746  20953031.17549
 -16366833.76449 -12753360.80846         0.00041  21258979.24546  21258976.04649
 02 07 11 18 20 00.0000000  0  6 03 14 15 17 18 21
 -11874687.20548  -9252995.26846         0.00041  21883368.06046  21883365.04548
 -12541029.59048  -9772215.06046         0.00041  22181950.58546  22181946.67648
  -7794760.42949  -6073843.06646         0.00041  20697644.29846  20697640.99149
  -2021137.05448  -1574920.84546         0.00041  21185327.02746  21185322.38248
  -9798056.98649  -7634846.15346         0.00041  20960497.38946  20960496.16049
 -16380364.41949 -12763904.17446         0.00041  21256404.51946  21256401.39649
 02 07 11 18 20 30.0000000  0  6 03 14 15 17 18 21
 -11903286.45848  -9275280.39046         0.00041  21877925.93046  21877922.81748
 -12635355.45048  -9845715.63646         0.00041  22164001.07046  22163996.65048
  -7763814.62449  -6049729.49146         0.00041  20703533.39746  20703529.73249
  -1978395.66548  -1541615.92346         0.00041  21193460.29546  21193455.91548
  -9758624.69249  -7604119.70546         0.00041  20968001.55546  20967999.63149
 -16393710.30349 -12774303.55546         0.00041  21253864.83646  21253861.64449
 02 07 11 18 21 00.0000000  0  6 03 14 15 17 18 21
 -11931335.99648  -9297137.17046         0.00041  21872588.01846  21872585.02348
 -12729362.51348  -9918967.78546         0.00041  22146111.60246  22146107.44348
  -7732512.00349  -6025337.88146         0.00041  20709490.23346  20709486.58549
  -1935312.21648  -1508044.46546         0.00041  21201659.23846  21201654.96148
  -9718993.82549  -7573238.53446         0.00041  20975542.95946  20975541.60649
 -16406875.95249 -12784562.49646         0.00041  21251359.60846  21251356.54449
 02 07 11 18 21 30.0000000  0  6 03 14 15 17 18 21
 -11958839.31048  -9318568.31046         0.00041  21867354.34346  21867350.91148
 -12823052.57848  -9991972.91746         0.00041  22128283.30146  22128279.07148
  -7700856.20549  -6000671.06746         0.00041  20715514.19046  20715510.41949
  -1891890.67748  -1474209.56246         0.00041  21209922.15946  21209917.52548
  -9679169.85849  -7542206.89246         0.00041  20983120.99446  20983119.65349
 -16419866.11149 -12794684.69246         0.00041  21248887.64046  21248884.39549
 02 07 11 18 22 00.0000000  0  6 03 14 15 17 18 21
 -11985793.96148  -9339571.91646         0.00041  21862225.51246  21862221.35448
 -12916421.72648 -10064727.98846         0.00041  22110516.29046  22110511.39248
  -7668845.17949  -5975727.44746         0.00041  20721605.43846  20721602.15549
  -1848128.80848  -1440109.46846         0.00041  21218249.65546  21218245.47248
  -9639152.09849  -7511024.24146         0.00041  20990736.42746  20990734.65349
 -16432680.44749 -12804669.87846         0.00041  21246449.04346  21246445.93949
 02 07 11 18 22 30.0000000  0  6 03 14 15 17 18 21
 -12012188.03848  -9360138.71146         0.00041  21857202.65246  21857199.28948
 -13009456.71348 -10137222.66746         0.00041  22092811.38846  22092807.30348
  -7636467.56249  -5950498.17046         0.00041  20727766.68946  20727763.50249
  -1804015.39248  -1405735.42646         0.00041  21226643.65246  21226639.85448
  -9598930.84949  -7479683.03346         0.00041  20998390.47346  20998388.75249
 -16445308.43849 -12814509.85946         0.00041  21244045.95646  21244043.21749
 02 07 11 18 23 00.0000000  0  6 03 14 15 17 18 21
 -12038027.38748  -9380273.25846         0.00041  21852285.62846  21852282.48748
 -13102161.91848 -10209460.38146         0.00041  22075170.17646  22075166.06248
  -7603729.68649  -5924988.17146         0.00041  20733996.57446  20733993.37149
  -1759556.89748  -1371092.50946         0.00041  21235104.31346  21235100.33948
  -9558514.28549  -7448189.63346         0.00041  21006081.17146  21006079.66649
 -16457757.62749 -12824210.52246         0.00041  21241677.01246  21241674.02349
 02 07 11 18 23 30.0000000  0  6 03 14 15 17 18 21
 -12063325.04048  -9399985.71346         0.00041  21847471.39846  21847468.21748
 -13194548.72848 -10281449.98846         0.00041  22057588.67146  22057585.45548
  -7570644.96749  -5899207.90746         0.00041  20740292.45146  20740289.06549
  -1714766.58848  -1336191.03246         0.00041  21243628.11546  21243623.46048
  -9517917.06349  -7416555.45946         0.00041  21013806.43846  21013804.87549
 -16470042.59649 -12833783.21546         0.00041  21239339.38746  21239336.47449
 02 07 11 18 24 00.0000000  0  6 03 14 15 17 18 21
 -12088086.75248  -9419280.53846         0.00041  21842760.19246  21842756.13948
 -13286621.17148 -10353194.64246         0.00041  22040068.52646  22040064.68948
  -7537218.92049  -5873161.67846         0.00041  20746653.35446  20746650.31149
  -1669650.48148  -1301035.67346         0.00041  21252213.65246  21252208.98348
  -9477146.60749  -7384786.29646         0.00041  21021565.01446  21021563.57849
 -16482169.91749 -12843233.05946         0.00041  21237031.51946  21237028.42149
 02 07 11 18 24 30.0000000  0  6 03 14 15 17 18 21
 -12112294.19848  -9438143.46746         0.00041  21838153.73746  21838149.87248
 -13378359.60448 -10424679.02646         0.00041  22022610.72546  22022607.19248
  -7503433.70949  -5846835.57446         0.00041  20753082.39346  20753079.23249
  -1624190.66748  -1265612.50646         0.00041  21260864.20146  21260859.63948
  -9436186.90249  -7352869.66646         0.00041  21029359.37546  21029357.63849
 -16494123.45049 -12852547.48846         0.00041  21234756.86246  21234753.74549
 02 07 11 18 25 00.0000000  0  6 03 14 15 17 18 21
 -12135940.94349  -9456569.49146         0.00041  21833654.33946  21833650.37149
 -13469755.81348 -10495896.73246         0.00041  22005218.95846  22005214.63048
  -7469283.01849  -5820224.69246         0.00041  20759581.29546  20759577.55149
  -1578380.68448  -1229916.48446         0.00041  21269580.82646  21269576.92148
  -9395033.10749  -7320801.79246         0.00041  21037190.65746  21037189.39849
 -16505897.96549 -12861722.41346         0.00041  21232516.09946  21232512.97849
 02 07 11 18 25 30.0000000  0  6 03 14 15 17 18 21
 -12159035.27848  -9474565.05846         0.00041  21829259.46446  21829255.59748
 -13560816.73948 -10566853.18546         0.00041  21987890.04646  21987886.76648
  -7434775.78849  -5793335.99846         0.00041  20766147.62346  20766144.17649
  -1532229.78948  -1193954.80446         0.00041  21278362.89946  21278358.95848
  -9353695.47749  -7288590.66846         0.00041  21045056.96146  21045055.42649
 -16517503.16549 -12870765.40546         0.00041  21230307.69146  21230304.74149
 02 07 11 18 26 00.0000000  0  6 03 14 15 17 18 21
 -12181569.71948  -9492124.33746         0.00041  21824971.10246  21824967.50548
 -13651533.05448 -10637541.08946         0.00041  21970627.41046  21970623.52348
  -7399904.63349  -5766163.70946         0.00041  20772783.35546  20772780.24049
  -1485730.48048  -1157721.63746         0.00041  21287212.77546  21287207.65648
  -9312168.11849  -7256231.70646         0.00041  21052959.41346  21052958.07049
 -16528932.80449 -12879671.59846         0.00041  21228132.38146  21228129.20449
 02 07 11 18 26 30.0000000  0  7 03 09 14 15 17 18 21
 -12203536.73649  -9509241.48546         0.00041  21820790.33846  21820787.51649
        -0.71957         0.00051         0.00051         0.00051  23505715.04457
 -13741895.65148 -10707953.37946         0.00041  21953432.00846  21953427.35748
  -7364662.07449  -5738702.01846         0.00041  20779489.28546  20779486.09149
  -1438875.46448  -1121211.31246         0.00041  21296128.65246  21296123.89848
  -9270445.62349  -7223720.70146         0.00041  21060899.23446  21060897.40249
 -16540180.46849 -12888435.99346         0.00041  21225992.43746  21225989.50149
 02 07 11 18 27 00.0000000  0  7 03 09 14 15 17 18 21
 -12224974.46448  -9525946.21946         0.00041  21816710.02046  21816706.78048
    -38461.49447         0.00041         0.00041         0.00041  23498397.69647
 -13831941.15548 -10778118.57446         0.00041  21936297.11946  21936292.77148
  -7329086.76449  -5710981.04146         0.00041  20786259.63246  20786256.15049
  -1391703.37948  -1084453.91946         0.00041  21305105.42146  21305100.54848
  -9228567.54749  -7191088.46646         0.00041  21068868.18846  21068866.36349
 -16551285.69749 -12897089.39246         0.00041  21223879.14846  21223876.19149
 02 07 11 18 27 30.0000000  0  6 03 14 15 17 18 21
 -12245864.06748  -9542223.82446         0.00041  21812735.64546  21812730.86848
 -13921648.72948 -10848020.45146         0.00041  21919226.02946  21919222.55648
  -7293159.79549  -5682986.03646         0.00041  20793096.79946  20793093.16849
  -1344195.41648  -1047434.79046         0.00041  21314145.73346  21314141.29348
  -9186516.60649  -7158321.52446         0.00041  21076870.01946  21076868.51549
 -16562231.01649 -12905618.19146         0.00041  21221796.44846  21221793.44749
 02 07 11 18 28 00.0000000  0  6 03 14 15 17 18 21
 -12266179.16748  -9558053.75846         0.00041  21808870.68846  21808866.11748
 -14010990.68948 -10917637.43546         0.00041  21902224.35246  21902220.86348
  -7256855.22949  -5654696.79846         0.00041  20800005.16646  20800001.51149
  -1296325.74248  -1010133.80746         0.00041  21323254.79946  21323250.80748
  -9144268.54949  -7125400.98146         0.00041  21084909.54846  21084908.15749
 -16572991.48249 -12914002.94946         0.00041  21219748.54546  21219745.38449
 02 07 11 18 28 30.0000000  0  6 03 14 15 17 18 21
 -12285923.66149  -9573439.08446         0.00041  21805113.12846  21805109.40249
 -14099969.30948 -10986971.30946         0.00041  21885293.12346  21885288.97448
  -7220177.00549  -5626116.40246         0.00041  20806984.61046  20806980.95649
  -1248098.32148   -972554.07246         0.00041  21332432.45846  21332428.07848
  -9101828.75349  -7092331.03046         0.00041  21092985.81746  21092984.30849
 -16583572.36349 -12922247.77046         0.00041  21217735.21246  21217732.03849
 02 07 11 18 29 00.0000000  0  6 03 14 15 17 18 21
 -12305126.01548  -9588401.94546         0.00041  21801460.14146  21801454.36848
 -14188611.13748 -11056042.73746         0.00041  21868424.57146  21868420.68448
  -7183153.70849  -5597267.11846         0.00041  20814029.88446  20814026.29849
  -1199541.95248   -934718.02346         0.00041  21341672.01746  21341667.88548
  -9059227.16049  -7059135.01446         0.00041  21101092.88646  21101090.97149
 -16594003.16049 -12930375.63746         0.00041  21215750.04846  21215746.82149
 02 07 11 18 29 30.0000000  0  6 03 14 15 17 18 21
 -12323752.08148  -9602915.73246         0.00041  21797914.57946  21797909.72348
 -14276880.43848 -11124823.88246         0.00041  21851626.97946  21851623.19948
  -7145751.45749  -5568122.54346         0.00041  20821147.35946  20821143.82649
  -1150622.58348   -896599.09346         0.00041  21350981.32346  21350976.89848
  -9016431.35449  -7025787.67146         0.00041  21109236.25446  21109234.79649
 -16604250.72749 -12938360.73846         0.00041  21213799.77646  21213796.56349
 02 07 11 18 30 00.0000000  0  6 03 14 15 17 18 21
 -12341814.35148  -9616990.21346         0.00041  21794476.82346  21794473.41048
 -14364788.04548 -11193323.18646         0.00041  21834898.81446  21834894.94048
  -7107983.06849  -5538692.67746         0.00041  20828334.45446  20828331.25849
  -1101353.20948   -858207.45146         0.00041  21360356.74046  21360353.08648
  -8973455.59449  -6992300.10246         0.00041  21117413.84946  21117413.15349
 -16614329.36149 -12946214.19746         0.00041  21211882.42846  21211879.20249
 02 07 11 18 30 30.0000000  0  6 03 14 15 17 18 21
 -12359337.25448  -9630644.40646         0.00041  21791142.68746  21791138.71048
 -14452356.69948 -11261558.37646         0.00041  21818234.63046  21818230.92048
  -7069872.86749  -5508996.46046         0.00041  20835586.65846  20835583.26249
  -1051758.33648   -819562.17146         0.00041  21369794.85646  21369790.53048
  -8930325.54849  -6958692.31346         0.00041  21125621.87046  21125620.72549
 -16624264.17449 -12953955.59446         0.00041  21209991.68146  21209988.53549
 02 07 11 18 31 00.0000000  0  6 03 14 15 17 18 21
 -12376289.39149  -9643853.84146         0.00041  21787917.10946  21787913.76949
 -14539553.02548 -11329503.44146         0.00041  21801641.74246  21801637.49448
  -7031389.18149  -5479009.21746         0.00041  20842909.88246  20842906.68449
  -1001806.66848   -780638.87846         0.00041  21379300.88646  21379296.01648
  -8887011.13149  -6924940.84946         0.00041  21133864.64146  21133862.97549
 -16634024.59149 -12961561.10246         0.00041  21208134.25246  21208131.12349
 02 07 11 18 31 30.0000000  0  6 03 14 15 17 18 21
 -12392675.78949  -9656622.46246         0.00041  21784797.72446  21784795.93649
 -14626380.51249 -11397161.10946         0.00041  21785118.86246  21785115.49049
  -6992537.29749  -5448735.07146         0.00041  20850303.50046  20850300.23449
   -951503.37548   -741441.58546         0.00041  21388872.79246  21388868.41648
  -8843518.94449  -6891050.86146         0.00041  21142141.12846  21142138.83549
 -16643617.48549 -12969036.06946         0.00041  21206308.83346  21206305.66849
 02 07 11 18 32 00.0000000  0  6 03 14 15 17 18 21
 -12408498.08449  -9668951.53746         0.00041  21781786.61146  21781784.46749
 -14712838.81249 -11464531.09646         0.00041  21768666.40046  21768663.19949
  -6953319.17049  -5418175.53946         0.00041  20857766.37846  20857762.56749
   -900850.37248   -701971.79346         0.00041  21398511.64546  21398507.64848
  -8799852.36049  -6857024.98246         0.00041  21150450.73046  21150448.65049
 -16653045.34749 -12976382.44446         0.00041  21204514.80446  21204511.71949
 02 07 11 18 32 30.0000000  0  6 03 14 15 17 18 21
 -12423766.44048  -9680848.95446         0.00041  21778881.15946  21778877.99948
 -14798936.65348 -11531620.20246         0.00041  21752282.37346  21752278.44548
  -6913745.23649  -5387338.75246         0.00041  20865296.99046  20865293.44749
   -849858.04148   -662237.59446         0.00041  21408215.87946  21408210.98648
  -8756022.95049  -6822872.21746         0.00041  21158790.77546  21158789.42349
 -16662319.31249 -12983608.90046         0.00041  21202750.39346  21202747.19249
 02 07 11 18 33 00.0000000  0  6 03 14 15 17 18 21
 -12438475.02848  -9692310.17946         0.00041  21776082.94846  21776079.33648
 -14884666.15748 -11598422.29746         0.00041  21735969.22646  21735964.71648
  -6873809.37049  -5356219.93046         0.00041  20872896.25346  20872892.79849
   -798520.55948   -622234.45746         0.00041  21417985.21046  21417980.29348
  -8712025.98649  -6788588.89146         0.00041  21167163.05046  21167161.24149
 -16671434.05949 -12990711.28946         0.00041  21201015.57646  21201012.34549
 02 07 11 18 33 30.0000000  0  7 03 14 15 17 18 21 31
 -12452587.54348  -9703306.93046         0.00041  21773397.30246  21773393.88348
 -14969989.01548 -11664907.52646         0.00041  21719732.19546  21719727.97848
  -6833475.09349  -5324790.67046         0.00041  20880572.45946  20880567.97849
   -746801.53548   -581934.00246         0.00041  21427826.78746  21427822.19748
  -8667826.40749  -6754147.69846         0.00041  21175574.24646  21175572.41549
 -16680354.30249 -12997662.12146         0.00041  21199317.78946  21199314.68949
        -0.96558        -0.81954         0.00051  23908453.64254  23908446.21258
 02 07 11 18 34 00.0000000  0  7 03 14 15 17 18 21 31
 -12466129.55448  -9713859.13746         0.00041  21770820.17446  21770816.37148
 -15054929.16348 -11731094.53746         0.00041  21703568.61146  21703564.66748
  -6792768.27449  -5293071.10346         0.00041  20888318.02246  20888314.13749
   -694726.77748   -541356.35946         0.00041  21437736.24346  21437731.69948
  -8623451.40349  -6719569.80546         0.00041  21184018.38846  21184016.70949
 -16689106.66549 -13004482.13146         0.00041  21197652.53346  21197649.39149
    -75286.33648    -58664.67044         0.00041  23894127.86744  23894119.17948
 02 07 11 18 34 30.0000000  0  7 03 14 15 17 18 21 31
 -12479128.79748  -9723988.41246         0.00041  21768346.60446  21768342.48548
 -15139512.74149 -11797003.71246         0.00041  21687472.13846  21687468.96249
  -6751716.83949  -5261083.00346         0.00041  20896129.99446  20896126.49549
   -642324.19948   -500523.26646         0.00041  21447709.17446  21447703.50048
  -8578930.06949  -6684877.89246         0.00041  21192490.44546  21192488.94749
 -16697720.07449 -13011193.87046         0.00041  21196013.36246  21196010.25349
   -150190.92648   -117031.81944         0.00041  23879870.64644  23879865.35748
 02 07 11 18 35 00.0000000  0  7 03 14 15 17 18 21 31
 -12491571.46948  -9733684.00146         0.00041  21765978.83246  21765975.36348
 -15223724.03649 -11862622.79346         0.00041  21671447.54146  21671444.46649
  -6710306.75049  -5228815.44146         0.00041  20904010.13046  20904006.37749
   -589580.35448   -459424.25246         0.00041  21457744.90846  21457740.61548
  -8534249.81149  -6650062.13446         0.00041  21200993.01446  21200991.43349
 -16706181.73649 -13017787.36246         0.00041  21194403.32246  21194400.19449
   -224698.88748   -175089.91944         0.00041  23865691.74844  23865686.76048
 02 07 11 18 35 30.0000000  0  7 03 14 15 17 18 21 31
 -12503453.57348  -9742942.78746         0.00041  21763717.79646  21763713.92948
 -15307556.93549 -11927947.02646         0.00041  21655494.28846  21655491.10849
  -6668533.91049  -5196265.21246         0.00041  20911959.85646  20911955.78749
   -536490.95348   -418055.96346         0.00041  21467846.97746  21467843.03848
  -8489407.68149  -6615120.24646         0.00041  21209526.25646  21209524.38449
 -16714488.12349 -13024259.86446         0.00041  21192822.53046  21192819.63849
   -298803.77348   -232833.91644         0.00041  23851589.41944  23851585.44048
 02 07 11 18 36 00.0000000  0  7 03 14 15 17 18 21 31
 -12514779.32348  -9751768.04646         0.00041  21761563.01346  21761559.42848
 -15391013.89049 -11992978.31746         0.00041  21639613.07846  21639609.88049
  -6626402.66849  -5163435.71746         0.00041  20919976.75146  20919973.32149
   -483060.41948   -376421.85346         0.00041  21478015.35246  21478010.86048
  -8444409.29449  -6580056.59446         0.00041  21218089.50846  21218087.62749
 -16722644.32949 -13030615.34946         0.00041  21191270.53646  21191267.47249
   -372508.14048   -290265.83944         0.00041  23837564.54544  23837559.28948
 02 07 11 18 36 30.0000000  0  7 03 14 15 17 18 21 31
 -12525546.22548  -9760157.84846         0.00041  21759513.71246  21759510.56548
 -15474090.64149 -12057713.34646         0.00041  21623804.16346  21623800.52349
  -6583910.26649  -5130324.79146         0.00041  20928062.97546  20928059.00849
   -429286.17848   -334519.92046         0.00041  21488248.30246  21488243.38948
  -8399252.89949  -6544869.81946         0.00041  21226682.43246  21226680.07349
 -16730648.27749 -13036852.18646         0.00041  21189747.38546  21189744.48249
   -445807.02948   -347381.76844         0.00041  23823616.85244  23823611.34348
 02 07 11 18 37 00.0000000  0  7 03 14 15 17 18 21 31
 -12535767.24048  -9768122.27046         0.00041  21757568.67946  21757565.58748
 -15556798.09248 -12122160.60446         0.00041  21608065.33946  21608061.27348
  -6541069.68449  -5096942.55046         0.00041  20936214.81946  20936211.35149
   -375181.16348   -292360.26146         0.00041  21498544.42546  21498539.02648
  -8353952.96749  -6509571.19246         0.00041  21235302.47846  21235300.70249
 -16738514.61849 -13042981.80346         0.00041  21188250.34546  21188247.43049
   -518711.42248   -404190.33644         0.00041  23809742.35744  23809737.44648
 02 07 11 18 37 30.0000000  0  7 03 14 15 17 18 21 31
 -12545420.32148  -9775644.15346         0.00041  21755731.88346  21755728.43148
 -15639112.15548 -12186301.33046         0.00041  21592401.73846  21592397.42448
  -6497858.70149  -5063271.68646         0.00041  20944437.93646  20944434.49849
   -320723.48348   -249925.78946         0.00041  21508907.76546  21508903.01948
  -8308488.43849  -6474144.30546         0.00041  21243954.47346  21243952.40549
 -16746221.45749 -13048987.12946         0.00041  21186784.13446  21186780.97249
   -591197.11448   -460672.63844         0.00041  23795951.67644  23795944.34048
 02 07 11 18 38 00.0000000  0  7 03 14 15 17 18 21 31
 -12554495.05049  -9782715.38246         0.00041  21754005.26946  21754002.08949
 -15721020.93749 -12250126.24846         0.00041  21576814.02046  21576810.80749
  -6454267.03149  -5029304.18446         0.00041  20952733.46446  20952729.16449
   -265902.65448   -207208.33046         0.00041  21519340.45346  21519335.02148
  -8262849.96349  -6438581.88646         0.00041  21252639.01346  21252637.41049
 -16753759.15749 -13054860.65646         0.00041  21185349.55746  21185346.44849
   -663251.71048   -516819.01944         0.00041  23782238.28444  23782232.73848
 02 07 11 18 38 30.0000000  0  8 03 09 14 15 17 18 21 31
 -12562980.81248  -9789327.68246         0.00041  21752390.35046  21752386.88848
        -1.00457         0.00051         0.00051         0.00051  23354899.96757
 -15802511.83449 -12313625.54646         0.00041  21561307.11346  21561303.36249
  -6410283.97849  -4995031.70346         0.00041  20961103.31646  20961098.90849
   -210708.25348   -164199.77946         0.00041  21529842.99346  21529837.78648
  -8217028.34349  -6402876.74646         0.00041  21261358.67046  21261356.99049
 -16761117.97749 -13060594.80146         0.00041  21183949.07646  21183946.05249
   -734862.48348   -572619.55144         0.00041  23768609.79844  23768604.75648
 02 07 11 18 39 00.0000000  0  8 03 09 14 15 17 18 21 31
 -12570911.66948  -9795507.58646         0.00041  21750881.39446  21750877.65848
    -26894.05348         0.00041         0.00041         0.00041  23349783.14848
 -15883616.71149 -12376824.05146         0.00041  21545873.40546  21545869.42149
  -6365943.26349  -4960480.52846         0.00041  20969541.12446  20969537.11349
   -155174.05948   -120926.44946         0.00041  21540410.83146  21540405.15848
  -8171058.31349  -6367055.97646         0.00041  21270105.89846  21270104.27249
 -16768332.92949 -13066216.84146         0.00041  21182576.19146  21182572.89549
   -806061.06348   -628098.86744         0.00041  23755061.38244  23755056.53348
 02 07 11 18 39 30.0000000  0  8 03 09 14 15 17 18 21 31
 -12578293.49248  -9801259.64846         0.00041  21749476.99546  21749473.10348
    -53294.54448         0.00041         0.00041         0.00041  23344761.01548
 -15964339.59649 -12439724.89846         0.00041  21530511.64546  21530508.86749
  -6321250.77449  -4925655.25146         0.00041  20978045.59346  20978041.79549
    -99306.07548    -77393.03346         0.00041  21551042.05846  21551036.87848
  -8124946.84149  -6331124.99246         0.00041  21278880.87946  21278879.35149
 -16775410.51449 -13071731.84846         0.00041  21181229.13546  21181225.93549
   -876851.48248   -683260.17644         0.00041  23741588.96544  23741585.76548
 02 07 11 18 40 00.0000000  0  8 03 09 14 15 17 18 21 31
 -12585123.70648  -9806581.91546         0.00041  21748176.98846  21748173.40748
    -79197.97448         0.00041         0.00041         0.00041  23339831.55048
 -16044676.00949 -12502324.59846         0.00041  21515224.78846  21515221.64249
  -6276203.70949  -4890553.67446         0.00041  20986618.11546  20986613.93949
    -43101.64848    -33597.45146         0.00041  21561738.04746  21561732.70948
  -8078692.23849  -6295082.46546         0.00041  21287682.84446  21287681.16649
 -16782348.35849 -13077137.95546         0.00041  21179909.11246  21179905.94849
   -947228.82148   -738099.60144         0.00041  23728200.62644  23728193.28048
 02 07 11 18 40 30.0000000  0  8 03 09 14 15 17 18 21 31
 -12591366.22449  -9811446.23246         0.00041  21746988.94346  21746985.65049
   -104566.22748         0.00041         0.00041         0.00041  23335004.05648
 -16124587.80049 -12564593.42646         0.00041  21500018.07646  21500014.91549
  -6230765.65749  -4855147.44546         0.00041  20995264.53346  20995260.29949
     13475.44148     10488.51246         0.00041  21572504.20446  21572499.00548
  -8032259.29549  -6258900.96346         0.00041  21296518.84646  21296516.98449
 -16789110.38749 -13082407.06546         0.00041  21178622.46346  21178619.26249
  -1017154.68348   -792587.21444         0.00041  23714895.06944  23714886.87848
 02 07 11 18 41 00.0000000  0  8 03 09 14 15 17 18 21 31
 -12597030.18349  -9815859.70846         0.00041  21745911.11046  21745908.10949
   -129406.48148         0.00041         0.00041         0.00041  23330277.90748
 -16204082.23749 -12626537.04346         0.00041  21484890.94546  21484887.53349
  -6184945.90049  -4819443.77846         0.00041  21003984.21846  21003979.66149
     70415.86148     54857.58246         0.00041  21583339.02346  21583334.29148
  -7985658.20849  -6222588.45046         0.00041  21305387.14446  21305385.01449
 -16795706.91249 -13087547.20846         0.00041  21177367.18346  21177363.97949
  -1086636.22148   -846728.60244         0.00041  23701668.31944  23701665.17748
 02 07 11 18 41 30.0000000  0  8 03 09 14 15 17 18 21 31
 -12602151.23449  -9819850.14546         0.00041  21744936.79546  21744933.63849
   -153752.52248         0.00041         0.00041         0.00041  23325645.08848
 -16283193.02649 -12688181.70646         0.00041  21469836.12446  21469832.26149
  -6138779.69649  -4783470.16146         0.00041  21012769.25346  21012764.79149
    127684.39948     99482.33146         0.00041  21594237.25846  21594231.91148
  -7938925.24749  -6186173.18246         0.00041  21314280.19746  21314278.13849
 -16802173.97449 -13092586.47246         0.00041  21176136.50946  21176133.38149
  -1155706.69848   -900549.70344         0.00041  23688526.83544  23688520.83348
 02 07 11 18 42 00.0000000  0  8 03 09 14 15 17 18 21 31
 -12606717.15949  -9823408.02346         0.00041  21744067.68446  21744064.30949
   -177589.91448         0.00041         0.00041         0.00041  23321108.77648
 -16361905.55849 -12749516.04446         0.00041  21454857.31246  21454853.64949
  -6092254.52049  -4747216.82646         0.00041  21021622.69346  21021618.56849
    185293.44148    144372.40846         0.00041  21605199.54846  21605194.95048
  -7892049.11949  -6149646.35946         0.00041  21323200.49246  21323198.41949
 -16808500.04949 -13097515.86946         0.00041  21174932.53246  21174929.43349
  -1224351.55848   -954039.12144         0.00041  23675463.14844  23675457.76648
 02 07 11 18 42 30.0000000  0  8 03 09 14 15 17 18 21 31
 -12610699.38448  -9826511.06346         0.00041  21743310.03746  21743306.19048
   -200888.47248   -156536.31644         0.00041  23316680.71044  23316675.74348
 -16440189.85949 -12810516.70446         0.00041  21439960.49546  21439957.29049
  -6045341.90249  -4710661.56946         0.00041  21030549.47646  21030545.72649
    243271.15348    189549.77346         0.00041  21616233.15046  21616227.72048
  -7845002.12549  -6112986.41146         0.00041  21332153.07946  21332151.27649
 -16814657.14849 -13102313.59646         0.00041  21173761.00446  21173757.91049
  -1292540.39948  -1007173.19444         0.00041  23662485.28544  23662481.42948
 02 07 11 18 43 00.0000000  0  8 03 09 14 15 17 18 21 31
 -12614111.36348  -9829169.75646         0.00041  21742660.74646  21742656.55148
   -223659.48648   -174279.91641         0.00041         0.00041  23312342.06248
 -16518056.96749 -12871192.27646         0.00041  21425142.64246  21425139.53849
  -5998054.81549  -4673814.54146         0.00041  21039548.33546  21039544.50849
    301604.62548    235004.33146         0.00041  21627332.75846  21627328.49548
  -7797798.44549  -6076204.32546         0.00041  21341135.64246  21341133.50549
 -16820658.98949 -13106990.34346         0.00041  21172618.69646  21172615.53349
  -1360284.21248  -1059960.50144         0.00041  23649597.51244  23649589.76248
 02 07 11 18 43 30.0000000  0  8 03 09 14 15 17 18 21 31
 -12616963.48648  -9831392.20946         0.00041  21742117.61046  21742114.02748
   -245911.54048   -191619.16244         0.00041  23308110.34644  23308107.84348
 -16595515.28049 -12931549.30546         0.00041  21410402.77146  21410399.42449
  -5950403.44649  -4636683.64446         0.00041  21048615.89346  21048612.05649
    360283.56048    280728.08746         0.00041  21638499.77446  21638494.62448
  -7750449.19149  -6039308.83146         0.00041  21350145.88446  21350144.04949
 -16826516.21349 -13111554.40146         0.00041  21171504.31546  21171501.21449
  -1427591.04148  -1112407.30245         0.00041  23636790.41145  23636783.20948
 02 07 11 18 44 00.0000000  0  8 03 09 14 15 17 18 21 31
 -12619242.07249  -9833167.74846         0.00041  21741684.01346  21741680.82149
   -267628.81748   -208541.63844         0.00041  23303979.26644  23303975.59748
 -16672549.27749 -12991575.70246         0.00041  21395743.33946  21395740.17849
  -5902374.03449  -4599258.17446         0.00041  21057755.90646  21057751.45649
    419321.59948    326731.67446         0.00041  21649734.14046  21649728.79248
  -7702941.60149  -6002289.96146         0.00041  21359186.19346  21359183.97949
 -16832215.74249 -13115995.57746         0.00041  21170419.70646  21170416.79249
  -1494444.97248  -1164501.22044         0.00041  23624067.49944  23624060.11848
 02 07 11 18 44 30.0000000  0  8 03 09 14 15 17 18 21 31
 -12620978.18248  -9834520.56846         0.00041  21741353.39346  21741350.25348
   -288840.21148   -225069.89144         0.00041  23299945.67744  23299938.60848
 -16749187.72749 -13051293.87046         0.00041  21381160.28146  21381156.13649
  -5853997.17149  -4561561.95946         0.00041  21066961.69946  21066957.10649
    478687.99148    372991.11346         0.00041  21661031.54546  21661026.73548
  -7655307.08049  -5965172.18846         0.00041  21368250.85646  21368248.70249
 -16837788.98249 -13120338.34646         0.00041  21169359.06446  21169355.88249
  -1560874.89148  -1216264.73444         0.00041  23611425.93644  23611419.43948
 02 07 11 18 45 00.0000000  0  8 03 09 14 15 17 18 21 31
 -12622142.49348  -9835427.82946         0.00041  21741132.63146  21741129.07548
   -309514.54748   -241179.71644         0.00041  23296010.82244  23296003.82748
 -16825399.22649 -13110679.36246         0.00041  21366656.81546  21366653.24849
  -5805243.08549  -4523571.80646         0.00041  21076239.68746  21076235.09849
    538412.17248    419529.34546         0.00041  21672396.71846  21672391.38748
  -7607517.19949  -5927933.34746         0.00041  21377344.61846  21377342.99749
 -16843206.78849 -13124559.99846         0.00041  21168327.82646  21168324.87149
  -1626849.03948  -1267673.10145         0.00041  23598870.73145  23598865.03448
 02 07 11 18 45 30.0000000  0  8 03 09 14 15 17 18 21 31
 -12622740.00749  -9835893.43246         0.00041  21741018.99846  21741015.78449
   -329654.72248   -256873.30544         0.00041  23292178.27744  23292171.17248
 -16901186.94049 -13169734.63646         0.00041  21352234.64946  21352231.40649
  -5756116.87949  -4485291.67946         0.00041  21085587.19246  21085583.43449
    598489.28248    466342.59946         0.00041  21683829.18046  21683823.56748
  -7559577.71149  -5890577.92746         0.00041  21386467.77446  21386465.74049
 -16848474.37749 -13128664.59146         0.00041  21167325.25246  21167322.29749
  -1692370.22448  -1318728.49645         0.00041  23586401.46245  23586396.31948
 02 07 11 18 46 00.0000000  0  8 03 09 14 15 17 18 21 31
 -12622772.56049  -9835918.81346         0.00041  21741012.85646  21741009.66449
   -349260.24448   -272150.29644         0.00041  23288446.49744  23288440.63648
 -16976550.22249 -13228459.17646         0.00041  21337893.92846  21337890.92949
  -5706619.62749  -4446722.41946         0.00041  21095006.54546  21095002.61749
    658918.07048    513429.89346         0.00041  21695329.72246  21695323.40448
  -7511490.34949  -5853107.28246         0.00041  21395618.62646  21395616.69049
 -16853593.64549 -13132653.60946         0.00041  21166351.53546  21166348.32549
  -1757437.54448  -1369430.27344         0.00041  23574019.19644  23574014.64248
 02 07 11 18 46 30.0000000  0  8 03 09 14 15 17 18 21 31
 -12622242.24649  -9835505.59646         0.00041  21741113.99546  21741110.71349
   -368331.34548   -287010.82044         0.00041  23284816.83844  23284810.52648
 -17051489.21349 -13286853.10446         0.00041  21323633.47346  21323630.55249
  -5656753.24549  -4407865.53846         0.00041  21104496.13346  21104491.57949
    719696.44248    560789.57946         0.00041  21706894.07946  21706889.10048
  -7463257.95049  -5815523.62846         0.00041  21404796.73446  21404794.37449
 -16858567.00849 -13136528.93746         0.00041  21165404.97846  21165401.93749
  -1822051.04848  -1419778.40445         0.00041  23561723.95145  23561719.11648
 02 07 11 18 47 00.0000000  0  8 03 09 14 15 17 18 21 31
 -12621136.35649  -9834643.87846         0.00041  21741324.09246  21741320.76349
   -386853.44648   -301443.51344         0.00041  23281294.07344  23281284.88948
 -17125989.08849 -13344904.86546         0.00041  21309456.66846  21309453.45349
  -5606504.54349  -4368710.75146         0.00041  21114058.82046  21114053.89849
    780837.57848    608431.93946         0.00041  21718529.06046  21718523.85448
  -7414868.29549  -5777817.42846         0.00041  21414004.81046  21414002.79949
 -16863381.65549 -13140280.58246         0.00041  21164488.83246  21164485.67849
  -1886195.49448  -1469761.02044         0.00041  23549519.33944  23549512.33948
 02 07 11 18 47 30.0000000  0  8 03 09 14 15 17 18 21 31
 -12619469.44949  -9833344.99946         0.00041  21741641.53446  21741637.76449
   -404839.41148   -315458.47544         0.00041  23277868.49944  23277863.26048
 -17200062.34449 -13402624.19146         0.00041  21295360.63146  21295357.70649
  -5555888.11849  -4329269.42646         0.00041  21123690.20146  21123686.10849
    842326.81248    656345.54246         0.00041  21730230.56046  21730224.97348
  -7366336.89649  -5740000.78046         0.00041  21423239.79146  21423238.34149
 -16868052.92649 -13143920.50946         0.00041  21163600.02746  21163597.04549
  -1949883.45248  -1519387.93544         0.00041  23537397.57844  23537393.70248
 02 07 11 18 48 00.0000000  0  8 03 09 14 15 17 18 21 31
 -12617264.35449  -9831626.75546         0.00041  21742060.96446  21742057.51049
   -422309.75748   -329071.73044         0.00041  23274543.23444  23274539.75648
 -17273729.82149 -13460027.33546         0.00041  21281341.72546  21281337.94349
  -5504926.21449  -4289558.89146         0.00041  21133387.91546  21133384.07549
    904141.45448    704512.72646         0.00041  21741993.22046  21741987.70248
  -7317686.82049  -5702091.65246         0.00041  21432498.10946  21432496.50249
 -16872603.64249 -13147466.49446         0.00041  21162734.11346  21162731.05949
  -2013135.12848  -1568674.91144         0.00041  23525364.16444  23525357.47748
 02 07 11 18 48 30.0000000  0  8 03 09 14 15 17 18 21 31
 -12614500.52049  -9829473.13046         0.00041  21742586.93646  21742583.54849
   -439241.95248   -342265.59644         0.00041  23271324.85744  23271315.92148
 -17346968.67249 -13517096.49346         0.00041  21267404.72946  21267401.56949
  -5453597.73249  -4249562.70846         0.00041  21143155.14946  21143150.99749
    966302.49548    752949.82246         0.00041  21753822.68546  21753817.06648
  -7268897.78149  -5664074.25546         0.00041  21441782.58246  21441780.03149
 -16877013.46949 -13150902.70246         0.00041  21161894.84346  21161891.97949
  -2075927.72948  -1617604.13844         0.00041  23513411.97044  23513408.36848
 02 07 11 18 49 00.0000000  0  8 03 09 14 15 17 18 21 31
 -12611190.04549  -9826893.54946         0.00041  21743216.92846  21743213.16149
   -455646.24948   -355048.09844         0.00041  23268203.70744  23268193.77948
 -17419788.83449 -13573839.39346         0.00041  21253547.40546  21253545.06849
  -5401914.66049  -4209290.23846         0.00041  21152990.43146  21152985.91049
   1028798.19248    801647.68046         0.00041  21765715.24146  21765709.44048
  -7219982.59449  -5625958.56246         0.00041  21451090.40646  21451088.63749
 -16881295.13449 -13154239.04046         0.00041  21161079.93546  21161076.78749
  -2138271.01048  -1666183.25345         0.00041  23501550.36145  23501543.67148
 02 07 11 18 49 30.0000000  0  8 03 09 14 15 17 18 21 31
 -12607314.74948  -9823873.85646         0.00041  21743953.78046  21743949.71348
   -471502.38948   -367403.49244         0.00041  23265183.11744  23265176.86548
 -17492170.21349 -13630240.38246         0.00041  21239774.09346  21239770.93749
  -5349858.55949  -4168727.09646         0.00041  21162896.65746  21162892.48849
   1091646.72348    850620.46546         0.00041  21777675.10246  21777668.87548
  -7170923.34649  -5587730.60346         0.00041  21460425.92546  21460424.37749
 -16885429.81749 -13157460.85146         0.00041  21160293.05846  21160290.02849
  -2200144.54548  -1714396.32345         0.00041  23489774.40045  23489769.84548
 02 07 11 18 50 00.0000000  0  8 03 09 14 15 17 18 21 31
 -12602866.11549  -9820407.41946         0.00041  21744801.01246  21744796.92949
   -486799.82648   -379323.47044         0.00041  23262274.70844  23262266.26948
 -17564102.06749 -13686291.08646         0.00041  21226086.16546  21226082.47049
  -5297420.11749  -4127866.01846         0.00041  21172875.35146  21172871.29849
   1154857.22348    899875.31046         0.00041  21789704.22446  21789697.62648
  -7121711.75549  -5549383.94146         0.00041  21469790.99146  21469789.12749
 -16889409.02149 -13160561.51046         0.00041  21159536.04646  21159532.85349
  -2261537.07848  -1762234.61145         0.00041  23478091.75645  23478087.17448
 02 07 11 18 50 30.0000000  0  8 03 09 14 15 17 18 21 31
 -12597854.45649  -9816502.25246         0.00041  21745754.69546  21745751.47849
   -501547.14948   -390814.83944         0.00041  23259466.67644  23259460.32148
 -17635592.58949 -13741997.90446         0.00041  21212481.45346  21212478.28449
  -5244609.61049  -4086715.01946         0.00041  21182924.70146  21182920.36849
   1218419.28548    949404.08746         0.00041  21801798.80546  21801793.47348
  -7072358.78449  -5510927.11346         0.00041  21479182.87146  21479180.41849
 -16893243.23549 -13163549.19646         0.00041  21158806.31246  21158803.27149
  -2322456.99948  -1809704.62545         0.00041  23466500.66445  23466494.95048
